GFSSE_sfc_rhum_000.txt.gz
RH
60 54 90 85 88 91 92 92 89 86 86 86 87 90 89 88 87 87 83 83 81 78 78 79 80 74 71 70 78 84 87 87 86 83 79 75 75 75 77 79 78 40 77
64 54 92 88 86 89 90 90 90 89 83 81 81 80 84 82 80 84 83 83 82 77 75 78 80 76 72 78 87 91 91 89 88 86 83 78 75 74 77 79 76 56 78
66 57 52 88 84 84 86 86 86 83 85 85 77 81 83 78 80 78 78 81 81 76 76 75 74 78 80 88 90 89 88 88 88 87 85 42 41 71 76 80 79 80 75
65 50 48 91 87 85 87 85 84 81 84 84 82 82 83 83 79 88 84 80 79 77 76 76 74 75 78 85 90 90 89 88 89 87 51 37 35 73 78 80 79 75 75
58 54 58 90 89 88 86 85 83 83 81 81 78 78 80 78 85 84 89 82 80 78 76 74 73 78 86 89 90 92 91 90 90 74 36 40 35 64 78 81 82 82 83
57 53 76 91 89 87 83 82 83 83 82 82 82 77 77 74 73 75 81 82 77 75 71 73 75 80 84 86 90 92 93 92 94 42 38 48 44 76 78 82 84 83 83
58 55 57 94 88 82 76 75 81 84 82 81 80 82 80 79 80 82 82 81 83 77 75 75 83 82 83 86 90 91 94 94 53 35 39 41 46 77 77 79 83 84 82
49 54 55 85 93 91 86 81 82 83 84 83 83 83 83 84 82 82 84 84 86 86 82 83 87 86 84 87 88 90 91 95 59 38 39 38 68 79 76 79 83 82 83
50 52 51 53 67 89 91 90 92 89 86 87 87 88 90 90 90 87 84 82 82 83 83 84 85 84 81 82 87 88 93 90 49 38 39 37 82 81 77 79 80 80 82
48 46 52 51 51 57 55 87 86 89 90 90 92 93 95 94 91 89 88 84 85 84 84 85 86 85 82 82 86 90 92 92 55 42 39 39 79 79 78 78 78 79 81
40 45 58 54 58 56 48 51 70 81 85 87 84 92 84 63 76 79 91 88 90 87 88 87 89 89 90 89 88 89 92 60 55 44 39 73 74 71 75 77 80 81 80
38 36 43 59 58 54 40 48 58 58 57 57 57 64 58 76 80 89 92 90 88 90 90 91 89 88 85 49 54 69 54 59 66 52 42 85 79 74 70 77 80 80 79
33 33 38 50 58 55 53 46 49 73 63 56 64 62 74 82 90 82 97 98 95 89 92 93 86 75 71 63 62 65 84 93 90 84 63 83 83 79 71 72 78 76 77
31 31 33 46 55 56 44 44 46 44 47 50 60 68 72 76 78 88 92 94 96 93 93 91 95 97 88 71 82 92 80 89 86 86 63 76 84 81 78 71 75 73 77
28 30 30 37 45 47 49 45 46 45 43 46 47 56 54 61 74 76 78 81 86 94 96 94 78 80 91 92 90 87 80 80 82 88 92 79 87 83 82 74 70 74 73
24 26 26 29 37 37 42 46 42 39 35 35 40 50 58 56 71 73 85 84 88 91 91 86 89 82 87 84 83 75 74 70 78 81 77 78 81 77 79 82 75 74 73
20 23 23 25 30 33 36 32 28 27 28 32 39 53 55 54 64 68 62 66 66 82 87 92 94 93 89 84 77 65 67 75 82 80 76 81 78 74 81 84 85 78 78
18 20 21 16 25 28 29 24 22 24 26 29 37 41 48 49 49 52 52 58 62 65 74 82 89 90 97 97 94 82 72 62 70 72 76 81 84 57 55 80 83 86 80
19 18 22 24 24 24 26 25 30 33 25 26 31 31 39 37 40 36 39 44 47 43 50 53 59 65 64 75 74 74 85 82 67 65 70 83 86 85 58 46 80 82 85
22 20 22 22 26 26 24 26 25 26 26 25 25 26 31 31 33 31 31 39 34 32 34 36 39 37 44 61 57 70 83 77 79 75 71 80 85 85 89 70 36 53 90
24 22 21 23 26 23 23 23 23 24 25 26 23 27 30 26 28 32 26 29 32 34 38 37 34 36 34 43 43 59 66 86 77 79 74 62 77 85 85 80 53 32 47
24 23 20 20 23 22 19 20 22 23 21 21 24 30 30 32 30 27 30 28 32 29 34 37 39 34 31 35 42 43 66 64 73 77 75 76 69 71 86 81 65 41 35
29 27 23 20 20 22 23 21 22 24 26 23 23 23 28 34 34 37 34 34 34 34 32 37 36 38 34 30 36 45 47 65 76 60 70 84 81 82 76 82 80 50 38
30 29 26 22 20 21 26 22 28 21 20 19 24 23 26 32 36 36 38 40 44 39 39 36 28 37 38 36 29 26 46 41 43 48 55 71 90 88 78 83 82 71 48
29 32 31 24 23 22 27 30 28 30 24 25 28 34 34 34 35 35 37 43 46 43 43 46 46 41 36 36 34 32 32 33 38 48 44 44 69 81 93 79 81 92 77
31 34 34 28 24 26 29 33 36 35 32 30 30 31 28 28 28 32 32 38 41 43 44 43 46 47 46 42 37 36 33 33 31 32 44 45 43 50 79 85 92 93 93

GFSSE_sfc_rhum_003.txt.gz
RH
46 50 85 81 84 88 88 89 89 86 80 84 82 83 83 83 84 83 82 82 80 76 75 74 77 74 71 70 74 80 85 86 85 81 77 74 73 73 75 76 76 48 81
51 50 89 82 83 86 87 86 86 89 77 74 80 80 80 82 79 79 80 77 74 72 67 68 74 73 70 76 83 84 85 88 88 86 82 77 75 73 74 77 76 57 79
55 44 46 82 77 82 83 84 83 83 85 84 76 81 79 79 83 85 81 82 89 82 71 71 74 74 74 81 86 87 86 88 87 87 84 46 47 75 74 77 75 80 80
61 48 42 85 81 78 82 81 82 80 82 86 84 81 78 87 87 82 78 74 81 83 90 70 70 73 78 85 89 88 87 87 88 87 54 38 41 77 75 74 76 76 77
50 48 56 88 87 81 79 79 78 78 78 80 84 80 76 82 79 74 76 80 82 84 79 73 70 77 84 87 87 90 89 88 89 75 38 36 35 67 77 76 78 80 81
58 56 74 88 84 78 70 72 76 76 75 78 82 82 80 74 83 76 78 86 87 82 81 74 76 84 88 86 84 87 91 90 92 47 34 43 41 79 78 80 85 80 85
53 61 65 92 87 80 74 68 73 78 78 77 79 82 80 78 80 79 78 80 81 92 92 76 79 89 86 83 84 87 91 92 60 38 32 35 43 79 76 80 85 85 85
41 50 59 86 89 87 86 84 82 79 78 79 76 79 79 81 81 78 82 84 83 82 84 85 86 83 81 80 82 85 88 94 58 41 32 32 69 80 76 80 85 84 82
38 41 42 44 66 87 85 83 85 85 81 81 84 83 82 85 84 82 89 87 85 79 82 78 84 82 78 81 82 84 90 90 59 52 33 33 84 79 74 80 84 84 84
40 36 40 40 40 47 49 79 81 85 85 84 88 89 88 82 84 87 81 81 82 79 78 89 84 82 80 81 85 86 87 89 58 45 48 41 80 73 75 76 80 82 84
34 38 48 44 48 47 38 45 73 79 78 82 81 83 81 57 69 64 83 84 81 83 80 84 82 85 86 88 86 88 89 49 46 53 58 80 74 67 68 76 80 82 83
31 31 35 52 54 50 34 39 48 52 49 50 50 57 49 59 62 63 79 88 86 86 84 84 86 81 88 64 67 80 47 40 48 46 42 80 73 67 67 75 78 79 82
27 28 35 47 55 54 47 43 62 56 54 51 56 52 64 59 63 62 69 67 76 83 78 88 92 92 92 93 93 76 48 49 46 45 49 79 79 71 70 70 76 78 82
25 28 33 47 52 50 38 38 43 42 44 43 52 56 59 56 68 66 69 66 75 78 81 89 97 95 88 85 92 90 86 73 64 65 60 77 83 71 69 72 72 75 80
24 27 29 37 45 47 45 42 43 41 38 40 40 48 44 46 58 56 59 57 61 65 79 84 87 90 93 89 91 89 83 78 78 71 70 79 80 72 64 68 73 71 76
21 25 28 31 36 37 40 43 41 37 34 33 38 45 52 50 57 55 55 57 56 70 78 88 90 87 89 86 86 88 85 81 75 66 64 69 87 83 71 65 71 73 72
20 22 25 26 30 33 34 31 26 25 28 32 38 47 47 45 52 48 45 45 48 60 73 78 81 87 89 87 85 81 81 77 72 77 66 66 69 87 82 74 70 78 78
18 20 20 13 23 26 27 24 21 23 27 31 35 38 43 43 42 43 40 42 45 44 48 55 65 75 78 81 88 88 75 70 63 63 71 76 67 56 74 78 75 72 82
19 19 20 20 22 24 25 20 26 31 24 25 30 30 37 35 34 32 34 37 39 33 36 35 36 47 50 54 64 62 65 76 69 65 70 74 73 71 57 67 80 78 77
21 20 20 20 22 24 22 25 23 24 25 26 25 25 31 28 29 29 29 35 34 31 33 37 39 33 36 40 41 40 52 77 82 72 73 63 66 70 71 65 50 68 82
23 23 21 22 23 22 21 22 23 26 25 25 22 26 28 24 28 31 26 28 32 31 35 40 39 41 35 34 42 43 36 46 64 70 74 78 69 65 69 70 72 56 49
24 24 21 20 22 23 19 21 21 23 21 22 23 29 31 30 30 28 30 30 31 32 38 38 41 39 38 36 37 39 43 39 40 59 64 76 70 64 67 69 73 74 64
27 27 23 20 20 23 23 18 21 24 26 23 23 25 30 34 32 32 33 33 35 36 35 38 38 40 38 40 43 36 40 44 47 33 45 56 73 81 77 72 75 70 70
28 28 25 23 21 20 24 23 29 23 22 21 22 20 20 26 31 32 32 33 36 36 40 42 33 43 46 42 40 32 44 39 42 47 35 36 55 60 90 89 75 70 72
24 30 30 26 24 22 23 32 31 35 30 24 25 28 31 31 31 30 32 35 38 36 40 47 50 51 43 46 43 42 45 40 43 43 44 37 35 47 86 90 92 84 72
26 30 32 29 26 24 25 27 40 43 37 32 35 36 40 35 36 33 28 35 38 39 39 43 49 50 50 49 46 46 44 45 41 41 42 42 38 36 37 63 85 94 93

GFSSE_sfc_rhum_006.txt.gz
RH
53 62 85 82 86 89 89 91 92 86 82 85 84 85 86 85 83 80 77 77 76 73 70 74 78 75 69 69 76 85 87 87 85 84 81 76 73 74 72 80 83 65 83
52 57 85 83 84 87 88 87 90 89 82 81 83 83 82 82 80 82 82 78 78 76 74 73 74 77 75 78 84 85 86 88 87 86 84 80 78 72 74 81 77 64 84
51 50 54 83 78 80 83 85 86 87 85 85 80 80 84 84 85 85 84 85 81 68 71 80 80 76 78 82 85 85 87 88 88 87 85 77 76 77 74 80 79 80 83
50 54 61 87 83 76 77 78 83 84 85 85 83 78 84 83 80 82 74 72 78 75 71 77 84 84 80 84 87 88 88 88 88 87 84 64 54 78 72 76 77 80 83
54 55 70 87 84 78 77 78 80 82 84 86 86 80 80 83 81 79 80 78 77 81 81 78 88 93 78 87 88 86 86 87 89 83 73 52 56 72 73 73 79 80 80
53 54 84 89 84 77 71 75 80 81 84 88 88 86 86 85 75 72 77 79 82 82 81 87 79 94 91 88 88 86 86 88 89 81 64 52 51 78 75 82 81 77 82
53 58 67 90 88 84 80 82 85 84 83 82 86 86 84 84 84 83 83 84 82 83 75 81 81 88 92 92 85 88 89 91 82 73 54 54 72 82 76 81 87 85 85
51 56 64 87 88 86 85 85 85 84 83 82 83 83 86 87 85 88 89 88 86 84 84 82 85 88 84 83 85 87 88 92 74 71 57 42 77 84 77 82 87 86 85
37 42 49 65 77 87 86 84 85 83 82 80 80 78 85 90 91 89 89 87 82 85 88 81 83 85 85 85 85 87 89 90 94 70 55 53 84 83 78 81 85 86 85
43 41 46 47 62 79 73 81 82 85 83 80 84 84 87 90 91 88 86 83 79 86 85 81 79 90 86 87 88 87 88 89 93 72 62 74 80 77 75 80 82 84 84
36 47 57 53 58 58 56 68 80 84 84 87 86 86 88 78 77 82 85 84 79 78 77 76 74 77 80 83 88 87 88 83 68 66 68 78 79 69 72 81 83 86 86
37 37 46 62 67 66 43 50 72 62 68 72 70 75 75 75 85 81 87 87 84 82 82 80 80 78 77 84 91 89 88 71 63 66 75 81 78 66 66 77 84 83 86
34 39 45 60 68 69 65 68 66 67 71 71 69 71 79 74 80 82 78 84 85 85 91 88 89 92 90 94 94 94 92 92 78 65 63 81 78 67 66 72 82 82 84
30 34 43 60 65 67 61 58 65 59 63 67 70 69 78 81 82 82 78 80 83 83 82 88 97 94 95 92 95 94 94 96 90 73 78 80 81 76 66 68 73 79 83
33 34 40 52 61 64 60 66 66 64 62 60 63 63 69 71 80 76 80 78 80 80 88 93 93 94 95 96 94 94 90 91 92 89 82 81 82 77 70 67 69 72 78
27 34 40 45 54 54 59 63 66 62 59 57 61 65 65 74 78 77 75 74 75 78 84 90 95 93 92 94 94 92 91 87 86 85 79 77 84 81 77 69 68 71 74
27 31 38 41 48 52 55 56 57 52 49 57 62 60 61 65 66 64 67 66 70 74 78 85 86 90 95 94 94 94 94 91 90 90 89 80 80 86 83 79 76 72 76
29 30 33 23 40 45 49 45 43 45 53 55 62 63 59 57 56 60 62 66 65 67 65 65 68 73 82 86 93 94 90 85 86 84 77 81 76 70 85 86 80 78 75
28 29 32 32 34 40 42 41 44 47 48 50 58 58 55 51 49 52 58 66 61 56 57 56 60 61 59 59 53 67 69 73 70 74 78 79 84 80 73 81 85 80 77
33 32 33 33 36 40 41 44 46 48 46 47 50 48 50 49 45 49 54 54 53 54 56 61 63 62 61 60 40 44 59 59 73 85 81 77 78 78 81 78 79 79 81
36 33 32 32 38 37 42 46 46 50 48 49 46 44 49 45 47 50 53 50 53 54 57 56 60 61 66 63 64 58 57 49 54 52 81 88 87 84 81 78 77 74 62
35 35 34 33 35 36 36 40 43 46 42 41 45 51 47 51 47 46 53 49 50 56 58 62 63 64 66 62 72 63 62 50 54 52 52 73 83 90 86 78 78 76 74
40 42 35 33 33 37 39 36 41 44 46 44 44 45 51 51 53 53 52 54 54 57 61 64 63 62 66 65 61 69 65 65 57 47 54 48 60 74 87 90 88 79 76
41 44 40 38 34 33 43 37 46 39 36 35 43 39 36 52 55 50 52 54 58 59 60 64 52 71 68 68 66 53 64 62 61 61 56 55 52 50 75 89 90 88 84
37 47 46 42 41 38 42 46 43 48 45 47 49 48 46 48 45 43 46 53 58 62 64 66 67 67 69 70 66 69 66 62 60 62 62 52 54 52 61 91 94 93 83
39 43 49 47 38 41 43 47 54 52 53 54 53 55 52 51 54 54 48 57 59 60 60 62 63 62 64 64 62 60 59 60 57 57 57 53 52 49 49 54 88 91 92

GFSSE_sfc_rhum_009.txt.gz
RH
77 79 86 89 92 92 92 92 92 88 87 86 86 86 84 84 83 82 81 81 81 74 69 69 74 76 72 71 79 86 87 87 87 85 82 76 74 74 78 87 83 71 85
75 78 84 85 88 90 90 91 90 88 87 85 84 83 82 83 83 83 81 76 74 74 65 66 74 74 72 75 81 85 88 87 86 84 83 82 80 75 79 83 80 71 85
64 64 75 85 84 85 87 88 89 86 86 86 83 82 85 85 86 83 82 83 80 72 68 69 75 74 84 87 81 86 87 90 89 87 86 88 86 74 78 80 82 82 82
62 76 78 86 85 85 85 87 88 85 85 86 86 88 85 85 84 80 78 73 71 70 70 82 83 77 85 95 86 85 87 89 89 88 90 78 70 77 73 77 81 83 83
73 82 83 86 82 81 86 87 87 88 88 87 88 84 86 80 76 74 81 79 75 74 78 74 76 85 90 93 96 85 84 89 87 86 92 78 70 71 71 75 81 84 86
89 94 91 88 84 81 86 88 87 88 90 89 89 90 86 80 76 74 75 76 77 81 82 85 72 80 92 92 89 89 92 88 87 91 84 73 70 77 72 81 83 83 84
87 91 91 91 88 86 83 84 88 87 86 89 89 89 88 85 83 81 83 85 85 81 80 80 78 76 81 92 93 90 94 90 85 90 86 71 74 83 75 78 85 84 84
73 82 83 88 87 87 85 83 85 85 85 85 87 91 89 89 92 90 91 91 90 84 77 75 77 78 77 81 91 89 89 91 80 87 80 68 68 82 77 82 87 88 87
68 80 90 88 86 86 85 84 82 82 85 86 86 88 93 93 93 91 88 86 88 88 89 89 89 89 89 88 86 87 87 87 93 90 75 66 82 82 78 83 87 88 87
60 63 82 87 88 89 87 84 84 82 84 88 89 88 95 92 91 90 87 86 87 84 82 81 88 91 90 88 88 89 89 89 95 92 83 77 84 77 78 82 84 88 87
53 68 66 72 82 87 78 79 84 84 85 88 88 86 94 96 92 83 87 84 79 80 77 74 77 84 77 79 85 89 91 95 86 78 83 80 79 72 75 83 87 88 86
48 61 69 72 75 74 58 84 85 83 90 90 86 87 89 88 86 86 86 87 84 82 82 80 78 76 77 87 92 91 91 90 91 78 77 84 80 69 73 86 86 87 86
47 53 64 75 79 78 76 87 91 82 86 83 81 86 82 87 92 97 98 96 97 86 97 92 93 95 89 93 94 94 91 89 97 90 80 84 81 69 69 78 85 86 86
47 53 66 70 74 75 76 82 81 81 80 86 82 83 90 96 93 93 93 93 93 95 94 94 98 95 93 94 96 96 95 93 91 89 84 86 81 74 69 66 74 81 85
36 47 61 68 73 71 71 76 71 72 72 71 76 71 80 89 92 91 89 87 92 94 93 96 97 96 96 95 96 97 96 92 92 91 88 89 86 79 74 71 68 70 78
29 45 54 61 64 64 75 70 70 67 60 66 74 73 73 82 86 85 87 84 88 90 94 94 95 92 98 97 97 96 96 96 93 89 90 88 91 86 81 74 72 70 71
32 41 48 50 60 59 68 66 65 62 62 67 70 66 65 74 68 71 73 78 78 82 87 88 90 91 94 94 94 97 95 93 97 94 93 91 91 94 90 83 78 74 74
34 39 40 34 54 55 62 61 59 51 57 66 72 70 61 60 64 67 71 73 62 69 70 58 68 65 73 71 79 87 96 88 84 81 91 94 92 89 95 90 84 80 76
33 36 38 31 44 46 46 49 53 52 57 63 75 70 63 59 53 56 69 64 57 65 63 58 60 65 64 64 57 54 58 61 66 55 69 80 91 89 90 93 92 87 83
36 34 36 36 32 42 45 44 51 50 48 59 66 66 59 59 52 51 62 66 57 60 66 62 60 65 67 67 54 54 61 68 67 69 78 68 75 89 91 85 86 89 90
39 32 32 35 38 41 42 46 48 55 53 56 51 54 57 56 50 50 55 61 62 60 62 59 65 62 63 68 71 69 65 60 56 58 71 79 87 65 95 94 94 88 83
36 37 36 34 38 40 43 45 46 49 50 50 52 56 57 56 55 52 55 55 54 58 55 59 70 70 71 67 73 73 74 63 61 58 55 67 69 79 60 67 90 92 88
40 39 39 38 37 43 40 42 47 53 51 46 49 55 55 53 56 56 56 61 60 62 63 66 63 62 69 71 65 71 75 72 69 60 60 62 64 72 74 73 76 80 76
42 45 41 40 40 40 46 44 43 41 44 44 46 47 51 58 59 58 57 61 64 67 65 70 66 73 72 77 75 61 72 74 72 69 66 62 61 57 73 80 80 77 81
43 47 49 45 44 44 47 51 49 47 55 50 52 50 54 62 60 56 58 59 65 70 64 64 66 69 76 78 77 78 73 70 75 69 67 56 59 60 63 76 85 94 87
41 45 51 49 45 47 49 51 56 52 47 55 54 59 59 60 57 54 51 58 60 59 57 59 59 56 62 67 70 71 67 64 59 61 63 57 54 54 59 58 70 84 89

GFSSE_sfc_rhum_012.txt.gz
RH
82 90 91 92 92 93 92 91 92 89 88 87 87 85 85 84 85 85 84 83 82 80 74 77 78 77 74 74 77 82 83 86 87 84 82 78 75 79 79 86 85 78 86
82 80 87 90 91 91 92 88 88 91 87 86 85 84 84 84 84 83 82 86 81 71 65 71 73 72 74 81 82 82 84 86 88 88 87 83 80 75 79 82 82 82 87
75 79 80 86 88 89 90 90 88 88 88 86 85 83 84 85 84 83 83 83 75 70 69 74 74 79 77 79 84 85 82 84 88 86 85 92 90 78 79 80 80 87 86
72 81 84 86 88 88 89 89 87 85 85 86 86 87 87 85 84 80 78 75 71 69 78 78 76 75 82 88 88 88 89 87 88 88 93 87 80 76 78 78 83 85 84
87 89 84 84 87 89 89 89 88 87 87 89 89 87 84 82 80 78 80 79 76 74 77 76 78 83 88 84 82 84 86 86 87 86 93 90 83 69 74 76 84 85 84
93 92 90 86 85 90 90 88 89 89 89 90 92 90 83 80 77 74 75 75 78 80 83 78 81 86 85 83 85 85 83 87 93 90 92 83 77 72 74 82 84 87 87
93 93 91 89 85 85 85 86 88 88 90 90 91 90 89 86 86 86 86 83 85 81 79 79 81 90 91 84 80 82 83 89 89 93 93 85 76 80 75 80 84 87 87
85 91 89 87 85 84 84 85 86 88 88 89 92 91 89 90 90 91 91 91 88 82 76 75 77 82 83 90 90 89 89 92 89 94 92 82 76 77 76 80 83 85 86
83 90 94 92 87 87 85 84 84 85 88 89 92 94 93 93 94 90 90 89 88 90 90 88 82 85 87 87 91 90 89 89 94 93 86 75 75 79 76 81 85 88 89
86 90 94 94 92 91 91 88 87 86 85 90 91 94 93 93 92 90 91 89 86 85 83 87 90 90 89 88 89 91 90 90 94 93 90 79 82 76 77 78 82 88 88
76 89 95 95 93 89 83 81 88 85 87 88 89 95 94 96 94 91 89 88 82 80 78 78 79 82 79 82 83 85 89 96 89 82 80 81 79 76 74 79 83 86 87
72 72 78 84 88 90 66 83 90 87 92 93 92 95 97 97 96 91 90 86 81 82 81 81 80 80 81 90 93 88 96 89 89 88 86 83 81 68 71 81 84 84 88
57 70 77 79 84 82 82 93 98 98 97 96 92 93 95 94 97 98 98 98 97 90 97 94 94 96 92 94 95 95 93 91 93 92 84 86 80 72 71 75 82 84 88
56 65 77 80 78 81 90 95 94 92 95 95 93 90 95 98 97 97 98 97 97 97 96 97 98 97 94 92 94 95 96 97 91 81 88 86 85 80 75 70 73 78 82
53 64 75 78 80 77 76 78 78 80 82 80 80 79 89 96 96 96 95 92 95 97 97 97 96 95 94 96 96 96 97 96 96 94 87 86 88 83 78 76 72 73 77
48 60 73 73 73 75 76 74 73 70 69 75 80 80 82 92 94 95 95 94 95 95 95 94 94 93 95 96 96 96 98 98 95 94 97 93 89 87 83 77 76 75 72
44 52 64 68 68 67 75 70 68 65 64 74 76 73 74 79 76 84 86 90 89 92 91 89 86 84 84 84 77 83 94 93 89 90 97 97 95 92 92 88 85 82 77
40 50 53 47 63 66 71 68 64 64 68 70 76 75 68 70 71 74 78 76 73 81 82 65 68 63 67 69 74 73 81 72 68 70 76 86 94 95 93 94 91 88 85
41 46 45 49 60 59 65 65 59 58 58 66 78 76 68 66 64 67 78 72 64 71 70 63 65 66 65 65 61 63 63 61 65 56 60 71 90 90 89 90 94 94 92
43 42 42 36 48 49 51 53 58 60 57 65 77 75 67 66 60 62 72 70 63 69 70 69 62 70 68 65 55 57 66 62 66 66 64 66 79 86 73 93 94 96 96
42 39 40 37 38 49 50 51 53 56 57 59 66 68 67 64 61 59 64 68 69 66 68 67 66 68 66 72 70 71 69 67 62 53 68 76 77 71 83 71 84 94 93
37 36 37 36 40 43 46 47 47 49 53 53 57 61 69 67 63 58 61 64 66 70 68 69 71 74 73 74 73 79 74 64 65 64 60 65 73 77 72 66 74 74 83
40 40 37 38 38 44 45 47 50 56 58 56 56 59 60 63 61 61 60 66 65 69 68 64 67 68 71 77 71 73 81 80 69 62 65 65 65 74 77 76 69 66 79
41 45 45 42 42 42 48 48 48 41 41 43 47 54 58 60 59 62 63 67 68 73 71 74 71 78 78 76 80 70 78 85 83 67 67 62 62 59 74 77 72 66 70
40 45 48 46 46 46 50 55 54 51 47 44 58 54 56 62 64 64 68 69 77 77 69 62 60 60 68 73 73 77 73 77 81 77 62 47 46 55 64 79 83 84 66
45 48 50 51 49 51 53 57 61 59 52 56 58 64 66 71 73 70 62 62 63 61 61 64 61 61 63 62 63 69 72 73 62 70 66 59 54 46 44 51 58 68 72

GFSSE_sfc_rhum_015.txt.gz
RH
91 93 93 93 92 91 90 92 90 88 87 87 86 86 86 88 85 87 86 84 84 80 73 74 77 74 72 69 76 82 82 84 84 84 82 77 73 73 77 82 86 80 84
88 90 91 91 92 92 89 91 92 88 86 85 85 86 85 85 86 84 87 83 78 70 68 74 72 73 73 74 83 82 83 83 84 83 82 81 80 78 77 85 84 86 84
86 87 86 90 91 91 90 88 88 89 88 85 84 85 86 85 85 86 83 81 74 71 68 74 76 77 78 81 84 85 82 83 85 84 84 89 90 77 78 84 81 84 83
82 88 86 89 90 89 89 88 89 84 85 87 87 86 84 84 85 81 77 77 76 70 74 73 76 76 81 86 85 81 80 85 86 88 91 85 79 74 75 79 83 83 83
91 89 85 89 90 89 88 87 87 86 90 91 90 86 84 82 79 80 80 80 77 73 73 73 75 77 86 88 86 83 82 84 90 88 94 91 88 72 72 76 82 84 86
92 90 86 89 90 89 88 86 86 86 89 91 92 88 84 81 77 73 80 82 78 78 81 75 78 86 88 85 82 84 82 84 90 95 95 87 84 75 74 80 85 86 86
93 92 86 89 87 88 84 83 87 88 90 90 90 92 87 85 87 88 87 80 85 82 80 82 81 89 90 82 80 82 84 84 90 96 97 93 86 80 75 81 83 86 87
88 93 90 85 82 81 83 86 88 88 89 91 91 91 90 90 91 90 90 90 86 79 75 74 78 86 85 88 90 89 89 90 92 97 96 95 84 77 71 80 83 88 87
90 94 94 91 86 87 86 86 87 89 89 92 92 92 91 91 92 91 91 89 90 90 89 84 81 85 84 87 89 90 91 91 96 97 88 91 80 77 74 78 82 86 87
93 93 93 92 91 91 92 89 89 90 90 91 93 93 93 92 90 92 93 88 87 84 86 88 91 90 88 88 88 89 90 92 94 89 84 83 80 73 74 78 81 83 86
90 94 94 94 93 91 88 82 88 87 89 91 94 93 96 97 95 92 90 88 82 82 82 80 80 80 80 81 82 88 93 98 92 90 84 82 80 73 69 76 80 81 85
93 91 96 95 95 93 72 82 90 89 94 94 96 98 98 96 95 93 89 86 84 83 82 82 84 84 87 93 95 87 92 87 87 87 89 83 78 78 73 75 79 78 82
83 78 85 89 92 93 92 91 98 98 98 97 93 95 97 98 97 98 98 98 97 90 97 95 96 97 93 95 96 97 96 95 97 93 87 84 78 74 72 76 76 76 80
64 72 81 89 87 84 96 97 96 98 97 97 96 94 97 98 98 98 99 98 98 98 96 97 98 97 94 94 95 96 96 98 98 96 93 87 85 82 76 71 74 75 78
61 68 81 88 88 80 88 87 91 92 97 94 93 85 95 97 97 97 97 97 96 98 97 98 97 96 95 95 96 95 94 98 98 99 98 90 87 77 80 79 73 71 72
57 67 79 86 86 78 79 78 77 78 77 83 85 84 86 96 96 96 96 96 96 97 96 95 93 92 93 93 90 88 93 97 95 92 94 91 88 83 78 76 80 80 74
54 63 79 78 82 81 78 77 74 72 70 77 81 81 84 88 88 94 96 96 96 95 93 90 86 76 76 75 69 75 86 89 78 76 81 86 92 90 90 86 72 73 80
53 62 71 60 73 75 81 78 74 73 74 73 81 83 76 82 78 83 85 89 85 91 88 67 70 65 68 71 73 73 68 66 63 67 68 78 88 94 93 82 79 78 82
50 59 62 63 71 71 78 78 74 70 69 70 81 83 77 74 77 79 82 81 75 79 80 66 68 67 64 65 61 66 66 64 63 58 56 64 73 84 90 78 72 80 76
53 56 52 55 67 66 65 64 64 64 66 67 72 82 77 76 74 70 78 80 72 75 76 73 66 74 70 67 55 58 68 66 67 68 66 64 71 74 70 86 80 87 78
52 49 46 39 54 57 57 57 57 59 60 64 64 69 77 75 72 71 72 77 74 73 70 72 70 68 74 75 73 72 71 69 65 62 69 75 75 73 77 77 83 86 82
42 44 45 41 39 47 50 50 51 53 56 58 60 63 70 74 71 68 65 68 72 73 73 76 74 79 76 81 72 82 76 71 66 64 65 69 74 80 75 70 78 74 80
42 41 40 40 41 46 49 49 52 57 58 60 57 62 59 69 69 69 63 60 68 71 69 72 76 74 74 79 76 74 81 79 85 69 66 69 73 77 78 77 69 64 72
39 43 44 44 44 44 49 51 51 49 43 43 44 48 52 65 62 65 62 62 64 70 76 74 73 80 80 78 79 74 75 82 76 68 66 61 54 62 73 78 75 74 70
43 46 52 56 54 52 55 57 60 60 55 52 55 62 59 62 69 65 65 61 67 76 76 74 69 65 69 69 65 69 72 81 83 86 57 46 53 58 64 76 82 83 67
50 54 57 55 52 57 59 62 67 69 65 66 64 70 64 71 72 77 75 76 70 68 72 74 67 66 67 68 71 75 72 68 69 74 81 61 63 60 62 64 69 76 77

GFSSE_sfc_rhum_018.txt.gz
RH
92 95 93 91 90 91 91 90 89 89 88 86 84 85 83 81 82 81 82 84 83 79 74 76 75 74 68 68 76 81 81 82 84 82 80 76 74 75 77 87 86 79 84
90 94 93 91 92 90 92 93 89 88 87 87 85 83 85 86 84 82 84 82 79 71 72 73 74 73 70 73 82 82 81 83 85 84 86 83 82 75 76 85 85 83 83
91 92 93 92 91 90 89 90 90 89 87 85 86 85 84 85 86 83 82 77 72 70 70 72 71 73 77 79 84 84 82 81 80 84 84 87 85 75 76 86 84 87 82
86 90 92 90 90 89 88 89 89 86 87 88 86 85 84 85 85 82 76 74 75 71 70 70 72 74 77 84 85 83 82 85 86 86 92 84 76 72 73 80 80 82 82
89 89 93 91 89 88 87 87 87 88 91 90 89 86 84 83 82 80 82 84 78 73 71 71 74 75 85 88 85 86 84 86 90 88 93 90 88 74 74 76 82 84 86
92 89 92 91 88 87 86 85 85 86 90 92 91 87 83 82 80 80 79 81 80 77 77 75 78 84 90 87 81 83 81 81 85 90 94 88 84 77 75 81 82 83 87
92 90 89 92 88 87 82 82 86 88 89 90 91 91 86 87 87 87 83 81 85 83 81 84 82 89 91 88 88 89 88 88 93 96 95 94 90 81 75 79 83 82 85
93 92 88 85 82 83 85 85 86 88 90 90 89 92 90 90 90 88 90 90 86 81 79 78 78 88 86 84 85 91 92 92 93 95 93 94 86 82 75 74 83 81 85
93 93 92 90 85 85 85 86 87 88 89 91 91 91 90 91 93 92 91 90 88 89 90 87 85 90 90 90 91 92 92 92 95 92 83 91 80 78 74 73 82 83 84
93 92 92 91 91 91 90 87 87 89 91 92 92 92 92 91 91 92 91 87 84 84 84 86 84 83 82 82 84 93 92 90 92 89 82 80 78 77 72 76 78 85 85
90 93 93 92 91 90 86 82 88 86 90 91 94 92 96 96 94 92 90 86 82 82 80 80 81 82 81 82 82 82 87 92 88 88 87 82 76 73 78 77 81 83 84
95 94 94 94 93 91 77 84 90 89 94 95 97 97 97 96 95 92 89 86 83 83 82 82 82 83 85 93 93 87 93 91 90 89 88 82 76 73 72 74 79 80 81
92 93 94 95 95 95 95 93 98 98 98 97 94 98 98 98 97 98 98 98 97 89 97 95 95 97 91 94 96 97 96 97 98 96 90 85 82 80 76 72 71 77 82
88 87 89 90 92 92 95 97 96 98 98 98 97 95 99 99 99 98 99 98 98 98 96 97 98 97 95 94 96 96 94 97 99 98 95 84 70 64 71 76 74 72 73
78 76 82 90 92 87 95 97 97 97 97 96 96 94 97 98 98 98 98 98 98 98 97 98 97 97 95 93 94 95 96 98 95 95 91 74 70 63 65 67 73 74 73
66 70 80 90 92 88 93 90 95 94 95 95 93 88 87 96 97 98 98 97 97 98 97 95 92 90 90 88 78 77 79 95 78 75 81 78 75 77 76 66 66 67 68
61 66 78 88 90 86 82 82 82 82 80 85 88 85 87 93 95 95 98 97 97 97 94 94 92 80 77 75 68 73 79 78 71 71 75 80 84 84 74 69 55 56 60
60 64 77 70 84 87 86 85 82 78 79 78 83 87 85 88 87 93 97 97 96 97 96 81 73 68 69 70 72 69 67 66 63 65 65 74 79 83 77 66 62 58 58
56 62 73 75 76 78 82 86 85 80 80 77 80 86 84 82 86 86 89 90 92 89 96 77 72 69 68 68 66 68 69 68 63 56 59 64 69 73 78 74 65 67 64
51 61 67 66 72 76 78 77 73 72 70 74 74 80 81 83 80 86 86 85 84 83 86 80 71 76 70 68 54 60 70 70 70 70 63 62 68 70 70 73 79 80 65
56 61 59 55 60 71 67 63 62 61 62 65 66 66 75 78 80 82 78 83 85 77 72 76 75 71 78 81 74 71 72 72 72 69 70 71 69 68 72 74 79 78 69
52 56 54 47 44 59 58 56 56 57 58 62 64 63 68 78 81 77 76 72 79 76 78 77 76 80 77 83 74 80 72 69 68 69 68 67 69 77 68 65 72 69 70
47 49 46 46 44 47 51 52 52 55 57 57 54 58 56 64 67 80 73 70 70 74 70 68 71 75 69 86 80 72 84 79 80 69 69 65 71 68 73 70 64 65 70
44 46 47 48 48 47 52 55 58 58 56 53 57 57 49 60 66 69 76 74 70 70 71 74 74 79 79 82 85 76 73 77 60 54 59 65 53 55 64 70 71 66 68
52 57 60 59 60 62 64 66 69 69 72 70 69 69 66 66 69 68 70 73 78 79 77 76 78 77 71 76 64 71 72 76 77 66 68 56 55 57 60 71 77 80 74
63 66 68 65 62 64 66 67 69 77 77 76 69 79 78 82 81 80 80 86 86 82 77 71 72 71 76 76 80 80 77 79 74 78 84 73 66 58 62 64 71 74 75

GFSSE_sfc_rhum_021.txt.gz
RH
67 73 92 90 90 90 89 89 88 88 86 86 86 85 84 82 80 80 80 80 81 77 75 76 74 73 69 71 74 78 79 81 81 82 79 74 72 72 79 86 85 54 85
67 74 92 92 89 89 88 88 88 86 86 84 84 85 83 82 80 81 82 82 79 72 72 73 74 72 72 72 76 79 80 81 84 85 85 80 79 72 77 84 84 65 86
68 72 73 91 89 89 91 90 89 87 85 84 84 85 86 85 85 82 78 72 71 69 69 70 70 71 72 75 81 80 80 83 84 84 84 49 53 76 75 80 87 84 81
64 69 72 90 88 88 89 90 89 86 88 88 87 85 85 84 83 80 74 73 73 70 66 67 70 75 78 82 82 84 85 87 87 87 53 52 53 72 73 78 78 81 79
63 67 73 90 88 86 86 87 89 89 91 91 90 86 85 83 82 80 87 82 78 73 71 71 75 80 86 88 86 81 77 77 85 71 61 57 48 66 74 73 76 81 83
61 64 80 90 87 84 84 84 84 86 92 92 91 87 83 82 79 77 78 76 80 78 77 75 80 87 88 86 85 82 84 84 84 56 64 67 64 71 76 77 82 82 84
60 63 67 91 86 85 81 81 86 88 88 89 90 90 88 87 87 85 79 79 85 80 78 81 83 88 88 85 84 88 88 90 65 66 68 71 72 84 80 75 84 82 82
55 61 63 82 86 86 85 86 88 89 89 88 91 89 89 89 88 88 89 88 86 86 86 80 84 84 85 87 90 92 92 90 70 66 63 63 77 77 75 76 80 83 79
58 59 61 61 69 85 86 87 88 88 90 89 90 89 89 91 92 90 89 87 87 88 88 89 90 88 87 86 88 90 90 87 62 57 54 56 76 76 72 72 80 81 82
66 62 66 67 64 66 64 86 87 90 90 91 91 89 89 89 90 89 89 85 84 84 85 85 83 82 81 82 82 88 88 80 58 54 49 54 74 70 75 80 79 81 81
67 68 70 65 69 68 60 67 80 85 90 92 89 90 86 68 68 69 85 85 81 80 79 80 80 81 79 80 80 80 76 51 54 52 49 80 75 71 72 74 80 80 80
72 67 66 73 73 71 59 64 68 68 67 71 73 76 69 76 70 69 76 85 83 82 83 82 80 78 65 52 54 72 54 61 56 56 52 83 79 74 72 72 73 78 79
63 66 69 74 78 78 71 62 60 63 67 70 77 78 78 76 75 71 70 70 74 80 66 69 68 67 71 69 68 70 65 64 59 57 69 75 66 66 69 74 73 71 73
65 65 69 76 79 78 68 67 64 64 68 68 71 79 78 77 82 80 72 73 78 71 73 72 76 78 74 72 70 70 68 68 57 52 51 68 61 56 61 65 71 73 73
65 64 66 70 70 69 72 69 73 72 70 71 72 76 74 75 79 75 76 73 73 72 69 72 72 69 68 64 66 63 61 68 53 37 35 67 69 64 63 64 65 67 68
58 63 60 62 69 69 66 75 73 73 71 71 71 72 78 74 76 72 72 70 70 69 66 74 71 57 54 56 48 50 52 59 41 45 36 43 81 66 62 56 54 56 58
53 55 57 60 66 70 66 67 66 63 66 66 68 74 72 71 72 74 71 70 67 68 77 71 65 58 48 47 47 48 51 53 45 45 42 42 48 71 64 65 55 55 56
52 50 51 52 60 67 66 61 57 54 57 56 57 60 69 70 71 72 68 69 68 72 71 68 61 52 45 42 42 38 40 41 45 44 39 39 40 35 55 60 58 57 56
48 48 50 57 58 62 63 58 62 64 58 53 56 53 61 65 68 67 62 63 71 70 72 69 61 55 45 41 39 40 43 39 42 32 40 44 43 40 36 59 62 61 55
48 48 50 53 56 59 56 59 54 54 52 53 50 48 56 55 64 64 60 64 65 64 67 68 67 54 46 42 33 35 44 42 42 42 39 36 37 45 41 44 39 36 55
45 46 48 48 52 52 51 49 45 44 41 41 40 46 51 49 56 64 58 60 64 63 62 66 64 64 53 51 48 45 46 50 51 43 42 40 38 36 46 42 34 30 27
37 42 45 46 42 41 43 43 43 43 39 40 42 46 47 50 53 56 61 57 60 60 66 66 66 56 54 52 46 45 44 42 46 47 43 42 50 39 42 35 38 31 30
43 45 38 38 40 42 46 39 40 42 44 40 38 39 40 48 50 53 55 58 59 61 60 64 64 64 54 51 56 44 49 47 40 46 53 44 45 47 37 36 32 33 31
48 51 47 48 45 46 50 48 53 48 48 45 48 44 46 52 53 53 56 58 62 60 62 62 58 63 61 54 56 52 56 51 47 45 43 45 45 38 40 35 35 35 35
55 56 53 48 48 50 53 55 53 52 49 50 52 54 52 52 54 56 58 61 63 61 64 66 66 68 59 64 55 55 61 51 51 45 44 40 37 38 38 40 40 39 40
54 55 54 50 48 51 52 57 60 59 56 53 53 50 48 49 55 60 60 66 68 68 68 64 66 66 63 61 59 57 58 53 50 51 54 53 54 52 42 40 42 40 38

GFSSE_sfc_rhum_024.txt.gz
RH
44 56 91 88 87 87 87 86 84 84 86 86 84 85 83 83 82 82 81 80 80 75 74 73 72 67 66 69 72 76 78 80 83 81 77 74 71 74 79 79 80 44 82
46 50 92 88 87 88 87 85 85 85 84 83 84 82 82 84 84 83 84 82 79 73 70 71 72 69 68 68 74 76 76 79 82 82 78 75 74 72 78 80 80 64 80
41 46 52 89 90 91 90 89 87 83 80 80 82 84 85 85 83 80 76 74 72 68 68 67 68 70 72 75 78 79 81 83 85 83 74 34 34 73 75 78 81 79 78
40 43 50 90 88 88 90 91 90 86 84 84 81 81 81 81 80 75 74 78 74 70 68 68 70 79 82 83 84 82 81 82 83 80 45 35 34 73 72 76 77 77 78
39 42 57 88 87 87 87 88 88 89 90 89 88 84 84 83 80 79 81 80 77 76 73 72 79 84 86 82 81 76 75 76 74 65 38 40 38 60 71 71 73 80 80
34 37 73 87 85 85 82 80 83 88 90 91 90 85 82 79 77 73 71 73 80 80 80 76 84 87 84 83 82 80 78 76 83 37 39 47 49 84 73 74 81 82 80
32 36 43 88 84 83 77 80 83 85 87 90 89 88 86 86 85 84 77 83 82 77 76 76 81 85 82 79 83 85 86 84 48 42 43 46 50 77 78 76 80 81 82
31 38 41 78 85 84 83 84 86 87 87 89 88 87 86 87 86 87 87 85 84 85 80 81 83 85 88 88 88 89 88 85 54 45 44 43 74 77 70 73 81 82 81
31 34 37 41 62 83 85 86 87 88 88 88 87 87 87 89 89 88 86 85 86 86 86 88 86 86 85 84 86 87 86 80 48 39 39 37 78 72 74 74 77 82 82
39 36 40 43 42 47 49 85 88 88 89 89 87 88 88 88 88 88 87 84 84 84 84 83 81 81 80 80 80 83 79 76 45 42 36 45 75 70 72 78 79 79 80
40 46 46 41 49 49 43 56 78 85 88 89 82 86 83 47 50 56 84 82 79 79 78 78 78 78 76 78 76 75 75 36 42 38 37 79 76 70 70 75 77 79 77
44 44 44 52 53 53 39 47 50 47 44 48 49 55 44 56 53 52 69 82 81 81 81 80 78 72 68 35 37 66 35 42 39 39 37 80 73 69 70 71 71 75 79
38 39 44 55 58 56 44 39 36 38 42 46 57 56 54 55 54 53 51 51 53 72 46 51 49 38 45 44 39 44 40 44 34 34 53 64 60 60 62 68 71 70 71
33 38 45 53 57 56 39 35 37 39 41 44 47 61 58 51 54 56 49 49 53 45 53 48 43 53 53 50 47 48 47 41 34 33 43 59 61 56 58 63 67 69 71
32 35 44 52 54 45 51 43 47 50 44 48 50 52 57 51 53 52 51 49 46 44 44 47 45 46 47 45 42 41 38 41 43 29 28 63 68 62 57 56 58 62 65
34 38 44 49 47 44 43 50 47 49 44 47 45 47 63 60 55 49 46 42 40 40 40 44 46 44 39 38 37 36 32 34 32 32 23 38 74 60 56 52 53 54 55
31 36 45 47 43 46 44 43 41 37 46 40 38 50 54 58 52 53 43 41 36 39 52 52 50 47 43 35 34 32 32 38 32 33 29 28 42 65 65 52 51 52 54
36 37 40 39 40 42 41 40 36 34 38 36 36 38 47 51 53 51 42 41 40 42 43 44 44 42 41 36 33 28 29 30 34 34 30 29 27 24 60 55 54 52 51
33 36 40 42 42 39 40 38 42 45 39 32 36 34 39 45 48 50 43 42 45 43 43 44 43 46 42 36 30 29 30 29 30 26 30 33 34 29 26 59 57 54 47
31 36 38 38 41 42 39 41 36 35 33 33 30 29 36 35 41 45 41 44 44 44 42 42 48 43 43 39 28 26 30 31 30 30 30 27 32 35 32 32 34 35 46
33 36 38 37 41 37 35 35 31 31 28 27 25 31 38 37 39 44 40 41 43 46 49 49 46 52 49 43 44 38 34 35 40 34 31 30 30 32 34 33 31 24 29
35 36 35 34 33 30 26 30 33 35 30 32 33 36 35 39 40 39 44 43 44 44 49 52 55 52 48 45 47 42 41 34 34 37 34 32 38 30 29 36 32 32 28
38 36 31 33 35 38 36 30 31 30 31 29 32 31 34 39 39 40 42 44 47 47 46 49 51 54 53 48 48 49 44 43 36 31 42 37 38 37 33 32 33 30 31
42 40 36 36 34 36 41 36 42 36 36 37 38 35 36 37 38 38 41 45 49 46 49 48 43 52 53 53 48 43 50 48 46 49 43 40 38 38 42 34 30 32 33
42 43 41 35 37 38 41 44 42 43 38 38 40 42 40 36 35 34 40 48 51 48 49 55 58 58 53 54 52 52 60 52 51 60 49 47 40 36 35 36 35 35 35
41 42 40 37 35 40 43 47 51 50 46 42 40 38 33 33 32 35 38 50 53 55 56 56 59 61 60 61 60 60 63 67 65 64 59 52 54 46 34 36 39 39 38

GFSSE_sfc_rhum_027.txt.gz
RH
52 52 88 84 86 85 83 84 86 87 88 86 86 85 85 84 83 82 80 80 76 73 72 70 71 68 68 69 73 75 77 79 81 78 74 71 69 73 76 77 78 54 79
40 48 91 89 86 87 86 85 86 84 84 82 82 83 83 82 81 81 81 80 76 72 69 69 69 69 69 72 74 75 76 78 79 77 71 72 72 72 74 77 84 64 77
37 46 53 90 92 91 90 87 85 82 81 81 82 81 80 80 80 76 74 75 72 68 66 67 68 75 74 78 80 80 80 80 80 77 73 48 58 74 75 77 77 77 76
34 37 54 91 90 90 91 91 90 85 83 82 80 78 78 80 77 76 76 76 76 73 72 72 78 81 84 83 80 77 75 74 77 79 50 42 35 74 72 73 74 74 75
33 42 64 88 88 88 89 89 89 88 88 88 88 83 82 80 77 78 76 77 76 76 72 72 81 82 81 80 77 74 70 70 72 62 37 44 46 69 71 71 72 76 78
33 42 75 86 85 83 81 82 86 88 89 90 89 84 80 78 75 72 71 77 81 77 81 80 83 84 82 81 79 77 76 75 81 38 48 54 42 82 75 69 79 80 80
26 35 48 84 84 81 76 77 81 84 88 89 88 86 85 84 84 83 79 82 79 78 76 77 83 83 79 77 81 83 84 82 52 39 47 50 73 77 74 75 78 81 84
25 29 37 77 83 83 81 82 85 85 86 88 86 86 85 85 85 85 85 84 84 83 82 83 85 86 87 86 86 86 84 82 51 36 33 40 73 74 73 72 78 81 82
24 27 31 38 63 81 84 85 87 88 87 86 84 85 86 88 88 86 85 85 85 83 85 85 85 84 82 83 84 82 82 79 55 34 34 54 76 72 71 75 76 78 80
26 25 29 32 34 42 52 84 86 88 88 87 84 84 86 87 85 84 85 84 83 83 83 81 80 79 77 76 76 77 77 82 51 33 31 60 74 71 70 74 78 79 79
27 32 33 30 37 38 34 57 82 88 87 87 81 82 78 48 48 58 82 81 77 76 76 75 75 75 76 78 76 72 75 37 33 30 39 78 74 70 69 72 76 80 80
31 31 33 39 41 39 27 37 39 38 38 41 41 45 38 48 50 47 67 80 78 79 79 78 77 73 74 36 46 69 42 34 34 30 39 74 68 66 66 70 71 72 76
28 27 30 43 43 41 36 30 28 30 33 38 46 46 44 45 45 44 46 58 64 79 46 64 53 42 38 40 34 37 35 36 30 27 56 64 57 59 61 64 70 71 71
26 26 31 39 45 42 31 26 29 29 33 35 38 47 47 42 45 46 40 40 43 37 42 43 40 43 50 47 44 43 40 37 28 27 47 60 53 55 57 61 66 68 69
23 24 30 39 47 36 39 33 36 39 35 40 39 41 44 43 47 44 44 41 39 37 36 38 38 38 42 42 39 38 36 35 36 33 27 64 59 58 57 57 58 62 64
22 25 29 37 45 35 33 39 38 40 36 38 36 39 45 46 48 44 42 38 36 33 33 37 37 38 39 36 36 36 36 30 28 34 24 39 71 60 57 52 53 54 54
22 24 30 38 41 40 35 35 32 30 33 32 32 38 41 44 44 46 40 39 35 35 45 40 41 40 39 36 35 34 31 35 32 33 28 26 44 66 66 53 52 51 53
21 24 27 31 37 41 33 31 29 28 32 30 30 32 37 41 44 46 40 40 38 42 40 39 39 39 38 36 37 33 30 29 31 35 31 30 26 26 60 62 54 52 50
24 25 28 32 38 38 34 31 34 36 34 27 30 30 32 37 39 42 41 40 44 40 42 42 41 44 42 40 36 34 34 30 32 25 32 36 37 30 27 66 65 58 52
27 31 33 33 37 38 35 35 29 29 28 27 26 26 32 34 37 40 39 42 42 40 42 43 51 44 45 44 35 34 38 33 32 34 31 28 31 38 35 37 43 40 58
30 28 33 35 41 36 32 32 29 29 27 26 25 32 36 35 38 43 38 39 43 42 47 52 51 55 52 48 53 47 44 43 43 35 35 33 32 32 39 36 34 30 35
32 31 31 30 32 29 25 29 33 34 30 30 31 34 33 37 39 38 41 39 39 40 48 52 55 52 52 51 58 58 57 46 39 38 37 38 44 33 33 38 37 37 30
35 33 30 31 32 35 34 28 29 28 29 29 30 32 34 39 38 40 39 40 45 46 44 50 50 53 51 49 53 59 63 58 46 37 47 42 45 41 38 36 39 38 35
38 36 32 32 31 33 38 34 42 37 37 36 39 37 36 38 35 33 33 37 43 46 51 50 40 53 54 53 48 42 56 66 71 66 49 56 47 47 49 41 36 40 36
39 39 37 31 32 35 39 42 43 43 39 35 34 37 37 32 32 30 33 39 46 48 52 56 57 56 51 53 51 63 68 63 62 79 85 59 67 50 49 50 46 40 36
38 39 38 34 31 32 36 38 41 44 41 36 36 36 33 36 34 36 34 42 49 49 51 53 65 67 69 67 67 69 76 83 76 85 81 74 76 82 72 74 61 47 45

GFSSE_sfc_rhum_033.txt.gz
RH
92 93 91 89 88 88 89 90 91 90 90 89 89 89 88 87 87 86 86 85 82 78 73 74 79 75 73 73 76 80 82 82 82 80 78 74 74 74 77 83 78 70 86
87 89 91 90 90 89 89 89 90 90 88 88 88 88 88 87 86 85 84 83 80 73 72 76 78 77 78 79 81 83 83 83 82 81 81 76 78 74 78 85 82 79 83
84 84 86 93 92 92 90 88 88 88 87 86 88 88 87 84 83 82 81 84 82 75 75 78 80 80 81 81 80 78 78 79 78 79 81 76 77 74 70 84 85 84 83
75 86 89 94 93 93 93 92 90 88 88 88 88 88 86 83 81 79 80 85 83 75 73 77 80 79 82 81 80 79 79 79 80 80 67 70 72 70 69 77 80 81 81
81 85 87 92 92 92 93 93 93 92 92 92 90 87 85 82 79 79 85 86 80 78 78 80 80 80 81 84 84 84 84 85 84 77 71 77 81 72 69 76 78 81 81
90 93 90 90 90 91 91 92 92 92 93 92 91 88 84 83 81 86 85 83 79 77 79 81 82 82 84 84 86 88 88 87 87 85 72 81 78 74 72 78 82 82 83
88 89 87 89 88 86 84 85 91 93 93 93 92 90 86 84 85 86 86 85 82 79 78 80 82 83 86 88 87 87 87 86 83 79 73 89 86 75 73 76 80 83 82
73 82 79 86 88 87 86 87 89 89 90 91 90 89 85 87 88 87 87 86 86 86 86 86 86 85 85 85 86 86 86 86 77 80 76 87 82 75 75 78 82 83 82
63 76 84 86 83 87 88 87 88 87 88 87 87 88 88 89 90 90 88 85 85 85 85 83 82 82 81 81 81 83 84 84 91 79 63 84 80 73 72 75 79 81 83
55 64 77 84 85 91 92 89 88 86 85 84 84 86 86 88 89 88 87 87 84 84 82 80 80 80 80 82 84 84 85 83 73 73 79 91 79 68 70 72 73 75 80
47 57 67 70 78 84 89 84 87 86 85 84 84 85 87 88 89 88 88 85 82 81 79 78 77 78 79 80 80 82 83 85 70 63 85 81 74 66 67 70 73 74 78
51 57 58 65 74 77 54 86 88 82 88 87 84 86 85 88 87 75 83 83 81 81 81 81 81 81 82 83 77 81 88 76 70 59 83 81 72 61 61 64 70 74 76
45 55 64 61 59 60 63 86 89 86 91 91 84 76 79 72 78 83 94 90 95 88 92 87 89 90 83 81 72 79 74 68 69 63 72 79 70 58 58 61 64 70 75
49 53 62 63 58 59 63 65 70 73 77 81 72 68 75 82 80 79 91 91 95 95 95 94 94 86 83 70 68 70 68 65 64 64 78 74 68 57 54 57 62 66 72
49 54 61 61 64 56 57 68 64 69 74 69 76 72 72 75 78 77 73 74 72 70 70 71 68 66 67 64 66 68 65 60 58 59 72 73 68 62 53 52 56 64 69
42 50 60 61 64 56 65 59 65 66 70 66 77 71 70 77 75 74 74 72 70 71 71 70 67 66 67 68 66 62 61 59 54 53 59 71 72 67 63 55 55 59 64
39 50 56 64 58 52 57 58 61 71 53 63 69 65 66 66 70 72 75 77 76 77 72 72 70 75 77 70 71 69 66 63 61 54 51 65 71 75 72 71 64 61 62
38 46 55 51 73 73 62 59 54 59 62 58 62 67 64 62 62 70 74 74 76 75 74 77 79 77 77 79 78 72 69 64 60 56 49 57 63 62 73 74 74 70 65
45 44 67 62 76 89 85 78 63 56 53 56 65 68 64 62 66 69 68 72 74 77 79 79 79 84 84 82 73 69 73 74 70 52 55 54 59 63 61 72 77 74 71
60 58 70 62 76 83 84 75 74 64 61 62 63 61 54 60 60 68 70 71 74 73 76 80 80 78 82 84 62 63 76 80 78 77 68 52 56 56 59 59 73 71 76
61 54 50 49 71 72 67 60 62 60 57 58 60 54 51 59 62 64 68 68 69 72 73 73 79 82 75 82 78 70 77 79 77 79 77 74 69 63 54 59 64 66 65
67 56 55 50 53 55 58 58 60 65 58 58 64 61 62 62 62 57 68 69 69 76 77 79 78 81 82 82 87 80 81 71 72 71 75 74 78 82 70 58 62 64 57
62 54 50 52 52 58 59 63 64 65 66 63 61 65 60 60 59 60 64 70 72 76 81 81 80 87 94 88 88 95 96 94 83 73 71 77 87 92 89 87 78 59 55
63 57 53 49 51 54 56 61 64 72 69 66 65 64 62 62 63 59 61 67 74 79 82 88 84 94 94 97 92 72 88 88 89 84 82 69 81 84 89 93 94 93 90
59 59 56 53 52 54 57 60 66 65 65 64 63 64 67 66 62 60 60 71 86 89 91 94 94 91 81 83 83 82 78 84 94 99 90 81 77 82 86 95 92 95 92
64 62 57 53 52 56 59 62 64 66 66 68 68 74 74 71 68 71 78 89 90 92 94 96 94 87 93 89 86 92 93 92 84 89 92 88 90 86 82 91 96 94 93

GFSSE_sfc_rhum_036.txt.gz
RH
97 96 89 89 90 91 92 92 92 91 90 90 88 88 89 88 88 87 85 83 80 77 75 78 78 78 76 75 78 79 79 81 82 78 74 73 71 72 77 80 83 76 84
96 90 92 90 90 91 92 92 91 90 90 89 89 90 88 87 87 86 86 85 81 77 78 79 80 79 79 80 81 79 78 80 80 81 79 73 75 70 72 81 83 83 85
93 89 89 93 92 91 90 90 90 88 88 88 88 87 86 83 80 79 79 83 81 74 77 78 79 79 80 80 79 77 77 81 81 81 76 81 78 70 70 82 84 84 85
91 94 92 95 94 92 92 91 90 88 89 90 87 84 82 81 80 80 84 86 81 74 77 80 78 78 80 81 80 80 80 82 85 84 70 79 74 72 66 76 79 76 81
96 93 92 95 95 94 93 93 93 92 92 91 90 85 83 81 83 84 83 86 81 80 80 81 82 81 82 83 84 84 83 84 87 77 78 77 85 73 65 72 77 80 81
97 96 94 94 94 93 93 93 93 93 93 92 91 88 84 83 84 84 85 82 79 77 78 77 78 81 85 88 87 85 86 86 84 88 79 81 80 72 70 76 81 81 82
96 93 91 91 90 90 89 90 93 94 94 94 92 90 85 84 84 85 85 84 82 80 80 82 83 84 85 87 85 86 86 88 85 85 88 92 90 75 67 73 79 79 81
89 92 86 86 87 87 87 89 90 90 91 91 90 89 85 86 86 85 86 85 85 84 84 83 83 82 81 82 82 84 85 87 80 77 77 90 84 75 73 75 80 83 80
85 93 94 91 86 87 87 88 87 87 88 88 88 88 88 89 89 88 87 85 84 84 83 80 80 82 80 81 82 83 84 85 89 72 69 90 81 75 71 75 79 78 80
83 85 93 93 90 93 92 89 88 87 87 86 85 86 88 87 88 88 88 88 84 83 81 80 81 80 79 78 79 81 84 84 82 71 80 89 80 72 71 71 72 74 77
68 79 87 89 90 91 92 86 88 86 87 85 84 87 91 92 92 89 88 85 84 84 82 80 79 78 79 80 81 80 84 87 78 72 86 83 79 69 68 72 74 74 77
69 72 75 82 86 86 64 88 92 85 88 87 87 89 90 92 94 86 89 85 82 81 80 81 82 83 84 88 84 78 83 77 76 66 73 84 78 68 62 65 71 74 76
58 63 69 74 84 81 73 91 93 93 94 93 88 89 91 89 94 96 96 94 94 88 93 90 92 95 91 89 84 82 77 76 76 68 67 80 76 65 60 60 64 68 72
59 62 65 70 78 76 77 87 90 90 93 96 91 84 87 92 89 94 97 95 95 96 96 96 97 93 90 84 78 78 76 76 73 66 72 79 77 66 58 55 56 61 67
58 62 63 65 65 62 70 77 80 85 86 88 85 78 79 83 83 84 82 83 81 78 81 78 79 72 71 66 66 69 71 71 70 67 70 75 80 72 60 53 52 53 58
54 62 64 64 64 59 68 70 72 81 76 78 85 80 74 83 80 79 77 79 78 78 77 77 75 74 74 76 74 72 70 68 66 64 62 66 78 77 69 57 53 51 53
51 54 62 70 68 73 60 58 61 69 68 80 77 75 76 75 78 76 79 77 77 81 80 79 78 81 82 75 77 76 75 72 72 68 61 61 65 80 76 72 68 60 57
50 57 64 62 78 81 74 68 60 64 66 69 76 78 73 72 72 77 75 75 80 81 83 85 87 84 84 86 86 80 81 77 72 69 67 62 64 58 74 75 73 70 70
69 77 88 84 85 90 86 83 73 68 66 70 74 76 69 69 70 72 75 78 80 76 79 78 78 87 87 82 68 70 79 82 78 66 70 66 65 65 61 67 77 75 74
60 66 81 85 92 93 94 88 80 73 62 68 67 62 58 67 68 72 74 74 74 76 77 79 81 80 83 83 64 62 87 87 88 87 84 72 73 68 67 60 59 66 79
78 68 69 77 82 84 84 83 76 76 67 68 61 60 62 61 65 70 73 73 76 77 81 81 85 83 80 89 92 76 85 77 82 83 82 84 77 78 80 78 71 65 61
84 79 64 58 60 62 66 70 74 77 71 63 63 61 60 64 61 56 70 72 75 79 79 81 86 91 92 94 96 96 93 77 86 64 71 71 93 87 78 73 78 82 71
71 66 60 58 59 63 63 64 67 70 70 67 67 67 68 66 64 65 68 74 80 85 90 94 94 93 96 95 93 91 96 98 78 72 58 82 89 88 86 84 74 69 81
65 62 59 56 58 59 64 64 66 72 68 72 71 72 72 67 66 67 73 84 90 92 93 91 86 93 85 87 91 75 88 90 95 78 79 67 82 75 89 95 89 90 88
59 63 62 58 59 61 64 67 73 70 72 69 71 74 70 68 69 75 84 87 90 92 94 94 94 93 94 94 95 96 93 94 94 97 90 83 81 90 91 91 95 96 91
71 68 66 58 57 61 68 71 71 71 71 71 75 77 75 74 86 87 84 90 93 94 95 96 94 93 95 95 96 96 85 84 84 90 84 78 80 86 84 91 95 98 97

GFSSE_sfc_rhum_039.txt.gz
RH
97 97 90 92 93 93 92 92 91 91 91 90 89 89 89 89 88 87 86 84 82 78 76 79 79 78 77 78 78 78 77 77 80 75 73 72 69 69 77 85 84 78 81
97 94 92 92 93 92 92 92 91 92 90 87 88 89 89 87 85 84 85 85 82 78 78 78 79 79 78 78 78 78 77 80 83 81 75 71 75 68 71 82 84 84 82
96 94 90 93 92 92 91 91 91 90 86 84 83 84 83 81 79 79 82 83 80 77 77 78 78 78 79 80 80 80 80 81 82 81 74 79 77 68 66 79 84 82 80
94 96 96 94 93 93 93 92 90 88 87 86 84 83 82 81 82 83 83 86 81 78 76 77 79 79 80 81 82 82 82 82 84 80 77 80 78 70 66 74 78 77 77
99 98 96 95 94 94 94 93 92 92 92 91 89 84 82 84 84 83 83 84 82 76 75 77 77 78 81 83 84 83 82 82 82 80 84 81 88 72 63 71 77 78 80
99 98 97 96 95 94 93 93 93 94 94 93 91 86 84 84 82 82 82 80 77 76 74 75 78 81 84 85 84 83 84 85 83 88 89 80 84 72 67 74 81 82 82
98 97 96 95 95 93 90 91 94 94 95 94 93 90 84 82 82 83 82 80 79 78 78 79 80 81 83 84 82 84 84 85 83 78 83 93 92 79 67 74 78 80 80
94 94 92 90 92 93 93 94 94 94 93 92 91 90 85 84 84 83 84 83 82 82 80 79 80 79 80 80 80 82 84 85 77 71 76 93 86 76 64 73 78 81 80
92 94 94 92 88 88 89 90 90 90 90 89 89 89 88 88 88 87 86 84 83 81 78 76 78 79 78 78 78 81 83 84 80 74 70 92 83 76 71 69 74 78 81
93 93 94 93 92 93 93 90 89 88 88 86 86 86 88 87 87 87 86 86 82 80 78 77 79 78 77 78 80 84 85 81 82 75 75 90 81 73 72 73 72 74 76
80 91 94 94 93 93 91 87 88 87 87 87 86 88 91 93 93 91 88 86 84 82 81 80 79 79 80 83 84 82 82 84 79 74 75 79 78 72 69 71 74 75 76
78 80 90 92 92 90 71 91 92 88 91 90 89 90 92 93 94 89 92 88 83 81 81 82 84 85 88 93 89 82 83 78 77 71 69 74 75 71 67 65 67 70 74
64 71 79 84 88 88 79 95 96 95 94 93 90 91 94 91 96 97 97 96 96 88 96 93 94 96 93 94 92 88 82 81 82 74 67 72 75 69 62 62 63 65 68
70 66 72 82 85 87 85 87 88 93 96 96 94 93 96 97 96 97 98 96 96 97 95 96 97 94 86 84 84 81 81 84 83 78 74 75 79 67 58 56 57 59 66
64 67 72 78 84 80 85 90 93 94 94 92 93 91 88 91 89 92 93 90 86 82 82 80 80 77 77 76 76 75 74 73 74 77 78 74 78 75 63 57 55 56 57
56 64 68 73 79 75 81 85 89 88 89 89 91 88 82 86 86 85 83 80 80 85 86 85 84 84 85 83 79 78 77 80 77 74 73 73 73 77 72 62 56 56 54
58 60 70 76 69 75 73 73 77 82 79 83 89 85 80 84 82 82 81 82 85 85 83 83 82 81 78 76 78 79 80 78 79 76 75 72 71 72 77 73 67 67 62
64 68 71 64 82 92 92 77 66 71 73 74 82 82 78 76 77 82 80 81 83 80 82 80 82 79 82 83 83 79 79 78 79 78 79 77 74 67 68 71 72 70 72
83 89 96 96 96 95 92 90 82 66 77 77 81 79 74 76 77 80 81 81 80 79 82 81 82 84 84 80 75 72 77 88 85 77 83 82 83 79 75 72 74 75 74
83 88 92 93 95 95 93 91 84 69 69 69 72 70 72 69 67 68 71 71 70 72 82 82 82 79 82 88 72 71 85 86 90 93 85 76 85 89 85 84 84 79 76
85 87 88 84 86 85 87 84 83 83 86 80 56 57 57 57 59 64 65 72 77 76 79 79 85 85 86 95 95 82 88 83 88 77 78 88 92 78 76 73 72 73 78
88 86 78 75 69 76 67 75 78 78 71 70 65 67 65 64 63 62 70 71 70 72 80 90 94 94 96 96 96 97 95 76 83 57 74 75 92 90 74 69 74 68 76
79 67 62 64 64 66 69 70 73 74 74 70 71 72 70 66 66 68 74 81 88 91 95 94 94 91 96 95 93 92 91 95 87 74 62 81 89 84 84 82 73 78 86
72 69 64 64 64 63 64 67 66 70 70 76 76 76 74 69 72 77 83 88 92 93 93 94 88 94 94 96 95 82 93 96 98 96 80 78 80 78 90 93 90 91 95
69 69 69 66 65 68 69 72 74 75 75 74 74 75 73 74 79 82 85 89 91 94 94 95 96 96 96 96 97 97 96 97 96 96 92 80 73 81 91 90 95 97 94
74 68 63 59 64 71 72 72 72 71 70 72 76 77 77 80 91 89 85 89 91 92 93 95 95 94 96 97 97 97 85 81 80 85 86 94 93 86 88 91 93 95 96

GFSSE_sfc_rhum_042.txt.gz
RH
96 96 92 94 94 92 91 91 92 91 90 89 89 90 89 88 88 86 85 85 83 78 78 78 78 78 77 77 77 77 77 78 79 77 74 73 70 70 78 84 83 76 81
97 95 94 94 93 92 91 91 92 91 88 87 89 89 88 87 86 85 86 85 82 76 76 78 78 78 78 79 80 80 81 82 82 79 75 72 73 67 65 80 84 80 82
96 95 95 94 93 92 91 92 91 88 85 83 84 85 83 80 80 82 82 84 80 75 74 77 77 77 78 79 80 80 80 80 81 81 76 84 76 68 67 79 80 80 77
94 97 97 95 94 93 93 92 90 86 84 85 83 82 81 81 82 82 84 86 82 72 70 76 78 77 78 80 80 80 80 80 81 78 79 81 78 72 65 75 78 77 77
97 98 96 95 95 94 93 93 92 92 91 90 87 82 83 84 82 81 83 88 80 75 75 73 73 76 81 83 83 82 80 80 79 78 86 82 85 77 66 70 75 77 77
98 98 96 95 95 94 94 94 93 93 93 92 90 86 85 82 80 79 81 81 77 74 73 74 77 80 83 84 81 78 79 79 76 77 85 84 87 77 70 76 80 79 79
99 98 97 95 94 93 91 91 94 94 94 94 92 90 84 80 80 81 81 80 79 77 75 76 77 78 79 81 78 79 81 82 77 70 76 92 92 79 69 74 78 81 82
98 98 96 94 95 94 94 95 95 95 95 94 92 90 84 84 84 82 83 83 82 80 78 77 77 76 78 78 79 80 82 81 69 69 79 88 84 79 68 73 80 83 84
95 96 96 96 94 94 94 94 94 94 92 91 90 88 87 87 88 87 86 83 81 79 76 76 78 79 78 79 82 84 84 81 75 72 63 83 80 75 69 71 74 78 80
93 93 93 93 93 94 94 92 92 90 89 88 86 85 88 86 87 85 85 84 80 78 78 78 79 80 81 82 84 84 84 78 77 71 70 76 77 70 68 70 73 75 75
85 92 93 93 93 92 92 89 89 87 87 86 86 88 92 94 92 91 88 84 81 79 80 82 83 84 86 86 85 84 78 82 78 75 71 70 72 65 65 69 75 72 72
84 85 92 93 93 93 76 92 92 89 93 92 91 91 94 93 94 90 92 88 84 84 84 85 86 88 89 94 92 84 84 81 80 76 70 71 67 61 62 65 73 71 72
71 78 87 90 92 91 83 95 96 97 96 93 91 92 93 93 96 97 98 96 95 87 96 92 94 96 94 94 91 90 86 84 86 81 75 76 70 62 59 58 67 66 70
69 72 79 86 89 91 89 94 93 94 95 96 94 91 95 97 96 96 98 95 95 96 90 91 90 84 80 78 78 79 79 80 81 81 79 79 75 69 64 59 58 63 67
69 68 75 82 91 88 90 94 92 95 96 95 95 94 96 96 95 95 96 93 88 86 86 85 84 83 82 80 78 78 77 79 79 79 81 78 77 71 68 65 61 57 60
62 69 74 82 89 84 87 89 94 95 94 94 94 95 90 91 90 90 88 88 88 90 88 87 85 81 80 79 72 74 76 76 76 79 77 79 78 73 69 67 68 66 63
62 71 78 80 76 84 78 77 79 83 80 82 87 91 86 87 86 86 88 86 88 85 82 80 78 78 78 71 72 72 73 71 77 78 82 81 80 76 75 73 71 69 69
70 79 84 82 94 95 94 86 74 71 83 88 87 86 83 87 84 84 84 85 83 82 81 82 83 74 76 76 79 75 74 76 78 84 81 85 87 81 81 78 76 77 77
86 95 96 96 97 95 95 94 89 82 90 92 88 79 78 81 76 70 75 79 78 73 74 72 75 80 79 79 79 76 79 82 85 77 77 84 88 83 74 67 66 68 67
98 97 97 98 97 96 95 93 92 90 74 71 76 72 61 64 66 69 67 69 71 69 77 77 75 77 80 92 76 76 81 82 90 80 82 78 82 82 76 71 72 67 66
94 93 93 94 95 94 93 88 80 83 83 74 66 62 62 63 65 69 73 74 77 77 85 86 90 89 90 95 96 84 89 87 82 71 78 88 81 77 76 72 76 69 72
91 89 89 85 84 77 71 78 76 76 76 73 73 70 66 66 67 66 75 79 82 84 90 92 93 94 94 96 95 95 90 76 80 66 73 75 86 83 73 71 75 75 84
80 71 65 64 63 68 74 77 79 78 77 72 74 74 72 70 72 75 80 85 90 91 92 93 94 92 96 94 93 93 91 93 93 77 76 83 84 84 83 85 76 76 86
73 72 68 66 64 65 68 66 66 70 71 78 80 80 75 74 80 83 87 90 92 93 91 94 90 96 96 96 94 85 92 96 99 88 81 77 79 75 84 90 89 87 90
75 74 71 70 70 71 72 72 77 78 82 81 82 80 78 83 86 86 87 87 86 89 92 94 94 95 97 98 98 97 94 94 95 91 84 65 81 84 83 88 90 91 88
72 72 67 61 68 71 73 74 76 74 74 76 81 83 84 88 92 87 82 85 88 90 91 93 93 93 95 97 98 83 82 80 75 84 85 82 83 83 83 88 90 89 88

GFSSE_sfc_rhum_045.txt.gz
RH
77 68 93 92 91 91 92 92 92 91 90 90 89 89 88 87 87 86 86 85 83 77 76 77 77 77 76 76 78 79 80 80 80 76 74 72 70 68 73 81 76 51 79
73 73 94 92 92 91 91 92 91 90 89 88 89 89 88 88 88 87 87 84 80 76 77 77 76 76 76 78 79 79 79 79 80 79 76 72 71 66 70 79 82 64 79
74 72 77 94 92 91 91 91 89 88 86 84 84 86 84 82 82 82 83 84 78 72 76 76 74 74 75 77 78 78 78 79 80 78 74 52 53 70 68 78 80 78 77
75 76 76 96 93 92 92 90 88 85 85 86 83 81 80 80 81 81 81 86 78 72 74 71 70 73 78 80 80 77 75 76 74 76 51 55 53 72 66 72 76 73 75
76 76 79 96 95 94 93 92 90 90 90 89 86 82 83 82 81 83 86 86 78 73 69 70 73 77 80 80 76 73 72 73 70 57 51 56 56 67 69 71 68 72 80
81 77 89 96 95 94 94 94 93 92 92 91 89 86 83 80 77 79 82 82 74 71 70 71 74 76 78 80 78 76 77 75 64 45 51 62 59 77 69 75 77 80 82
82 77 78 95 95 94 92 92 93 93 93 92 91 90 82 78 78 80 81 80 77 72 71 71 72 73 75 79 76 77 81 76 45 45 49 55 62 77 69 72 80 83 82
79 76 75 92 94 94 94 94 94 94 94 93 92 89 83 83 83 81 82 80 78 77 75 74 74 74 76 77 78 81 84 79 45 40 38 44 74 75 69 70 80 82 77
77 76 76 72 82 95 95 94 94 94 93 91 89 88 87 87 87 86 84 79 78 76 75 75 76 79 78 79 80 83 82 78 42 38 36 35 75 70 65 69 73 76 74
78 74 76 76 72 76 76 95 94 92 90 88 87 86 87 86 86 84 83 81 77 78 78 78 81 83 84 84 84 85 79 74 46 41 36 35 69 60 59 64 71 74 74
70 71 72 67 72 74 71 74 86 88 88 87 82 88 84 64 64 64 79 81 80 81 82 82 85 87 88 82 83 84 76 46 48 44 40 69 69 60 58 63 74 75 74
62 62 66 72 72 71 59 70 71 67 64 65 65 70 64 71 67 66 77 85 83 83 83 84 85 84 73 50 47 62 46 52 46 47 42 76 72 66 62 64 69 73 75
54 58 66 71 73 70 65 67 63 63 65 66 71 70 71 69 69 66 67 63 68 74 57 58 56 54 58 53 51 55 52 50 47 45 51 77 73 68 65 64 66 68 70
50 54 63 70 73 75 66 65 66 62 65 64 66 74 72 68 72 72 66 68 67 58 60 57 54 61 59 56 53 52 52 47 43 42 47 77 74 70 67 65 64 64 68
49 53 60 69 73 72 73 70 70 71 67 69 68 69 69 70 73 69 71 62 58 57 55 57 55 51 52 50 47 47 45 44 42 38 42 74 77 73 71 69 67 67 67
43 51 61 68 73 70 69 70 70 74 72 78 82 83 85 78 79 67 64 61 59 56 54 52 52 48 47 47 44 46 44 40 41 45 40 44 75 78 78 77 77 76 74
43 54 64 69 66 69 64 61 62 60 68 78 89 85 82 78 77 71 64 60 56 55 59 54 51 49 43 40 43 40 39 40 41 50 46 49 52 73 71 70 69 70 71
47 58 64 72 80 78 78 69 74 72 85 89 90 86 80 80 74 67 58 67 58 54 50 56 48 59 45 42 45 41 40 41 44 52 50 52 50 45 52 64 66 65 64
61 70 79 81 84 88 89 94 96 89 83 84 81 67 69 68 62 57 68 55 55 52 51 48 46 51 45 45 42 39 45 37 44 42 49 55 53 48 44 52 62 59 66
83 83 86 87 93 95 97 95 92 81 64 61 62 51 54 50 54 52 50 54 50 50 52 52 57 52 52 54 39 40 43 37 52 47 47 43 48 52 48 49 44 41 64
82 83 91 97 97 96 90 74 62 63 57 50 44 49 50 49 51 56 51 53 54 54 60 60 54 57 48 55 49 40 41 58 60 46 44 46 49 46 49 47 44 44 44
81 82 90 86 87 76 60 53 50 50 49 48 49 54 52 55 55 53 58 56 59 53 60 62 62 54 50 57 55 48 39 40 47 48 45 47 56 44 42 46 50 56 51
75 73 64 62 64 60 57 55 54 53 54 50 50 47 53 57 58 60 62 61 62 57 54 60 62 65 56 57 67 58 51 45 55 42 50 50 55 50 50 48 49 49 56
57 57 51 52 51 55 56 52 52 45 44 54 54 52 50 61 62 60 61 62 62 58 59 58 56 65 66 59 58 58 67 74 75 64 44 45 45 48 56 55 54 54 52
58 59 59 56 55 56 58 57 54 59 59 57 57 61 61 62 63 61 62 62 60 56 59 63 62 62 60 64 60 65 67 59 60 71 58 45 43 45 47 52 55 59 53
61 62 59 54 55 59 59 61 61 62 58 51 53 53 54 56 58 63 59 62 62 61 61 60 65 68 65 65 62 63 62 62 60 67 78 66 66 50 48 51 57 52 54

GFSSE_sfc_rhum_048.txt.gz
RH
45 56 93 91 91 92 92 92 92 92 90 89 88 88 88 86 85 86 85 85 81 76 76 77 77 76 76 77 78 78 78 78 79 76 75 72 66 65 71 76 79 39 77
46 56 93 92 92 92 92 92 92 91 90 87 88 88 88 88 86 84 84 83 78 75 74 76 75 74 74 75 76 76 77 78 79 77 75 69 71 66 68 76 81 57 78
50 54 63 93 91 91 90 90 90 88 85 84 84 85 84 82 82 82 81 81 75 74 72 71 70 71 74 76 76 73 73 73 75 76 72 33 44 68 67 76 80 76 74
53 49 57 95 92 92 91 90 88 85 85 85 82 80 80 79 79 79 81 81 75 72 68 68 71 74 75 71 69 68 68 70 70 73 36 35 36 74 69 71 73 74 74
52 50 64 94 94 94 92 91 90 89 89 88 85 81 81 81 82 84 82 83 73 68 67 68 69 70 70 72 73 73 72 71 70 52 33 43 39 64 71 71 63 70 79
51 51 82 96 95 93 93 92 92 91 90 89 89 84 81 77 76 80 81 78 71 67 66 66 68 69 72 75 76 76 76 74 76 28 33 47 47 72 72 75 77 78 83
47 54 66 96 96 93 92 92 92 91 91 91 90 86 78 75 76 79 80 77 72 69 67 67 67 69 73 76 77 78 80 78 29 27 29 34 52 72 68 72 75 76 75
55 58 65 92 95 94 94 93 92 92 92 92 90 86 80 80 80 79 78 76 74 73 72 71 72 73 74 76 78 81 80 78 31 26 25 28 69 66 62 68 76 77 73
53 54 57 60 79 95 94 93 93 93 92 90 88 88 86 86 86 83 81 76 74 74 73 72 74 77 78 79 79 81 77 76 30 25 22 24 69 63 56 60 68 73 72
56 50 49 51 52 57 64 94 94 93 90 88 87 86 86 84 83 82 80 78 74 75 75 76 79 82 82 81 82 80 76 74 30 26 24 36 71 64 59 59 62 67 70
56 57 51 45 51 51 47 66 85 87 86 86 80 85 81 44 48 53 77 78 75 76 78 80 81 80 80 77 76 77 76 29 31 28 26 74 72 66 64 64 70 72 72
57 47 46 50 51 48 37 50 51 46 41 46 48 54 44 53 50 50 68 78 76 76 77 76 77 75 69 31 31 52 30 36 30 31 29 76 70 66 65 66 68 71 72
37 37 44 53 55 49 47 42 38 38 44 50 57 54 55 52 52 49 54 46 49 65 38 42 42 35 45 40 37 40 36 34 30 29 42 73 69 66 66 66 67 67 70
31 38 44 51 56 56 43 40 44 42 46 47 50 60 57 67 63 60 50 54 53 41 45 42 38 49 46 43 41 40 40 35 29 28 36 74 73 70 67 67 68 68 69
30 37 44 51 53 54 55 50 51 53 48 53 49 54 55 58 67 59 59 49 47 43 42 44 42 40 42 40 39 39 36 36 35 28 29 74 74 74 70 70 72 74 74
28 38 47 50 53 52 52 58 55 56 52 54 57 63 73 75 81 74 62 51 45 43 41 42 44 40 38 39 36 38 38 36 34 36 30 32 78 76 71 70 69 69 70
29 37 49 53 53 54 53 51 51 52 52 52 62 72 72 73 74 71 62 50 48 47 49 42 42 38 36 35 37 37 34 35 32 36 35 33 39 73 62 65 66 65 65
28 40 48 57 60 63 63 57 59 64 78 84 74 73 77 76 73 61 51 59 50 44 42 40 39 38 36 36 36 34 32 32 32 32 33 37 33 31 48 57 59 60 62
33 42 56 68 73 84 90 95 96 96 89 72 64 59 64 60 56 53 49 47 44 40 42 41 41 43 40 36 32 27 27 27 25 20 33 40 42 39 36 50 49 51 53
47 53 63 73 84 93 98 99 97 85 59 53 47 43 44 43 45 42 42 46 41 41 42 44 46 39 38 34 30 26 30 28 27 31 34 33 35 40 37 40 36 32 47
62 66 70 76 82 92 91 80 64 50 46 42 34 40 40 40 43 46 39 43 44 46 49 47 41 40 35 36 40 30 28 29 43 35 34 33 36 35 37 34 34 32 32
63 66 66 64 66 60 54 43 40 39 34 33 36 44 43 46 46 43 48 44 46 39 43 45 45 40 35 35 46 44 31 26 24 34 35 36 42 38 34 36 40 39 37
65 61 54 54 55 49 42 40 41 41 38 36 38 37 43 46 46 48 48 44 43 40 36 43 43 46 41 37 41 47 45 38 41 31 34 32 40 36 37 36 39 39 40
49 47 43 46 43 44 44 38 38 32 33 39 40 40 38 48 47 43 42 42 43 41 44 40 35 48 45 43 36 33 43 47 57 49 35 31 31 31 36 35 37 39 40
43 43 41 38 38 42 44 41 40 42 42 40 40 44 46 44 44 39 39 43 44 40 42 48 50 49 44 44 41 41 43 42 42 53 58 40 33 31 31 32 35 37 39
49 49 47 42 42 44 44 46 47 48 42 35 34 34 31 31 32 36 36 42 44 45 48 48 50 50 50 49 45 51 57 64 66 68 72 66 56 39 35 36 47 49 44

GFSSE_sfc_rhum_051.txt.gz
RH
47 55 91 90 91 92 92 92 92 92 90 89 88 88 87 85 85 85 84 83 79 74 75 76 75 74 74 73 74 75 75 76 77 75 71 67 66 66 69 79 74 45 77
49 52 94 92 92 91 91 91 91 91 88 85 85 87 88 87 85 82 82 80 75 71 74 72 70 70 71 72 72 72 71 71 75 75 71 70 75 68 69 79 81 62 77
52 53 59 92 92 91 90 90 89 87 83 83 83 83 83 82 82 81 78 76 75 72 68 68 69 71 68 65 65 65 66 68 70 74 78 63 50 71 69 77 80 76 74
52 51 56 94 92 92 91 90 88 84 83 83 81 80 79 78 79 81 77 78 73 68 67 67 67 64 65 69 70 70 69 70 74 76 41 32 47 73 68 71 75 73 72
52 55 71 94 94 92 91 90 89 88 88 87 84 80 80 82 82 81 79 78 70 65 64 63 62 66 70 73 74 73 72 74 77 62 27 33 47 63 71 73 64 71 78
63 65 87 95 95 92 91 90 89 89 90 89 88 82 78 76 78 80 77 75 67 65 63 62 64 68 73 76 76 75 78 78 77 24 28 51 53 70 70 72 75 76 78
67 62 69 96 94 92 90 89 91 91 91 92 87 82 75 75 77 78 77 73 70 68 66 65 68 70 76 77 78 78 79 78 31 23 24 37 50 65 65 72 76 76 72
63 63 69 92 93 92 93 93 92 91 92 91 87 83 78 78 79 76 75 73 73 71 70 70 72 74 76 77 78 80 78 78 28 22 20 35 70 63 57 61 72 76 73
56 58 62 67 82 94 93 92 92 92 92 89 88 87 86 86 85 81 79 74 72 72 71 72 74 77 78 78 77 78 77 77 38 23 21 29 72 64 60 60 62 66 69
58 54 55 58 59 64 70 93 92 91 89 87 86 85 85 82 82 81 81 77 73 72 73 74 77 77 75 74 73 73 75 77 30 25 27 44 70 64 62 64 64 65 69
54 42 40 39 46 50 54 72 87 87 86 84 79 82 80 43 50 56 78 77 73 73 74 76 76 76 74 76 72 66 76 27 29 26 28 76 67 64 64 66 68 68 69
46 41 40 48 48 42 32 50 46 45 41 45 46 51 42 47 50 50 64 77 74 72 75 74 74 72 75 32 35 57 29 34 30 29 35 75 64 63 63 66 68 68 69
37 33 40 47 48 42 46 38 36 36 43 46 52 49 52 47 51 48 45 54 62 74 39 48 44 36 42 41 36 38 37 35 29 28 46 75 64 61 62 63 66 69 70
32 39 42 47 51 47 38 32 34 34 41 42 45 55 54 53 59 57 45 45 58 42 44 39 37 46 45 42 40 40 39 36 32 32 38 72 66 60 60 62 66 70 73
28 34 41 44 49 50 46 46 46 47 54 60 60 62 76 83 85 79 71 51 52 47 40 42 41 40 41 40 39 40 39 39 37 33 33 74 72 66 64 65 67 69 69
28 38 42 44 46 48 51 56 64 58 58 54 61 66 67 70 68 61 56 51 46 44 44 44 46 44 42 44 40 39 39 38 36 37 31 35 76 70 67 65 65 66 66
28 38 44 44 47 49 53 52 52 51 54 58 62 67 70 70 72 69 59 55 51 48 52 48 45 48 41 35 37 35 34 36 32 35 32 32 36 73 66 61 58 59 59
28 38 43 42 52 60 65 65 66 70 72 86 78 71 72 72 67 59 56 56 55 48 46 48 42 39 40 37 36 32 31 28 29 30 26 24 30 30 56 54 49 49 50
27 37 48 60 76 76 77 80 93 96 93 91 74 62 66 61 57 54 48 46 43 39 42 43 42 42 39 35 29 28 32 26 30 22 27 29 36 36 36 49 51 55 46
31 38 53 75 85 81 86 95 84 94 88 68 53 49 48 42 41 39 42 47 42 40 43 44 47 38 36 33 25 30 34 28 27 29 33 28 31 35 35 36 35 35 50
42 49 70 77 72 74 69 61 55 55 51 44 36 38 38 38 40 45 37 42 44 39 43 44 41 41 35 33 33 32 32 35 33 30 30 31 33 33 36 33 32 32 32
53 60 74 66 66 56 43 44 44 42 35 30 35 41 40 43 43 38 48 41 41 40 39 40 44 41 36 34 38 35 40 33 26 30 35 33 38 30 31 31 34 35 34
68 61 58 50 49 42 37 36 36 34 36 34 37 37 42 42 41 43 42 42 41 37 35 41 41 43 41 37 38 37 41 40 36 30 35 30 40 32 30 30 30 31 33
49 44 37 38 38 36 35 33 37 30 36 39 38 37 36 43 40 37 37 37 40 39 42 41 35 46 44 42 36 30 38 39 46 49 40 35 34 31 40 36 33 33 36
41 40 39 37 34 37 36 35 36 36 38 38 40 41 39 40 37 36 34 36 41 39 41 45 47 46 42 42 41 43 45 45 47 56 57 51 42 37 34 35 37 37 36
42 42 40 36 35 38 39 41 41 43 40 36 35 36 32 29 27 30 29 36 39 40 42 42 58 57 52 54 49 56 53 60 60 68 77 60 54 40 33 33 36 35 39

GFSSE_sfc_rhum_054.txt.gz
RH
63 73 92 93 93 94 94 94 93 92 91 90 89 89 88 88 88 86 85 82 80 76 75 73 71 70 69 69 71 71 71 72 75 74 72 71 67 69 72 81 72 65 83
62 68 93 93 93 92 92 92 91 90 89 88 89 89 89 88 86 85 83 80 78 73 69 70 70 69 64 63 65 66 68 75 77 76 77 77 77 70 72 82 82 76 82
61 70 73 92 91 91 90 90 88 88 86 86 88 88 86 85 84 82 82 81 74 69 69 68 64 61 63 66 69 69 70 77 78 79 78 80 65 73 74 82 79 77 75
56 55 71 94 92 92 91 89 88 86 87 86 85 84 83 82 82 79 79 78 75 67 63 60 61 65 68 72 73 73 74 79 79 79 60 61 55 73 70 76 76 70 71
56 60 82 94 93 91 90 90 90 90 88 87 85 83 82 82 80 77 80 76 72 64 61 60 65 69 73 79 79 78 77 78 77 68 68 61 63 68 71 74 71 73 78
75 80 93 94 93 91 90 91 91 90 90 90 87 83 78 79 78 77 79 76 68 64 62 65 69 73 80 83 82 80 79 78 72 53 58 63 65 70 71 76 82 81 80
90 82 84 94 93 92 90 91 91 91 93 90 86 82 80 78 78 79 80 78 74 69 68 70 72 75 80 82 81 80 79 79 52 37 47 60 69 64 60 68 80 82 79
91 85 79 93 92 92 92 91 92 94 92 89 86 84 82 82 81 80 80 79 77 75 73 73 76 78 80 79 79 78 79 80 51 36 46 66 76 65 60 63 73 78 77
92 87 78 82 91 93 93 92 93 93 90 90 88 87 87 86 85 82 81 79 77 77 75 74 78 79 77 76 73 73 76 79 69 41 37 62 76 66 63 65 69 73 75
90 76 73 79 81 84 85 94 93 91 88 86 85 84 84 82 84 83 82 80 78 76 75 74 79 79 77 76 73 70 76 80 62 44 55 78 73 62 63 66 68 70 76
80 73 70 69 75 78 81 87 88 88 86 84 82 82 85 64 70 74 77 80 78 77 76 75 76 76 78 78 76 74 78 52 47 47 64 77 67 59 61 65 68 70 73
72 58 55 62 66 68 50 78 74 69 68 69 64 73 70 71 69 58 72 80 79 79 79 79 78 76 79 61 72 76 58 54 50 48 73 75 63 55 54 58 63 68 72
69 53 60 66 63 57 59 61 57 61 68 69 69 68 68 68 74 81 88 92 88 84 72 77 73 67 62 63 60 62 58 54 56 49 69 70 60 51 52 56 62 68 71
43 48 55 60 66 65 57 59 58 57 67 71 72 72 89 92 91 92 86 79 74 72 66 64 66 59 60 55 55 57 56 58 54 52 59 71 68 55 54 56 60 64 66
44 49 54 60 66 64 67 70 75 80 83 87 87 82 88 91 88 88 90 79 74 68 67 65 65 62 62 58 59 56 54 54 54 53 60 73 71 62 58 59 61 62 63
38 49 52 58 66 65 72 77 72 72 71 72 79 82 84 90 88 85 86 88 84 77 69 68 69 65 63 61 57 57 54 54 51 52 50 60 75 70 65 62 60 58 57
42 49 54 58 62 67 65 67 66 69 73 76 81 85 86 85 84 79 79 76 72 73 68 66 64 65 63 52 51 46 46 46 42 44 44 45 59 77 67 58 51 49 49
42 49 49 47 67 72 74 69 73 80 84 90 83 84 82 81 75 76 78 77 72 64 66 68 68 60 61 57 54 49 50 46 41 41 44 44 48 54 66 56 47 46 47
45 50 66 76 85 84 92 93 95 96 95 91 82 78 77 70 68 69 71 71 69 65 69 66 68 68 62 56 43 43 54 49 48 33 41 46 51 52 49 60 60 57 48
47 54 79 85 88 86 92 92 91 87 88 82 71 64 64 58 57 64 66 64 63 63 67 69 68 63 63 60 36 39 54 56 45 46 41 42 46 48 44 47 55 51 57
54 71 86 86 82 86 86 83 71 70 68 64 56 56 54 54 53 63 64 62 64 64 64 60 62 63 64 61 59 51 54 45 47 44 49 46 42 42 45 46 48 48 47
64 84 83 76 78 74 68 65 64 64 59 54 56 57 58 57 56 54 64 62 64 63 61 65 66 69 64 64 62 61 61 51 50 41 53 46 53 47 37 34 45 45 47
79 82 68 70 69 68 57 54 56 58 58 54 58 60 58 55 53 54 57 62 62 60 64 66 64 65 70 65 64 65 62 64 56 55 51 58 58 56 54 44 41 42 45
68 75 65 65 60 53 50 51 56 50 53 58 59 57 57 58 53 51 51 54 58 63 64 67 53 68 68 70 66 51 65 68 73 74 64 61 60 51 58 59 53 47 50
65 64 57 49 46 49 48 52 57 53 61 58 57 56 53 54 54 49 48 55 57 64 65 66 67 71 72 71 70 71 71 74 72 83 85 78 63 60 53 56 59 53 44
60 61 58 47 44 49 50 54 54 62 59 60 59 57 54 51 48 46 44 56 60 63 64 65 66 71 77 77 74 76 82 84 83 88 89 80 76 64 57 54 54 54 53

GFSSE_sfc_rhum_057.txt.gz
RH
89 92 93 93 95 95 94 94 94 92 91 90 90 90 90 88 87 85 84 83 80 72 70 70 68 64 63 63 65 67 69 73 79 78 77 73 70 70 72 82 79 73 80
89 90 94 94 94 94 93 93 92 91 90 90 90 90 89 88 87 85 83 80 75 69 68 64 60 60 60 62 67 69 72 79 81 80 79 76 78 74 72 80 82 76 78
88 89 88 94 93 92 91 90 90 89 89 89 89 88 87 86 84 80 80 78 73 66 60 60 63 64 66 69 72 71 74 79 79 76 78 73 68 74 72 79 76 76 73
82 85 87 93 92 92 91 90 89 87 88 88 87 87 87 82 79 76 76 76 71 60 60 63 65 67 69 72 73 74 76 75 79 78 71 69 63 71 70 71 70 67 67
77 83 89 94 93 92 92 91 90 89 89 88 88 86 84 80 76 74 78 75 69 61 64 65 67 70 73 79 80 78 77 78 78 73 82 76 74 69 73 76 76 74 77
86 88 93 93 93 92 92 91 90 91 91 89 87 85 80 77 75 75 79 76 66 64 66 68 69 72 80 80 79 78 78 78 68 71 66 71 67 65 66 75 83 82 82
90 90 87 91 93 92 90 90 92 92 90 87 85 85 82 77 75 76 81 78 73 70 69 71 73 75 79 77 75 75 77 77 53 62 74 82 73 64 62 66 74 80 80
92 89 79 92 92 91 91 93 94 92 90 88 87 86 84 82 82 82 82 80 78 76 75 75 78 77 76 74 74 75 75 73 56 58 74 86 75 65 63 67 76 78 78
93 94 94 90 91 92 93 94 94 92 90 89 89 87 85 85 84 83 83 81 80 79 78 78 76 76 75 74 75 79 81 77 62 54 56 85 76 66 65 67 69 72 77
93 95 91 92 89 92 91 94 92 90 89 87 85 85 86 84 82 82 81 80 79 78 77 77 78 77 76 77 78 82 84 73 57 66 79 84 71 61 62 65 67 70 72
89 94 89 88 88 92 93 88 89 87 86 84 83 84 86 82 80 79 80 80 79 79 77 76 76 77 77 76 83 85 82 61 53 69 82 75 67 54 56 60 64 69 73
93 93 95 85 86 81 72 87 89 81 84 80 79 81 77 80 81 71 80 80 80 80 79 77 79 80 77 69 68 72 65 57 58 67 79 72 63 50 54 60 65 69 68
84 82 85 78 79 66 76 85 86 83 82 79 75 76 82 84 86 92 94 94 89 84 81 75 71 69 60 67 66 65 60 61 66 61 70 73 60 52 52 58 62 65 67
85 70 65 68 59 66 73 76 75 72 82 90 92 86 93 95 94 94 94 93 88 74 76 75 78 68 67 61 60 60 61 61 61 62 66 68 67 54 55 59 61 62 63
72 63 65 66 65 67 79 87 85 91 93 94 94 93 94 95 93 94 93 83 84 83 78 75 74 63 65 62 58 57 57 57 58 58 64 74 74 63 60 61 59 57 56
59 65 68 71 70 80 78 78 78 81 85 88 95 95 94 96 95 94 94 92 90 82 70 71 68 72 69 64 57 54 51 52 44 45 48 59 77 72 63 56 52 49 51
56 59 67 72 81 72 75 76 78 80 85 93 91 92 89 87 86 84 87 80 75 70 70 72 69 67 65 55 55 51 53 49 47 46 46 51 86 77 67 52 46 45 49
53 57 59 61 71 76 76 88 88 92 95 95 95 92 85 81 80 82 76 76 74 74 76 75 73 68 65 63 59 54 58 52 49 50 44 47 61 71 71 62 50 47 46
52 58 83 84 91 91 95 97 98 97 97 95 92 86 78 74 73 78 78 72 75 77 75 68 72 70 69 65 49 52 59 58 58 44 45 46 55 69 68 66 63 59 47
62 78 85 92 94 96 96 98 98 98 96 93 84 72 71 71 69 75 74 69 70 71 73 74 68 67 68 69 46 50 56 58 58 59 56 43 44 41 53 47 53 53 57
86 91 92 90 93 93 97 98 98 96 95 84 76 70 67 63 65 72 74 72 71 67 68 66 68 66 70 74 67 62 62 60 48 56 60 60 54 42 40 42 44 48 50
93 95 92 86 92 91 87 92 83 84 78 72 70 69 66 64 65 65 67 67 65 64 69 68 70 73 72 70 68 78 74 60 63 53 64 60 66 56 46 39 46 49 54
97 95 88 88 88 84 86 84 80 75 74 72 72 71 66 64 61 61 62 65 64 66 68 68 68 69 73 73 69 70 80 82 78 67 61 71 70 69 66 56 46 48 48
96 93 84 84 84 84 83 72 72 66 63 69 75 73 66 62 58 56 54 56 60 65 64 71 62 72 76 78 76 60 72 80 88 88 78 70 72 62 69 65 64 53 49
89 93 85 84 81 75 57 64 64 70 70 68 64 65 66 60 58 55 54 56 62 70 73 75 77 71 76 77 79 81 80 83 84 93 89 88 78 70 66 67 64 62 56
88 90 90 75 56 59 63 67 69 72 69 66 62 57 60 54 58 60 56 64 65 64 66 70 74 76 81 84 84 86 87 87 88 92 95 92 88 78 69 62 61 64 60

GFSSE_sfc_rhum_060.txt.gz
RH
94 94 95 94 95 95 94 94 93 92 90 90 89 88 87 87 87 86 82 79 76 69 65 61 60 59 59 64 69 71 74 78 84 80 76 72 69 69 75 78 82 75 79
90 89 95 94 94 94 94 92 92 91 90 88 89 88 88 88 86 82 80 78 71 62 60 61 62 62 63 67 69 70 72 78 83 82 80 78 76 70 69 78 79 75 76
86 91 90 94 94 93 91 91 90 89 87 86 88 88 87 82 78 76 76 74 67 61 62 63 63 62 64 66 70 72 76 75 77 81 80 81 74 70 71 76 74 70 68
86 87 88 94 92 91 91 89 88 86 87 87 88 85 82 77 75 73 72 72 68 63 63 62 62 62 65 69 75 76 81 81 80 81 79 78 67 72 72 72 71 70 70
88 89 90 93 92 91 91 90 90 89 89 88 88 83 77 75 73 71 73 72 69 64 62 61 62 64 70 77 77 78 80 84 84 77 87 83 80 67 70 74 74 74 74
93 92 95 94 94 92 90 91 91 91 91 89 86 82 76 73 71 72 76 73 68 65 64 64 64 69 78 78 77 76 77 76 74 79 78 76 71 63 65 69 76 76 80
94 92 91 94 92 90 91 91 91 90 89 88 86 83 80 73 72 75 80 78 75 68 68 68 68 75 76 76 78 78 76 72 65 78 85 85 76 65 65 70 73 74 74
90 89 82 85 84 85 92 93 92 90 90 89 87 85 81 80 80 80 81 80 79 78 76 74 75 75 75 77 79 80 83 70 60 75 85 89 76 66 66 69 73 79 76
90 93 95 89 80 93 94 93 92 90 90 90 88 85 84 85 84 82 82 81 80 79 77 74 73 76 75 78 82 84 81 73 63 68 69 89 74 65 63 65 67 71 74
94 93 94 84 94 94 93 92 91 90 89 87 85 85 85 84 83 82 82 80 79 77 76 71 73 75 75 77 84 86 78 70 71 78 84 85 70 58 58 61 66 70 73
96 91 88 95 95 96 94 87 88 86 86 85 84 86 87 83 81 80 81 79 78 77 76 73 76 76 79 79 85 80 72 64 73 75 84 75 65 52 58 62 67 69 68
94 93 95 94 94 89 76 90 90 81 86 83 82 82 78 84 84 78 80 79 79 78 80 81 80 78 73 69 70 71 65 63 66 70 77 70 60 50 57 62 66 68 68
86 92 96 89 88 86 84 91 90 88 84 82 80 81 82 86 88 92 95 95 92 84 82 68 64 65 64 66 67 68 66 64 70 68 70 69 60 51 55 61 64 66 66
85 87 94 92 85 82 84 81 83 82 90 92 94 91 96 98 96 96 96 93 86 78 74 74 74 67 66 60 58 58 58 62 61 60 60 71 67 54 54 61 61 61 60
90 82 80 80 73 83 88 87 94 97 98 98 97 94 96 97 98 95 93 83 84 80 75 73 70 65 62 57 56 52 53 50 46 50 59 66 73 60 58 58 55 54 53
79 70 68 68 77 84 91 89 93 95 96 98 98 96 92 96 94 94 92 90 87 78 74 71 69 67 65 59 53 53 54 51 49 52 52 63 78 72 61 53 49 50 49
64 64 68 80 83 78 81 82 88 87 94 95 97 94 89 86 86 84 86 79 76 76 74 71 68 65 64 56 54 53 55 53 51 49 47 53 80 77 67 50 45 49 46
61 60 68 70 78 78 84 90 86 92 96 97 96 91 86 84 78 76 78 80 84 81 77 74 70 66 68 66 60 59 57 56 53 52 51 47 70 81 72 61 49 47 45
58 62 83 84 88 92 95 96 96 94 96 96 92 86 80 79 76 78 78 82 80 78 77 70 74 69 69 67 53 56 57 60 58 49 53 50 49 56 65 58 62 59 47
59 74 83 88 94 96 96 97 98 97 96 92 86 79 75 78 76 80 79 77 73 72 76 71 66 70 72 69 47 49 63 62 60 64 63 52 53 53 51 49 51 58 59
80 86 88 92 94 92 94 98 99 97 96 90 82 74 72 72 73 75 76 71 69 68 72 67 70 67 71 75 68 72 70 63 61 64 67 68 61 56 53 49 50 56 54
91 90 93 88 91 88 85 96 92 92 92 82 80 76 70 72 74 70 72 69 66 70 69 68 70 76 75 75 70 80 76 72 69 58 67 66 70 65 58 50 54 54 58
96 95 90 89 89 87 83 89 87 81 81 80 80 78 73 70 68 67 65 67 67 70 69 70 72 71 74 77 75 72 82 84 86 74 67 74 74 72 70 63 58 50 50
94 96 88 86 87 86 92 91 82 80 76 78 80 77 74 66 64 61 63 66 68 72 70 76 71 76 81 80 79 67 77 79 90 94 81 72 75 68 74 72 65 56 55
96 95 94 94 92 89 91 86 77 77 76 80 81 76 76 72 66 61 62 66 72 77 74 73 76 74 81 80 83 86 86 90 90 95 94 90 83 74 73 72 68 66 60
95 97 97 96 92 89 85 79 76 76 82 80 79 76 65 61 64 62 63 69 70 71 72 76 78 79 84 90 89 91 90 91 93 95 95 91 94 85 75 71 64 65 65

GFSSE_sfc_rhum_063.txt.gz
RH
96 94 95 94 93 92 93 93 93 91 90 89 88 88 88 85 82 80 79 77 70 61 60 60 61 62 63 64 68 74 80 84 82 78 76 70 68 70 70 76 78 75 77
91 92 95 94 92 90 92 92 91 90 88 84 86 88 86 83 81 77 76 72 67 60 61 62 61 59 60 68 73 72 79 83 82 83 81 74 71 68 69 73 76 69 71
89 88 94 94 90 89 89 90 89 87 83 83 83 83 80 77 75 72 72 71 67 62 61 59 58 58 64 73 80 80 76 84 84 83 80 85 75 70 70 72 73 69 68
84 87 92 93 90 89 89 89 88 85 84 84 81 78 77 75 72 67 69 74 70 61 58 57 57 62 67 76 84 83 80 84 85 85 86 84 70 69 69 69 69 69 70
86 86 92 93 90 90 89 90 89 89 89 88 84 77 75 72 69 68 73 75 70 60 57 57 60 65 73 80 84 85 87 87 87 84 92 85 78 61 65 70 71 72 71
91 89 96 96 92 90 91 90 90 90 91 88 84 80 74 70 68 69 77 75 69 62 60 60 64 70 78 78 80 80 82 81 78 86 83 79 72 63 66 71 74 75 78
96 93 92 96 92 90 90 91 92 93 91 88 84 81 77 72 70 76 80 78 76 68 66 66 70 78 78 80 81 78 78 80 80 86 88 88 80 66 67 71 75 76 77
95 93 86 86 86 86 90 92 92 92 92 90 86 83 79 79 80 81 82 81 79 77 76 75 78 79 81 80 78 82 75 72 74 87 90 90 77 66 65 68 73 75 76
94 94 96 94 93 90 94 92 92 92 92 91 89 86 85 85 84 83 83 81 79 78 77 77 78 79 81 83 79 79 76 74 75 82 75 88 74 63 60 64 69 72 73
93 95 96 95 93 95 90 92 92 91 91 90 87 86 86 85 84 83 82 81 79 79 79 78 80 81 81 85 79 77 79 77 80 83 86 85 68 57 60 64 68 68 69
96 98 96 94 97 98 94 88 89 88 88 86 85 86 88 87 86 81 83 80 80 80 81 82 80 80 76 78 80 75 72 74 73 77 83 72 64 54 61 66 67 68 68
99 95 94 91 97 95 79 92 90 83 87 86 86 84 87 88 88 82 82 81 81 82 83 79 74 72 68 62 61 66 68 67 69 72 79 70 61 50 59 65 67 67 66
96 94 94 91 96 92 90 94 92 89 89 87 84 84 84 87 93 95 98 97 94 77 67 66 62 62 58 58 56 58 55 55 65 62 64 72 61 49 56 63 66 65 64
95 87 88 92 93 92 91 90 88 84 86 89 88 86 98 98 97 97 95 93 86 79 74 72 70 63 59 51 54 53 50 51 55 57 60 73 68 54 54 60 61 59 58
89 86 95 96 91 93 93 90 89 94 96 97 97 94 96 97 97 95 92 84 80 78 71 67 62 59 58 52 56 53 51 52 52 56 64 62 74 59 51 54 53 53 53
79 89 85 91 83 90 92 95 97 98 99 98 98 97 96 97 95 94 92 90 89 76 72 68 65 63 63 58 56 55 54 56 53 54 59 70 70 72 58 51 48 49 49
79 77 76 79 87 89 90 94 97 97 97 98 98 94 92 89 87 85 86 81 79 76 73 69 67 67 64 55 56 53 56 57 55 54 52 64 91 81 69 52 45 47 44
72 70 72 71 87 89 90 92 96 97 98 98 97 93 88 85 80 80 82 87 85 78 75 73 68 68 69 65 60 57 58 58 56 56 54 52 71 75 66 59 50 45 41
68 70 83 88 92 95 95 96 97 96 97 97 93 90 84 79 77 82 87 84 79 78 76 68 74 70 67 64 57 56 65 63 63 52 56 55 56 56 56 54 58 58 45
71 76 92 91 96 96 97 98 98 97 97 92 89 84 79 81 79 80 79 80 71 76 75 70 67 74 72 68 49 53 70 66 66 68 63 55 57 57 56 54 57 60 55
75 89 94 94 96 92 95 97 98 96 96 88 83 78 79 80 78 79 77 73 71 70 70 66 72 68 75 77 70 75 73 71 66 69 71 69 62 59 58 58 62 61 58
89 89 96 90 96 90 85 98 96 95 94 85 84 80 76 77 74 72 72 70 69 74 71 70 72 79 78 80 75 82 79 74 70 67 71 70 71 69 60 56 60 56 58
93 95 95 93 92 89 90 89 92 88 85 85 86 84 79 77 73 71 71 74 72 73 74 74 76 74 76 80 78 74 84 86 88 80 73 78 75 75 71 67 60 52 54
86 94 94 94 92 93 93 95 91 87 83 86 86 82 79 75 71 69 69 71 73 77 75 78 76 80 83 82 85 73 81 81 89 94 86 79 82 74 77 76 70 58 58
94 97 95 94 93 91 92 94 88 86 83 86 85 80 82 76 71 65 67 73 79 78 74 74 78 79 87 85 87 88 89 93 92 95 97 92 87 80 78 81 77 69 61
97 97 96 95 94 93 95 94 88 84 83 87 88 88 79 76 74 68 62 70 72 68 69 74 76 74 83 90 93 93 92 92 93 96 99 96 96 92 87 78 71 67 68

GFSSE_sfc_rhum_069.txt.gz
RH
78 67 91 91 90 90 89 90 90 89 89 88 86 86 84 82 80 76 73 72 69 63 63 66 70 75 74 74 75 79 84 82 79 76 70 66 66 67 69 70 62 43 66
78 65 91 91 89 88 88 89 89 89 88 87 87 86 84 82 77 74 72 71 68 62 62 63 66 72 75 75 79 84 84 86 84 81 75 69 66 65 67 70 73 56 67
79 66 71 90 89 88 87 88 88 88 86 83 82 84 81 77 75 74 73 70 67 63 65 71 74 71 76 78 84 85 84 86 86 82 71 38 45 64 65 69 71 66 65
76 66 68 91 88 88 88 88 87 85 84 83 82 80 77 76 75 74 72 69 69 67 68 74 77 77 76 85 87 86 84 83 83 73 43 38 42 67 69 70 71 70 65
76 69 71 90 89 89 88 87 86 86 86 83 82 77 75 75 74 73 71 71 70 66 70 73 76 78 84 89 87 87 84 81 80 53 42 44 42 60 69 69 66 72 74
84 70 86 91 91 89 88 88 88 88 85 83 81 77 74 74 73 75 73 70 69 67 68 75 77 82 89 89 88 85 83 81 66 42 45 54 48 65 67 71 72 73 75
87 74 78 91 90 90 90 90 90 88 86 84 80 77 76 77 77 79 76 74 73 72 69 71 77 82 85 85 84 85 85 81 46 45 45 46 53 66 67 68 70 69 69
94 85 79 87 87 91 90 91 91 89 87 85 82 80 81 83 82 82 80 79 80 80 79 77 80 82 80 81 82 84 84 74 48 46 45 43 67 64 66 68 68 66 64
93 90 95 83 81 87 93 93 92 91 90 87 87 87 87 87 85 82 81 80 80 82 81 81 82 84 82 82 83 84 85 81 47 47 47 44 69 62 64 65 65 64 63
93 95 96 96 95 92 88 94 94 92 89 88 87 87 86 85 84 84 83 82 82 81 83 81 82 83 83 84 82 81 78 71 47 47 45 47 70 61 64 65 64 62 63
97 98 97 96 96 91 85 87 90 90 88 87 83 88 83 65 64 62 82 86 84 83 80 75 73 75 76 75 70 67 60 43 46 44 40 77 63 62 66 65 63 63 62
98 98 96 96 92 92 86 89 84 76 69 75 67 72 68 70 66 63 78 87 81 77 73 69 65 64 51 36 34 47 33 37 34 34 36 76 61 53 64 65 63 62 61
96 97 92 88 90 92 90 82 80 70 71 73 75 66 70 69 74 76 80 71 60 60 44 45 42 37 43 38 37 39 37 35 32 29 41 68 63 55 60 65 61 60 59
94 92 93 92 94 94 86 79 78 76 71 68 69 76 85 81 85 82 73 75 61 48 52 46 45 49 46 43 42 42 41 33 32 30 35 69 72 63 58 62 58 57 56
91 87 92 94 93 90 82 81 78 74 70 70 73 77 82 84 88 82 76 61 57 47 45 45 42 39 42 41 40 38 38 39 40 36 40 83 77 65 50 56 55 54 54
82 77 79 89 80 87 79 78 73 72 70 67 75 77 82 84 84 76 71 62 52 44 41 40 39 36 37 37 40 41 40 36 37 45 46 55 74 69 62 53 50 49 49
72 57 66 68 83 84 78 72 71 73 81 85 82 84 84 83 78 69 59 52 47 49 53 47 46 42 36 34 41 40 37 40 36 37 38 48 47 68 66 58 51 46 43
68 62 59 65 77 80 74 67 70 78 90 90 91 86 80 76 68 64 55 54 52 49 49 44 41 41 41 36 41 37 37 37 38 37 35 34 35 32 48 62 60 57 49
64 67 74 78 85 83 81 84 88 88 91 90 91 80 79 70 68 58 58 58 56 50 50 45 48 43 41 37 35 41 41 37 39 31 37 38 40 36 32 44 55 60 60
64 66 72 80 84 83 87 89 89 91 89 87 85 78 68 65 68 66 57 60 52 52 51 48 50 48 44 44 33 39 45 41 42 41 39 34 38 41 37 39 36 35 55
67 68 73 81 84 81 83 89 88 91 88 88 77 67 69 64 72 64 57 59 57 51 50 54 50 52 49 51 45 44 45 48 49 43 42 40 40 40 43 40 37 34 32
64 69 77 75 81 76 68 72 72 76 78 77 66 65 68 73 64 61 61 56 56 52 57 56 54 51 51 53 49 49 43 40 44 44 44 45 50 41 40 43 46 43 39
72 76 74 74 76 74 74 76 79 81 77 73 69 70 66 65 60 60 59 57 57 51 51 57 57 56 50 55 59 48 41 36 43 44 52 47 52 47 47 45 48 45 46
70 73 70 75 77 78 78 78 78 77 79 73 70 71 66 65 62 57 57 58 57 54 57 57 56 58 56 50 54 52 59 54 40 39 45 48 50 51 53 48 46 49 53
72 80 79 79 78 78 80 79 83 84 84 78 75 70 68 65 61 56 57 59 60 59 66 64 64 62 54 47 45 46 54 51 59 58 48 46 47 47 46 47 47 48 52
80 83 84 81 80 82 82 82 81 85 85 75 68 68 65 61 58 59 54 61 64 61 67 66 61 61 54 53 50 54 51 50 47 59 61 49 50 50 49 48 47 47 47

GFSSE_sfc_rhum_072.txt.gz
RH
56 51 90 90 90 90 91 90 90 89 89 88 87 85 83 80 78 76 75 74 72 70 68 75 76 73 72 74 78 80 81 81 79 75 69 64 64 65 67 74 59 40 66
54 49 91 90 91 91 91 90 90 89 88 87 86 85 81 78 76 74 73 72 70 66 70 75 75 74 73 77 81 82 81 84 81 77 72 66 64 63 66 69 72 52 66
53 47 62 90 90 90 89 89 89 88 87 85 83 82 78 76 75 74 72 72 71 66 67 72 75 74 75 80 82 81 81 82 81 72 62 31 43 67 69 71 73 68 68
49 44 49 92 89 88 88 88 88 86 86 84 82 79 78 77 76 74 72 74 74 73 72 71 74 75 80 84 86 83 80 78 78 71 30 31 37 67 66 68 70 70 66
52 44 52 91 89 88 89 88 87 86 86 84 81 78 78 77 74 73 76 76 75 74 75 74 73 81 86 88 88 85 80 76 71 44 30 34 36 58 68 68 61 69 72
59 49 80 93 92 90 89 88 88 86 85 82 79 79 78 76 74 76 76 75 77 76 75 75 79 86 90 89 86 84 81 75 69 29 32 44 44 65 66 67 67 67 70
71 58 68 93 92 89 88 88 88 86 84 80 79 79 78 77 77 77 77 77 77 78 76 79 84 86 86 85 84 84 79 71 31 30 30 35 49 66 66 64 64 63 64
71 70 67 89 89 89 88 89 88 87 84 81 80 82 82 82 82 82 82 82 81 79 81 83 85 83 82 84 83 85 79 72 37 32 30 35 65 65 65 63 63 62 63
80 75 82 80 85 96 95 92 90 87 85 84 85 87 86 85 83 82 82 82 82 81 81 82 82 83 82 82 82 84 79 70 33 32 29 32 64 63 64 62 60 60 62
97 95 96 96 96 88 92 94 93 90 89 88 86 85 85 84 85 85 84 84 84 83 79 81 85 84 81 79 77 76 71 63 34 30 29 43 65 63 63 62 60 59 60
98 98 97 96 95 89 78 89 88 89 87 85 79 82 71 48 45 49 80 86 84 82 78 77 78 78 76 71 66 62 56 33 32 29 29 74 61 64 65 63 62 60 60
97 98 97 95 96 94 86 85 74 68 51 47 50 50 42 48 42 46 71 84 80 78 74 69 68 63 57 31 32 47 30 33 28 26 31 68 64 56 65 64 61 60 60
95 96 95 95 91 92 91 92 94 67 61 54 52 44 52 50 54 51 55 50 50 57 39 40 39 32 39 34 35 36 31 27 24 21 40 66 66 60 60 64 60 58 58
94 90 91 91 85 83 78 69 72 62 59 57 59 56 56 51 58 58 51 48 49 40 46 42 41 44 41 38 35 34 31 23 21 18 44 78 69 65 61 62 58 56 55
96 95 90 84 85 83 82 78 68 65 60 56 62 59 53 55 62 57 57 50 45 44 40 41 39 35 35 32 29 28 27 29 28 23 30 77 74 64 51 58 54 54 54
88 91 91 92 82 81 69 71 65 62 60 59 59 60 67 62 68 68 63 50 45 39 37 36 32 28 27 28 30 30 29 26 27 30 26 41 71 68 61 55 51 50 48
87 87 89 85 78 74 65 59 56 54 52 52 62 74 74 77 73 68 53 46 41 41 45 36 33 30 25 23 28 28 26 29 26 28 24 29 37 69 66 64 57 50 46
71 75 66 54 66 73 62 54 51 50 57 63 64 69 70 67 63 57 49 46 44 39 35 34 30 28 28 26 29 25 26 26 29 28 25 24 24 20 54 57 60 62 61
50 49 51 56 66 69 64 52 52 59 65 69 78 66 70 64 60 51 48 49 46 39 38 32 33 33 32 28 25 29 31 27 30 21 29 30 32 26 22 49 42 44 50
46 45 49 59 70 69 68 66 61 63 76 80 73 67 70 58 58 53 48 49 40 39 38 35 39 35 34 33 24 27 35 30 29 30 29 24 28 31 28 31 29 28 47
50 49 55 62 69 67 62 55 57 72 81 83 74 70 67 66 57 53 44 47 43 41 40 44 42 44 39 39 39 35 34 38 38 32 31 29 30 30 34 32 31 26 25
51 54 56 58 65 62 48 47 53 62 78 76 61 70 62 61 56 51 48 46 44 42 46 46 45 41 41 42 42 39 35 30 34 33 32 31 37 33 29 32 36 36 33
50 53 50 51 53 57 52 46 55 60 66 68 65 71 62 62 54 47 48 46 48 41 42 47 46 48 43 44 47 39 31 28 26 26 36 34 38 37 34 34 35 36 36
48 46 45 45 50 56 58 55 62 56 62 61 67 63 55 58 49 46 47 49 48 40 45 46 44 48 48 43 39 35 40 37 28 28 24 30 34 37 40 36 35 36 36
45 50 52 51 56 58 64 62 61 60 61 70 89 82 62 58 51 46 48 50 48 42 48 54 54 53 43 40 32 31 34 34 37 41 42 34 29 27 29 32 35 36 36
51 58 60 58 59 60 65 68 68 67 73 76 86 83 60 52 52 52 45 49 49 51 53 54 66 68 51 38 33 33 33 33 33 36 37 35 33 28 26 32 36 35 35

GFSSE_sfc_rhum_075.txt.gz
RH
44 51 91 91 90 91 91 91 90 90 88 88 87 85 83 81 80 79 78 77 76 75 73 75 76 74 75 75 75 77 79 79 76 72 69 63 61 63 66 74 57 44 68
47 51 91 91 91 92 92 91 90 89 87 87 86 84 82 80 78 77 76 75 75 74 74 74 74 75 76 76 78 78 78 82 78 73 72 70 68 67 69 74 75 59 70
49 48 63 93 91 91 90 90 89 88 87 85 83 81 79 77 76 76 75 74 76 76 74 74 73 75 77 78 80 77 76 75 75 76 61 36 50 68 68 71 74 71 69
46 47 56 94 91 90 90 89 88 86 86 84 81 79 78 77 76 76 77 77 75 74 74 74 75 77 78 81 82 78 75 73 70 64 30 31 38 67 65 63 68 68 65
47 44 58 91 91 90 89 88 87 87 85 82 80 79 79 76 76 78 80 81 80 74 73 74 77 81 84 87 85 79 74 70 69 41 31 36 40 59 64 65 61 66 69
47 43 84 93 90 89 89 88 88 87 84 82 81 80 77 76 78 79 82 82 80 78 75 77 82 84 88 86 83 78 73 72 74 26 33 46 48 65 63 64 64 66 69
49 60 72 93 90 89 89 88 88 86 83 82 81 79 77 78 79 82 82 84 83 82 82 84 84 83 85 85 82 78 73 77 27 26 30 39 54 66 63 62 62 64 65
67 73 71 89 90 90 89 89 88 85 84 83 82 81 81 82 83 84 84 84 85 87 89 88 86 83 85 83 81 80 77 75 32 27 29 42 65 65 63 61 61 62 62
83 83 81 84 89 93 93 92 90 86 85 85 85 87 86 85 84 84 82 82 84 85 86 84 84 85 82 82 79 76 70 70 30 27 27 37 66 64 62 60 59 60 60
95 97 90 90 86 91 89 95 94 91 91 90 89 87 86 86 85 84 84 85 84 84 84 83 84 84 80 78 74 69 66 65 29 25 37 52 64 66 64 61 59 60 59
98 98 97 96 91 88 86 91 88 89 89 88 84 82 69 55 53 56 87 86 82 83 83 81 80 79 74 66 60 58 62 28 25 24 34 71 63 67 65 63 60 60 58
98 98 96 94 90 91 89 83 75 64 56 53 55 50 38 50 48 49 79 85 81 79 78 78 76 76 65 35 34 51 29 29 23 22 34 62 61 57 66 63 60 59 57
97 97 93 94 94 96 92 90 84 53 50 52 60 50 48 50 57 57 61 52 53 59 42 45 47 36 40 36 37 35 26 23 21 19 50 67 60 56 63 63 59 57 55
97 97 92 92 92 90 73 74 71 78 60 60 57 63 68 60 62 59 48 48 50 40 44 42 42 48 43 37 33 31 29 24 22 19 56 78 69 60 66 62 58 56 54
97 97 95 91 89 90 77 67 62 75 61 62 63 63 62 61 72 62 57 46 43 44 44 44 44 39 36 31 28 26 25 27 27 23 42 76 74 64 54 58 55 55 54
93 93 93 95 94 90 86 82 83 72 63 60 70 64 68 79 81 73 58 49 48 44 40 40 38 31 27 29 31 29 28 25 26 28 24 49 76 69 64 57 51 50 48
90 92 93 95 93 92 87 78 61 56 54 56 69 71 64 72 70 66 57 57 45 43 46 39 33 30 27 25 29 28 24 28 25 26 23 26 49 73 67 64 62 59 54
85 88 88 85 89 86 73 55 51 47 56 65 62 74 70 71 68 64 53 48 45 45 38 34 31 30 30 29 31 27 27 26 28 27 25 24 24 20 60 57 50 46 48
75 82 90 86 84 79 60 56 51 58 72 76 79 79 68 64 62 52 47 48 49 41 38 34 34 35 35 31 27 30 33 28 29 19 28 28 30 29 24 51 44 44 44
57 58 65 76 77 70 71 62 56 60 72 75 80 72 68 56 58 51 47 52 44 38 38 35 41 36 35 36 28 30 36 34 30 30 30 25 26 31 30 31 32 34 49
48 47 48 54 68 70 70 54 50 50 71 82 74 66 64 57 56 54 47 51 43 40 40 47 44 47 42 40 41 37 34 39 40 34 31 30 29 29 30 32 33 28 28
45 43 45 47 60 61 46 43 41 45 65 69 64 67 65 69 66 53 50 48 44 40 47 48 46 43 42 43 46 43 39 33 35 35 32 32 36 31 32 30 32 35 34
45 46 43 50 56 60 44 37 40 57 58 71 70 65 63 60 55 52 49 47 46 44 46 50 48 48 45 44 47 47 41 35 33 27 30 31 37 37 37 33 35 34 35
45 45 45 46 55 58 60 43 48 64 61 59 64 64 69 74 61 51 47 46 49 44 46 49 45 49 51 47 54 37 41 42 42 41 30 28 29 35 38 35 34 34 34
43 45 46 44 42 47 54 60 48 50 50 61 70 67 77 75 63 49 46 49 52 45 48 49 55 56 49 60 61 38 37 34 36 39 41 36 30 26 24 25 30 33 34
44 49 48 43 40 44 62 63 58 56 52 61 71 72 73 75 60 53 46 51 51 50 52 55 62 60 68 55 39 38 35 34 34 36 40 39 33 29 25 25 29 33 34

GFSSE_sfc_rhum_078.txt.gz
RH
58 69 90 90 91 92 92 91 91 90 90 88 87 85 84 84 82 82 82 81 79 78 75 75 77 71 70 68 68 76 78 76 74 74 72 66 66 69 71 75 70 61 69
61 70 91 90 92 92 92 92 90 89 89 87 86 85 84 82 81 81 80 80 79 77 74 75 74 71 70 69 75 79 79 77 76 75 71 71 68 66 70 74 76 65 69
61 73 79 91 91 92 91 90 89 88 87 86 85 83 81 80 80 79 80 81 79 77 74 74 73 70 70 71 78 77 76 78 78 73 64 57 62 65 68 69 72 69 67
58 69 78 92 91 90 89 88 88 87 86 84 82 80 79 79 79 79 81 83 81 78 71 74 71 72 73 79 76 72 71 71 71 68 47 48 51 64 62 63 67 67 66
63 60 78 92 91 90 89 88 88 88 85 83 81 80 79 79 80 81 82 82 81 79 74 75 75 77 82 82 77 75 75 75 73 50 53 56 58 60 63 64 65 68 68
60 62 93 94 91 87 87 88 89 87 84 82 81 80 79 81 82 85 86 82 80 80 77 79 79 81 84 81 78 76 77 75 79 45 55 64 63 63 63 64 65 65 67
66 86 88 93 88 86 87 88 88 86 84 84 81 80 82 84 87 88 87 87 83 85 83 82 80 82 84 81 80 79 77 74 47 42 53 66 68 64 62 62 63 64 64
83 84 88 90 89 88 89 90 88 87 86 84 82 83 85 86 87 88 88 90 89 90 89 86 84 85 85 82 76 73 72 77 37 46 57 68 72 64 62 61 62 61 61
96 90 90 86 87 93 92 91 89 88 87 87 86 87 87 86 86 87 89 91 92 90 87 85 86 86 84 78 72 70 76 76 57 47 48 67 73 65 62 60 60 59 58
98 97 99 95 93 95 92 93 93 93 93 92 89 88 87 86 87 87 87 88 88 87 84 83 86 85 80 72 68 63 67 71 47 52 64 76 71 66 63 60 60 58 56
96 95 98 98 94 92 90 92 92 91 90 89 86 83 76 64 70 73 87 88 88 86 85 82 83 79 73 66 63 60 63 44 38 46 60 73 69 67 65 62 60 58 55
97 98 97 97 97 92 89 89 87 79 72 71 67 68 62 71 73 77 86 87 87 86 84 83 80 75 67 54 54 62 44 41 39 42 66 69 58 59 66 62 61 57 55
97 97 95 93 93 94 94 93 92 87 69 70 70 66 69 71 76 82 78 72 76 75 61 67 71 61 58 59 53 49 44 39 45 52 74 73 58 52 67 63 60 57 55
97 95 95 93 90 88 88 89 83 75 84 67 67 73 74 78 76 77 68 68 70 65 64 65 70 65 57 46 44 44 43 43 43 60 82 80 71 63 66 62 59 57 56
97 96 94 94 92 88 83 80 82 82 68 71 74 76 77 77 81 78 74 69 63 66 68 66 65 61 50 44 43 39 40 40 40 56 73 78 77 65 63 58 57 57 55
96 96 96 95 92 84 87 85 90 77 79 80 85 80 76 85 88 86 77 73 69 66 65 68 65 53 52 48 44 40 40 41 38 42 64 84 78 73 65 58 52 51 48
94 94 94 95 94 95 94 89 81 82 80 79 82 77 78 83 85 81 78 75 70 71 70 62 52 51 48 40 44 42 45 38 42 37 46 65 82 77 74 66 63 62 58
91 92 89 88 92 91 91 91 87 75 76 81 83 83 77 77 82 80 77 76 74 68 64 60 57 55 55 53 51 48 44 40 38 36 38 43 52 56 75 68 59 52 48
86 88 90 90 94 91 86 80 68 64 80 83 85 81 72 81 81 86 82 79 70 69 67 57 58 59 58 52 48 51 52 51 44 30 36 38 44 45 53 63 58 54 46
83 83 86 85 87 84 83 70 66 74 74 78 84 88 79 79 78 80 77 74 70 66 66 63 60 57 60 61 40 47 58 55 51 49 46 37 43 45 42 47 56 58 59
80 80 77 77 80 81 88 74 66 69 84 90 85 77 80 78 74 77 70 73 73 66 64 66 68 64 64 65 66 68 68 63 56 54 55 51 44 42 46 45 51 51 52
73 74 75 73 78 76 77 62 58 64 76 86 83 82 82 80 77 72 74 72 72 68 72 70 69 72 69 70 73 71 73 69 65 59 59 53 55 47 45 45 47 46 50
65 66 62 67 70 68 69 62 57 69 81 86 88 85 78 84 84 84 73 72 70 71 74 75 70 67 75 73 66 70 72 70 65 58 64 59 52 57 57 53 49 48 50
56 55 51 50 64 67 68 56 58 58 72 74 85 77 75 80 76 69 65 70 71 71 72 75 67 73 69 75 72 59 64 61 70 69 57 55 60 54 60 64 54 51 48
52 53 53 50 57 62 67 74 60 74 75 81 79 83 84 85 84 90 76 71 72 71 75 72 78 70 75 71 69 57 59 65 68 68 67 59 53 52 48 49 53 56 47
54 57 57 55 57 62 68 70 74 72 71 72 81 87 85 85 86 80 69 70 74 70 73 79 79 78 75 66 66 60 61 58 58 64 69 66 63 53 49 49 51 55 60

GFSSE_sfc_rhum_081.txt.gz
RH
80 85 92 91 90 90 91 91 91 90 88 87 86 86 86 86 85 84 82 82 80 79 71 68 72 68 66 63 72 76 77 78 78 76 72 68 68 70 72 71 72 63 68
81 84 92 91 92 91 91 91 91 89 87 86 86 85 85 85 85 84 83 81 79 76 69 67 69 66 65 67 77 77 79 78 77 77 75 70 68 67 70 71 73 64 68
81 88 86 92 91 91 90 90 89 87 86 85 84 84 83 83 84 84 82 81 79 77 68 66 62 64 69 74 80 80 81 78 76 72 70 62 60 65 67 68 69 67 66
79 84 88 93 91 90 89 89 88 86 85 84 82 82 82 82 83 84 82 81 78 76 67 64 61 64 70 78 78 78 76 75 73 68 60 60 54 64 65 66 68 67 68
78 88 90 94 88 89 89 88 88 86 84 82 81 81 81 82 84 84 84 82 77 76 67 65 63 69 77 79 79 79 78 77 72 65 67 69 62 60 64 65 67 67 69
78 81 90 93 86 89 89 89 88 86 84 82 81 82 82 83 84 85 86 82 80 78 70 68 69 74 80 80 80 77 76 75 71 69 69 66 63 63 64 64 65 66 67
83 84 96 88 87 89 89 89 87 85 84 83 83 84 84 86 86 86 86 85 84 82 76 72 74 79 81 78 77 76 74 68 60 70 74 76 64 63 63 63 63 65 66
94 93 95 92 89 89 90 88 87 86 85 84 86 87 90 90 90 89 87 89 89 87 85 82 82 82 78 74 75 76 80 71 61 71 77 78 69 63 62 62 60 63 65
97 96 97 90 87 91 91 90 90 88 87 88 89 90 91 92 92 93 93 92 90 87 84 83 84 81 75 72 71 75 76 71 65 70 69 83 71 64 61 60 58 60 63
96 98 96 98 94 94 93 92 92 92 91 91 90 90 91 92 93 94 92 90 88 85 84 84 83 78 72 66 68 69 72 72 71 76 82 86 70 64 62 61 57 58 61
93 97 98 97 98 95 93 94 93 92 90 89 87 87 85 82 85 88 91 89 87 85 85 84 81 75 70 61 60 68 62 53 56 68 78 78 71 65 64 62 58 57 60
96 98 98 99 99 97 93 92 87 78 78 75 69 71 77 83 83 86 90 89 87 85 83 81 78 76 66 56 53 60 48 49 50 68 79 71 63 66 64 63 58 57 57
94 97 98 98 98 97 96 95 91 82 72 71 71 67 82 83 86 85 86 87 84 80 74 78 75 64 60 58 49 48 46 57 66 74 76 71 60 66 64 62 58 57 56
98 97 96 94 94 92 87 90 82 79 77 73 65 77 79 84 82 75 75 78 73 73 73 74 77 64 52 46 45 44 42 56 71 84 85 77 73 66 64 60 60 58 56
97 96 96 92 89 84 76 67 61 60 54 71 80 82 77 80 80 84 76 78 73 72 75 75 68 60 51 47 46 44 42 45 67 74 92 79 76 72 62 58 59 58 57
95 95 92 94 94 89 87 84 89 80 84 87 90 87 86 92 92 92 76 76 78 73 70 70 70 54 52 47 44 42 43 43 58 72 82 89 79 75 66 56 55 53 49
97 95 93 93 87 91 93 91 89 90 87 87 87 80 84 90 88 88 87 80 75 73 73 71 63 59 57 49 45 47 44 45 40 55 73 82 86 78 75 64 62 61 59
92 93 90 86 91 93 90 92 91 90 90 87 84 90 86 86 83 92 91 84 82 77 67 61 57 57 53 55 55 53 52 46 40 40 59 72 74 75 78 74 63 57 52
88 88 91 88 88 93 93 91 85 84 85 85 87 92 76 78 87 91 92 89 81 71 68 57 65 59 62 62 54 59 54 54 44 37 41 49 54 73 72 72 65 61 47
85 82 82 77 83 90 88 74 65 70 80 88 90 85 75 80 82 93 93 88 81 73 70 66 61 68 63 64 47 51 62 58 56 54 46 40 49 53 61 59 62 60 59
84 85 85 91 92 89 86 75 64 65 87 89 87 81 82 81 80 94 84 89 76 71 67 68 70 64 70 71 69 73 75 71 60 57 59 55 50 50 54 58 60 60 65
89 88 86 88 90 82 81 65 68 69 80 83 86 87 84 87 92 92 80 82 78 74 73 72 69 76 78 75 78 79 77 71 70 61 64 59 60 52 48 49 53 55 58
89 88 80 80 83 77 76 72 75 83 92 90 90 88 89 92 96 90 78 79 80 80 75 75 75 75 77 79 70 73 75 75 69 65 70 70 63 63 58 54 53 52 56
84 79 68 67 72 75 78 78 78 69 80 88 94 93 96 95 90 88 84 76 75 74 70 76 73 80 78 82 81 66 68 66 71 69 65 60 60 62 66 69 65 58 57
70 73 69 72 74 75 76 80 77 82 80 93 94 92 95 95 90 87 86 82 73 75 76 76 79 81 80 80 76 66 60 73 72 70 72 60 60 58 58 62 68 66 58
63 68 67 64 68 72 75 77 81 66 80 85 92 95 96 96 95 92 88 85 77 74 76 72 82 78 77 73 68 70 62 62 56 65 75 73 69 60 56 56 56 56 60

GFSSE_sfc_rhum_084.txt.gz
RH
88 89 90 89 91 92 92 92 91 89 87 87 87 87 86 84 84 84 83 81 78 74 66 67 72 71 68 66 72 79 80 79 77 74 69 68 68 70 70 70 69 64 68
87 89 93 92 92 92 92 92 90 88 86 86 87 87 86 85 84 84 82 80 74 69 64 67 72 70 69 73 79 80 80 80 78 76 72 68 67 68 69 68 72 64 66
86 87 86 93 92 92 91 90 88 87 86 86 86 86 86 84 84 83 82 79 73 68 67 67 68 69 72 76 81 80 78 77 76 74 68 64 62 67 68 68 69 68 67
81 82 83 94 92 91 90 89 88 86 85 84 84 85 85 85 83 83 82 79 74 69 68 66 68 70 72 78 79 79 78 77 76 71 64 62 57 65 67 67 68 68 68
86 88 86 93 95 91 90 89 87 86 85 84 84 84 84 85 83 83 83 79 74 69 65 66 68 70 77 80 79 80 77 77 76 68 72 72 63 62 66 68 67 71 72
81 86 89 91 92 92 90 89 87 85 84 84 83 84 84 84 84 83 82 80 75 71 67 67 70 75 81 78 80 79 79 80 78 76 70 65 64 64 65 66 67 67 68
92 89 90 95 88 89 90 89 87 85 85 84 84 85 86 86 86 85 83 82 78 75 72 70 74 78 77 76 77 79 80 79 73 74 78 77 65 63 62 65 66 66 66
95 95 88 88 94 86 90 88 87 86 86 86 86 86 87 87 88 88 88 85 83 82 80 79 79 78 76 72 78 78 79 76 73 77 81 74 68 62 61 62 66 66 66
96 96 96 94 93 95 96 89 88 88 89 89 89 90 91 91 91 91 90 89 86 82 80 81 79 76 73 71 77 80 80 80 84 79 71 76 66 62 59 59 62 64 65
96 98 96 98 95 94 96 93 92 92 92 94 95 95 96 96 95 94 91 88 84 82 82 79 75 73 72 71 79 81 82 80 89 92 94 77 66 62 60 58 61 62 63
96 94 98 96 92 96 95 94 94 94 93 94 94 95 95 90 91 92 90 87 84 84 82 78 75 77 71 73 74 72 69 67 74 84 96 80 66 62 61 58 60 61 61
96 94 98 98 98 97 96 93 92 85 84 88 87 86 89 90 92 89 90 89 87 84 81 80 78 70 65 47 52 61 53 55 66 76 84 79 68 64 63 59 59 58 59
95 98 96 97 98 97 99 96 88 78 78 78 82 81 86 91 95 91 89 86 84 82 74 73 68 67 55 48 48 54 60 64 74 78 77 71 70 63 61 60 59 58 57
97 98 99 97 96 95 98 98 87 76 76 76 81 85 84 88 89 90 86 86 81 81 76 78 77 58 52 48 47 53 61 69 81 89 88 76 73 63 62 59 60 58 56
98 98 97 95 95 93 90 88 76 72 68 75 78 81 75 77 80 81 82 81 76 74 77 80 66 54 50 49 48 46 56 68 71 81 95 80 80 69 60 58 60 60 57
97 96 93 91 88 84 83 80 78 71 86 88 90 88 83 88 93 85 79 77 76 76 78 74 63 55 51 47 47 46 51 67 67 76 87 92 81 76 66 57 57 55 52
95 93 94 90 86 85 84 75 60 87 90 89 92 89 86 88 89 82 82 84 80 80 79 76 63 60 56 47 46 48 48 58 68 72 84 89 88 77 73 64 60 58 56
95 94 89 87 90 88 93 90 90 92 92 89 90 92 89 89 90 93 93 85 85 82 81 75 67 63 62 57 55 55 52 47 49 72 76 81 82 82 79 76 64 52 50
90 93 94 91 91 93 92 92 91 86 87 89 88 88 83 89 90 92 93 88 86 82 77 64 65 61 64 64 58 60 60 54 46 50 70 70 73 82 82 78 69 63 51
88 87 91 90 91 92 90 92 92 88 78 85 87 88 82 85 94 95 93 93 85 75 72 67 64 71 68 68 47 54 65 62 57 57 56 49 57 70 68 72 70 64 64
87 87 84 87 92 89 82 79 80 75 76 90 88 83 88 85 89 95 95 92 83 70 69 66 69 70 75 76 72 77 80 79 66 62 60 57 56 57 64 64 62 63 68
86 83 80 82 90 79 74 62 60 57 89 92 90 90 87 84 86 92 90 89 74 73 73 75 72 77 76 80 77 80 74 69 71 63 67 62 62 59 58 57 58 58 66
90 92 89 84 85 79 73 74 82 85 94 95 95 94 89 86 89 90 86 87 78 70 70 75 74 72 81 83 76 75 82 74 75 68 70 74 66 70 63 58 59 57 60
95 93 86 84 82 78 78 72 75 66 74 90 90 88 93 92 93 92 85 82 78 81 79 73 70 78 81 80 84 72 73 73 72 68 64 63 65 62 68 72 70 64 63
87 91 88 83 83 75 78 78 75 89 87 93 95 93 93 96 95 95 92 88 92 82 78 74 80 81 82 85 81 81 73 77 73 69 69 65 64 64 62 68 66 60 58
82 84 84 77 77 75 78 79 80 81 83 89 88 91 92 94 95 94 89 89 84 82 81 70 72 84 84 82 76 70 68 67 69 74 74 73 67 62 59 59 55 57 60

GFSSE_sfc_rhum_087.txt.gz
RH
95 93 92 87 87 90 92 91 90 90 86 84 84 85 86 85 86 84 82 80 76 72 68 68 73 69 68 70 72 74 77 78 76 72 68 68 67 68 69 70 70 64 68
91 93 94 92 92 91 92 90 88 89 88 85 84 86 86 86 85 83 81 76 72 71 67 68 70 68 70 73 76 77 76 79 78 74 69 68 67 67 69 69 73 68 69
92 93 92 94 93 91 90 89 88 88 88 86 86 86 85 85 84 80 77 72 73 72 68 70 71 72 72 75 76 74 74 75 76 72 68 68 65 66 69 69 71 65 72
83 88 92 93 92 92 90 88 88 87 87 87 86 85 85 85 83 79 75 74 75 74 70 70 72 75 78 79 81 78 72 72 72 72 68 66 60 66 67 69 68 73 72
86 91 92 90 90 91 92 90 87 86 86 87 85 85 84 84 83 80 76 74 75 74 70 69 70 71 75 82 80 79 75 74 73 72 79 75 66 64 67 69 71 73 73
92 91 96 91 85 83 86 86 87 86 86 87 85 84 84 85 83 81 78 74 75 74 68 68 66 73 82 83 82 81 81 77 78 84 74 66 65 65 66 68 68 68 68
92 95 92 92 90 84 85 89 86 87 87 86 86 85 85 85 84 82 79 75 75 75 74 69 71 83 84 82 82 83 82 79 77 79 81 79 63 65 66 67 67 67 67
97 93 94 92 90 84 82 89 92 88 87 86 87 86 86 85 85 84 82 80 79 80 77 75 75 81 82 82 84 84 82 78 76 83 83 74 64 64 65 66 66 66 66
97 96 97 91 93 88 86 88 91 89 88 88 89 89 87 89 88 86 85 84 83 81 76 74 74 79 81 82 83 85 85 83 91 83 71 76 64 62 63 64 65 65 64
97 97 98 94 94 93 90 89 91 92 91 90 92 94 95 93 92 90 87 84 81 79 74 73 75 81 84 84 85 87 88 87 95 93 90 74 65 61 62 63 63 63 63
98 99 98 96 95 94 94 96 92 91 94 94 96 97 95 88 94 91 87 83 80 79 78 75 74 82 84 84 84 82 79 86 93 97 96 74 65 61 61 62 62 62 62
98 95 96 98 96 94 95 95 94 91 92 88 89 89 85 87 92 89 89 87 84 81 81 75 70 67 62 68 70 68 68 74 83 90 95 75 64 62 61 61 61 61 60
96 98 98 99 97 94 90 93 96 98 97 91 91 83 84 89 93 90 88 82 79 81 68 68 65 50 52 57 58 59 60 62 76 83 81 77 65 60 62 60 59 58 58
97 97 99 96 96 97 93 95 96 97 90 90 89 87 91 91 93 89 87 87 81 81 74 75 66 56 53 54 58 61 63 74 87 93 86 81 71 62 59 59 59 58 57
99 99 99 96 96 97 96 96 96 92 83 84 89 92 91 92 92 88 92 82 78 83 82 68 58 53 52 51 57 62 66 72 77 90 96 82 77 68 59 61 61 59 56
98 98 95 95 96 94 95 96 95 79 87 85 89 90 88 89 91 87 85 78 81 83 83 62 57 54 53 52 54 60 67 68 74 83 94 94 82 74 67 60 60 58 57
97 95 93 91 90 91 92 87 86 86 88 87 90 90 89 90 89 78 81 76 79 85 80 69 60 59 56 50 52 56 68 68 69 77 90 94 88 74 70 65 57 53 51
97 94 89 85 87 84 81 85 89 90 93 91 88 90 90 88 81 87 90 83 86 86 81 71 68 64 63 58 58 56 56 67 70 76 84 89 89 85 80 76 65 52 51
92 95 95 91 91 87 92 95 94 92 92 93 94 91 91 90 87 86 92 90 89 89 86 70 70 64 65 63 58 64 63 57 61 66 78 82 82 88 88 80 71 65 55
95 94 95 94 92 91 92 93 94 91 91 89 90 90 89 91 91 93 93 93 92 87 83 72 66 70 68 67 49 56 66 64 60 72 77 68 74 78 77 82 80 73 66
92 92 93 94 93 89 91 82 83 91 93 91 87 84 83 89 94 95 95 94 88 80 77 70 71 71 78 78 76 81 82 78 69 67 64 64 61 68 73 73 76 66 68
91 88 89 89 91 85 81 61 65 74 83 87 88 86 86 85 94 93 94 94 84 79 77 73 71 77 77 82 78 83 79 76 81 71 68 64 64 63 65 63 65 59 63
91 88 84 87 88 79 72 65 67 77 90 89 89 91 88 87 88 93 94 92 89 81 76 72 73 70 78 86 81 76 83 77 80 72 74 78 73 75 69 64 62 60 64
86 90 88 88 87 84 80 72 72 67 67 64 84 88 92 90 90 90 90 91 88 86 83 74 72 76 78 79 88 77 76 76 72 70 67 68 74 72 73 73 70 67 64
84 96 96 88 86 80 84 83 78 76 78 91 95 92 94 94 89 86 91 90 90 83 78 81 81 76 72 75 77 83 78 79 76 71 70 64 67 66 66 76 77 73 63
97 97 97 92 86 82 82 82 85 80 86 91 91 96 96 94 94 95 96 91 89 88 89 87 86 81 76 79 75 73 72 71 74 74 75 72 67 63 63 60 58 57 58

GFSSE_sfc_rhum_090.txt.gz
RH
93 96 91 91 92 90 89 88 88 89 88 87 87 86 86 86 85 84 81 80 78 76 71 70 73 68 68 70 73 74 75 77 75 71 67 66 66 67 71 68 67 56 66
95 92 92 91 91 92 89 87 87 88 88 87 86 86 86 86 85 83 79 76 75 72 68 68 68 69 70 73 74 75 74 78 77 74 70 67 66 67 68 73 78 70 71
95 94 93 93 92 91 89 87 86 86 86 86 87 87 87 85 84 80 76 75 73 72 67 68 70 71 72 74 75 73 72 72 76 73 71 69 63 70 68 71 75 73 72
92 93 91 93 91 91 90 87 85 85 86 86 87 87 86 84 81 77 77 76 76 75 71 70 71 72 73 75 76 74 72 72 73 74 71 67 60 67 67 68 73 71 72
92 95 94 94 92 90 90 89 88 86 86 87 86 86 85 82 78 77 78 77 77 76 70 70 72 75 80 81 78 77 74 73 74 74 78 76 66 65 69 73 71 71 68
93 94 95 94 92 90 90 89 88 88 87 86 86 85 83 80 78 79 78 78 77 75 74 71 72 80 84 82 81 80 78 77 80 82 76 68 68 66 67 68 67 66 66
96 93 93 93 91 88 85 85 87 89 89 87 86 85 83 80 78 79 79 78 77 75 72 70 74 85 82 83 82 82 81 77 76 76 77 76 67 66 67 67 67 66 66
96 97 96 94 91 88 83 84 86 88 88 87 86 86 84 82 80 80 80 78 78 76 79 84 85 85 83 82 82 82 81 78 75 77 77 71 66 66 67 66 66 66 66
98 96 95 97 93 88 90 89 88 89 89 90 89 88 86 86 84 82 81 82 77 78 83 86 84 82 83 83 83 84 84 81 83 75 68 70 66 65 66 65 65 65 65
97 98 98 95 98 96 94 92 89 88 88 88 90 91 92 91 88 86 84 79 77 76 80 83 83 84 84 86 86 86 88 85 88 85 83 66 65 63 63 64 64 64 64
96 98 98 97 98 98 95 93 91 86 83 84 96 94 95 92 94 88 81 79 76 77 80 84 86 86 87 88 88 89 86 92 91 90 85 71 64 62 62 63 62 62 62
95 95 96 97 96 97 98 94 91 87 83 86 92 93 85 94 94 86 84 80 79 77 81 86 86 86 82 82 83 81 86 92 94 93 86 72 64 62 62 62 62 61 61
95 96 96 97 98 97 96 97 97 96 95 94 98 93 80 90 97 93 90 82 76 73 64 71 66 66 72 69 71 74 77 83 89 89 80 74 61 60 61 61 61 60 60
97 97 97 96 98 96 96 98 96 95 95 95 95 89 88 89 97 90 81 92 76 75 73 64 64 65 63 61 60 64 69 78 86 88 86 77 66 62 61 61 60 59 60
98 98 98 96 97 97 97 98 94 92 92 92 98 90 88 87 90 90 91 86 79 83 69 61 55 58 62 63 62 62 70 78 84 88 91 81 74 64 60 61 60 58 57
98 98 97 99 97 97 99 94 96 93 88 91 95 96 93 92 91 87 80 77 78 76 68 56 52 57 61 63 66 67 67 71 80 91 93 86 80 74 66 60 61 59 56
98 96 96 96 96 95 96 96 96 97 91 92 96 95 96 95 93 84 76 74 76 81 71 57 61 60 60 57 66 69 69 70 75 88 92 89 84 80 74 69 61 54 56
97 95 93 90 94 95 97 96 96 98 96 95 95 94 93 93 88 91 86 76 80 81 67 63 61 62 63 61 64 69 72 69 70 79 91 90 87 79 75 73 66 55 54
94 93 94 93 93 90 91 94 96 94 93 94 94 93 90 88 87 85 89 82 83 84 73 63 71 65 64 62 58 63 67 70 72 68 82 85 84 86 87 81 72 66 59
95 94 95 94 92 94 94 94 96 95 95 91 91 90 86 88 87 91 91 88 86 88 85 73 68 70 66 65 47 57 67 64 64 79 78 73 77 82 81 86 79 72 67
95 94 95 96 94 89 92 92 96 93 94 96 86 84 85 86 85 86 89 91 90 83 82 74 73 71 73 74 73 75 76 73 69 66 77 78 73 72 78 76 77 70 70
94 92 92 95 94 80 86 85 92 89 86 94 92 90 87 92 89 86 84 92 89 87 86 79 73 77 76 80 75 79 74 74 80 74 69 70 73 66 72 70 74 69 64
94 92 88 89 92 84 81 84 84 85 89 85 92 92 89 88 95 91 89 91 91 88 84 79 80 73 78 84 81 75 83 79 81 76 78 73 71 73 70 69 69 66 65
92 85 84 85 89 83 77 77 81 76 73 57 81 83 88 90 90 94 95 94 92 90 89 83 83 83 78 78 86 80 77 75 73 71 70 71 78 74 75 74 70 68 67
86 86 84 86 82 77 76 75 74 76 70 82 84 84 89 89 90 92 94 96 96 88 84 84 83 83 88 79 78 83 75 74 74 72 71 66 66 68 74 75 76 75 71
79 88 93 88 89 85 84 84 79 74 80 83 87 93 96 95 95 94 95 94 91 92 91 91 88 86 84 85 73 79 77 73 75 70 71 70 66 64 61 60 72 69 64

GFSSE_sfc_rhum_096.txt.gz
RH
47 41 89 91 92 90 86 88 88 88 88 87 87 86 86 86 85 85 84 81 79 77 72 70 74 72 68 70 71 74 76 75 74 72 69 66 65 62 63 71 64 48 72
40 39 91 92 92 90 89 87 88 88 87 86 85 85 85 86 86 83 82 81 78 75 69 69 72 69 72 73 74 77 78 77 76 76 76 75 71 68 68 74 68 56 68
49 43 59 93 92 92 88 87 88 87 86 86 84 85 85 86 86 83 82 79 77 74 68 68 69 70 73 74 76 75 76 78 76 73 67 45 56 73 74 77 78 73 71
54 48 48 94 92 91 88 86 88 86 86 85 86 86 86 85 85 83 80 78 76 73 67 67 69 71 73 76 78 77 75 75 75 71 36 40 47 73 72 72 71 70 68
52 53 49 92 93 92 90 87 87 87 86 86 87 86 86 85 83 81 79 77 75 73 68 68 70 72 76 80 80 78 74 74 71 45 35 46 51 61 65 62 63 65 66
54 64 62 95 93 91 90 88 88 87 86 87 87 86 84 83 81 80 79 77 76 74 69 69 72 75 81 81 81 79 75 73 64 31 36 47 44 65 68 68 66 65 66
55 79 95 96 92 90 90 89 88 88 88 87 86 84 82 81 80 80 79 78 77 75 74 73 75 78 82 82 80 79 78 74 31 32 34 39 50 65 65 65 66 66 65
60 79 82 89 94 92 90 89 89 89 89 87 86 83 82 81 82 81 81 79 80 80 79 81 81 82 82 81 79 81 77 63 36 32 34 40 63 65 65 66 65 65 65
74 76 79 94 96 97 88 92 92 90 90 88 85 83 83 84 84 83 81 83 84 84 86 83 84 84 83 82 81 81 76 72 32 32 34 41 66 65 65 65 65 65 65
75 78 86 89 97 98 92 95 92 90 92 89 85 85 86 85 86 85 86 84 84 87 86 83 84 84 83 83 84 83 75 68 33 33 34 46 66 64 64 64 65 64 64
86 79 88 87 86 93 82 80 84 95 92 89 87 89 87 66 69 70 71 86 86 88 85 84 85 84 85 85 84 81 77 32 34 33 38 72 66 64 64 65 64 63 63
73 91 85 87 83 82 78 71 77 94 85 80 81 74 54 67 62 52 74 91 91 89 85 85 86 87 70 44 50 71 33 37 34 35 42 73 65 63 63 64 64 62 62
61 74 87 81 91 87 85 79 94 93 90 90 84 71 67 59 61 59 58 63 69 78 58 60 64 42 43 40 41 37 41 39 35 35 56 74 66 63 63 63 63 62 62
67 69 80 84 78 85 87 94 93 93 90 94 86 76 73 67 65 60 46 49 56 51 54 50 46 46 46 42 41 45 43 36 35 36 55 77 70 62 61 61 61 61 60
71 75 76 77 80 89 82 94 96 93 98 93 89 81 72 65 69 56 48 46 46 44 48 49 46 48 47 44 42 43 42 41 42 36 43 79 75 66 61 61 60 60 59
79 75 75 75 80 83 88 86 97 95 94 94 93 88 79 74 71 59 49 44 45 45 44 45 46 41 39 40 43 42 42 40 41 41 39 51 78 73 65 60 59 59 58
83 78 80 86 78 86 87 92 93 97 93 91 94 88 85 77 71 64 54 44 41 43 50 46 45 38 33 30 34 34 35 41 40 44 39 42 54 79 74 69 61 59 57
88 90 89 84 84 86 94 97 95 96 92 90 94 94 86 78 68 62 48 46 41 44 44 43 40 36 35 31 32 31 32 35 42 46 41 40 42 42 73 76 70 63 59
75 88 92 84 89 96 97 97 94 95 94 90 93 96 90 79 68 51 50 47 49 44 43 42 40 41 40 34 31 32 34 33 41 40 46 48 46 44 42 77 78 74 70
81 86 92 85 89 94 98 98 98 96 97 96 94 95 93 81 70 61 56 55 47 42 44 41 45 41 39 36 27 32 37 35 37 43 46 47 47 47 43 46 50 47 74
83 85 93 92 90 92 94 98 97 98 97 98 96 96 94 79 66 65 52 57 49 47 47 50 47 49 44 42 36 38 41 45 46 39 44 48 49 46 41 38 36 31 41
80 81 90 90 90 87 88 96 97 95 96 96 96 96 93 81 66 62 56 59 54 48 54 55 53 49 49 52 50 39 44 40 39 40 37 40 45 36 36 40 40 37 32
83 75 80 80 91 87 89 92 95 96 96 95 96 96 92 85 68 64 53 54 55 51 54 57 56 56 53 56 50 43 46 47 39 36 43 38 44 43 37 37 39 38 37
79 68 70 71 86 84 83 82 88 89 85 80 86 81 86 87 83 71 58 55 60 56 59 60 54 56 53 54 53 47 53 49 47 53 44 42 40 46 47 38 36 43 41
75 76 76 70 85 82 78 82 85 83 79 92 84 69 78 81 79 80 78 77 66 61 66 65 64 63 54 52 51 54 53 50 49 56 55 47 44 40 37 43 48 51 43
70 72 76 74 79 80 71 69 76 73 79 87 88 81 69 75 68 71 72 75 73 62 61 63 65 69 67 64 55 63 58 60 52 56 83 89 84 54 51 60 57 47 46

GFSSE_sfc_rhum_099.txt.gz
RH
32 56 92 92 91 89 89 89 90 89 88 88 87 88 87 88 87 85 83 81 79 76 71 70 73 71 70 71 72 77 76 75 74 73 70 67 64 64 68 73 68 58 75
30 44 92 92 93 91 89 90 90 89 88 87 87 87 87 87 86 85 82 81 78 74 69 70 70 70 71 73 78 79 80 80 76 75 74 72 72 68 71 76 72 62 73
37 36 57 92 91 92 90 89 89 88 87 87 87 87 86 86 85 83 82 80 78 73 68 69 70 70 73 75 80 79 79 77 80 77 69 55 58 72 74 77 76 71 70
43 39 43 94 92 92 90 89 89 88 87 86 87 87 86 86 84 83 81 79 76 75 69 70 70 72 75 78 80 78 78 77 76 73 42 48 52 72 72 70 68 65 66
40 40 40 90 93 93 90 89 89 88 87 85 86 87 87 85 85 82 81 78 76 74 68 68 71 75 79 83 81 78 74 71 71 56 36 44 50 59 66 66 64 65 68
37 40 81 94 93 93 90 89 89 88 87 87 87 87 87 86 83 82 80 78 76 74 70 70 72 77 83 83 81 77 74 72 71 32 39 47 49 70 69 68 66 67 71
39 46 75 90 93 92 85 88 89 88 87 88 87 86 86 84 83 81 79 78 76 75 74 73 76 78 84 83 79 77 74 71 29 32 36 43 54 65 65 66 66 66 66
50 59 73 82 90 92 91 95 88 89 90 88 87 87 86 84 83 81 80 79 77 78 80 80 81 80 81 80 78 76 73 74 32 31 35 43 65 65 66 66 66 66 66
61 66 68 72 74 83 84 92 95 90 90 89 88 86 85 84 83 83 82 80 80 82 83 83 84 83 81 80 79 78 71 69 29 32 36 45 68 65 65 65 66 66 65
66 70 71 70 77 83 89 95 96 94 89 88 87 87 87 85 85 85 85 84 84 85 85 85 85 85 84 82 80 78 72 71 30 31 36 51 67 64 64 64 65 65 65
69 68 70 77 78 88 90 95 96 97 86 89 88 89 88 69 70 71 73 88 88 84 85 86 86 86 85 84 79 76 79 29 30 32 42 73 66 64 64 64 64 64 64
72 71 70 78 81 89 90 94 98 98 99 82 73 79 61 69 62 50 79 90 88 85 86 86 86 86 69 42 46 69 40 32 32 36 47 75 65 63 64 64 64 64 64
49 77 71 75 79 82 76 86 85 91 99 94 79 72 67 64 72 68 73 75 73 73 56 63 66 44 41 38 39 39 37 35 32 37 60 75 66 63 64 63 63 63 63
51 58 71 70 77 77 85 88 83 70 92 99 84 73 65 69 78 71 64 58 64 54 55 52 46 46 43 39 40 41 39 33 32 40 59 77 71 63 62 62 62 62 62
57 63 75 72 74 80 81 90 83 75 89 96 87 69 68 68 83 76 57 54 52 49 51 51 44 42 43 40 39 41 39 36 38 38 48 78 75 67 61 61 61 61 61
58 61 67 74 72 73 76 79 89 93 92 95 93 80 73 73 76 64 61 51 48 46 45 45 43 43 43 39 42 40 38 37 37 41 43 55 78 73 67 60 59 59 60
57 62 64 64 70 72 74 78 84 90 90 91 92 87 77 79 67 64 60 51 46 46 52 46 46 43 38 35 39 38 37 39 37 39 42 47 57 80 74 69 64 60 59
63 68 69 73 74 74 76 76 90 94 88 92 94 90 92 86 66 68 68 65 52 52 47 44 45 39 37 33 34 32 34 37 39 41 38 41 45 44 73 75 72 66 61
64 73 87 86 77 79 86 87 83 92 92 94 96 93 91 89 80 70 72 64 56 48 48 46 44 44 39 33 31 32 33 33 40 36 40 42 45 44 46 76 78 76 70
66 75 82 91 81 86 93 91 95 94 95 91 95 94 90 86 82 73 67 66 46 45 48 46 51 41 40 37 27 31 36 33 36 39 42 40 42 47 45 54 62 61 80
75 76 88 85 87 90 91 93 97 97 96 97 93 91 89 86 78 74 55 59 54 47 54 61 49 53 44 42 36 37 39 39 41 38 43 44 46 47 48 44 51 47 55
72 74 89 85 85 85 85 94 97 98 96 95 97 93 89 88 83 81 72 64 58 55 61 59 57 49 45 45 43 42 48 44 42 44 41 47 57 46 46 47 46 47 40
69 73 75 81 82 86 90 90 96 95 97 98 98 98 95 89 84 74 72 66 63 59 59 62 60 56 53 52 60 45 49 49 43 42 51 45 50 51 45 43 44 44 43
65 66 64 72 75 87 85 89 91 96 96 97 96 98 95 90 80 75 67 65 66 55 62 65 58 60 55 57 55 46 52 53 54 60 47 49 49 47 54 46 41 44 44
58 68 70 72 75 78 86 79 90 92 94 96 96 97 97 94 82 70 62 64 64 61 62 65 65 67 62 58 55 53 61 57 64 59 62 59 46 42 42 47 49 44 44
62 68 68 75 71 81 82 83 84 84 85 94 94 92 94 94 93 87 69 66 68 65 68 73 72 67 65 61 59 58 56 59 60 69 68 76 85 79 58 55 57 50 46

GFSSE_sfc_rhum_102.txt.gz
RH
61 72 93 91 90 91 91 92 92 92 90 89 90 90 89 87 86 85 82 80 79 76 72 72 74 73 73 73 75 79 78 77 77 76 72 70 69 70 74 77 75 68 79
58 64 94 93 91 90 92 93 92 91 89 89 90 89 89 88 86 83 82 80 78 74 70 71 71 72 74 75 80 79 78 77 76 76 77 76 74 72 72 77 79 73 76
45 62 71 93 94 91 91 92 92 90 88 88 89 89 89 87 85 83 82 80 76 75 70 70 70 69 74 76 81 79 78 79 77 76 70 67 69 72 73 76 76 74 75
39 60 61 93 92 92 92 92 91 89 87 88 89 87 87 87 85 84 83 80 76 75 69 68 70 70 75 80 79 79 81 80 79 71 57 61 62 70 68 67 68 67 66
41 42 58 91 92 92 92 92 90 89 89 88 89 86 83 85 85 84 82 79 77 75 68 69 71 77 79 81 82 81 78 74 73 55 55 58 61 63 65 66 65 66 70
40 58 89 93 91 91 93 92 90 89 90 88 84 82 86 83 85 83 81 79 77 74 69 72 76 80 85 83 79 76 74 72 72 48 56 69 66 71 69 69 69 69 72
48 57 81 89 94 91 89 87 90 87 90 88 85 83 82 82 84 83 81 78 76 76 75 75 79 81 83 80 77 74 70 72 44 48 57 66 70 68 67 67 68 68 68
57 69 81 82 88 94 91 86 89 86 86 89 87 83 85 90 90 83 81 80 78 79 80 82 83 82 82 79 74 72 76 73 42 47 55 65 69 65 66 67 67 67 67
67 71 75 81 78 92 92 92 93 96 98 86 88 86 89 89 87 83 83 81 82 83 84 84 85 84 81 78 75 74 73 73 42 49 53 67 69 64 65 66 67 66 66
74 78 76 80 79 81 85 89 90 85 88 91 89 83 85 88 85 85 84 84 85 85 85 86 85 83 82 79 76 74 74 74 42 48 59 69 67 64 64 65 65 66 65
73 75 80 83 79 85 88 92 90 85 89 95 90 87 94 81 80 82 81 86 86 86 86 86 86 85 82 76 76 76 78 48 44 55 65 75 66 63 64 65 65 65 65
73 78 78 83 81 85 92 94 95 93 93 93 82 89 84 82 79 70 86 87 86 86 86 86 86 83 68 67 68 73 63 47 47 59 68 75 66 64 64 65 64 64 65
57 74 74 79 85 90 96 97 98 97 96 93 88 91 85 77 80 90 91 83 86 84 78 80 78 59 55 56 60 63 61 49 53 60 72 76 67 63 64 64 64 64 64
65 78 75 78 84 88 90 96 97 99 99 99 91 84 81 76 85 88 87 79 75 70 73 72 64 62 58 55 58 60 53 49 58 65 77 79 72 64 63 64 64 64 64
59 68 79 78 87 88 89 94 97 97 96 98 97 88 75 75 87 90 85 78 64 63 64 64 61 60 58 57 59 54 54 51 58 63 74 80 76 69 63 63 63 62 63
55 69 76 78 81 88 90 88 90 94 86 96 98 88 81 76 87 83 76 74 68 62 61 60 58 58 64 59 62 57 53 54 54 63 69 81 79 74 68 62 62 61 62
57 65 73 75 77 81 84 91 92 92 89 93 96 94 88 80 84 75 71 80 67 62 67 62 62 66 65 54 59 61 57 56 52 58 64 69 80 80 75 70 65 61 61
61 67 71 72 78 80 83 89 93 92 90 92 90 93 92 88 78 73 69 67 62 63 63 61 62 67 66 62 63 61 60 57 59 59 58 62 67 63 79 77 74 70 64
64 68 80 79 84 84 84 87 93 90 92 93 89 92 90 86 90 74 66 84 73 60 64 68 70 66 66 60 55 60 61 61 62 49 57 58 64 62 68 79 80 78 73
70 75 83 83 84 83 93 93 94 95 94 93 90 90 92 92 90 83 78 78 82 78 70 65 66 65 63 61 33 48 61 60 61 69 62 55 60 66 65 66 74 74 81
75 77 79 86 87 90 94 97 97 96 96 97 94 86 89 91 86 83 71 75 74 71 82 71 71 68 68 65 66 68 64 60 64 64 67 68 63 65 70 74 71 69 71
75 74 78 83 88 85 88 92 96 96 94 93 98 90 88 89 84 75 72 76 67 73 73 72 71 74 71 68 68 69 76 68 64 63 67 68 72 66 65 64 68 66 63
76 74 77 76 86 86 86 90 96 98 97 97 96 97 88 85 83 82 79 80 74 68 77 74 75 70 75 71 66 71 74 74 72 70 67 69 68 78 71 64 60 60 61
73 72 69 77 86 85 84 86 94 98 98 98 95 94 94 87 87 86 87 82 81 77 76 77 73 74 73 75 73 67 72 76 84 81 68 68 70 66 72 68 58 54 52
70 76 69 77 84 81 86 84 93 98 98 98 98 98 95 93 88 87 89 81 77 76 82 81 82 77 78 72 72 75 75 78 83 85 84 74 63 55 59 62 58 61 54
71 73 75 76 80 84 87 85 88 93 96 97 98 98 97 95 92 91 82 88 87 86 86 83 80 79 83 80 73 74 78 81 80 86 91 86 88 79 53 55 67 58 56

GFSSE_sfc_rhum_108.txt.gz
RH
96 97 94 93 94 95 95 93 93 93 92 91 90 90 89 88 87 86 85 84 83 82 78 79 82 82 80 79 83 84 84 84 82 81 80 77 77 77 79 81 81 75 80
90 94 95 94 94 95 94 92 93 93 92 91 91 90 89 88 87 86 85 84 82 79 76 77 78 79 80 81 85 85 85 86 86 84 82 79 77 77 78 80 83 77 77
92 91 91 94 93 94 93 92 92 92 92 91 90 89 88 87 86 85 84 83 81 78 72 71 73 77 79 83 85 85 85 85 84 83 80 80 78 76 76 79 82 77 76
88 91 90 94 93 94 94 93 92 90 91 91 89 88 87 86 85 85 83 82 81 78 75 78 73 75 79 84 84 84 84 84 82 80 73 71 68 74 73 73 74 75 73
84 89 88 93 94 93 94 93 91 91 92 91 89 87 86 86 85 83 83 81 80 76 73 74 74 75 81 81 82 83 83 82 81 74 77 72 72 69 70 72 71 68 71
82 84 93 94 93 92 94 93 91 92 92 91 89 87 86 86 85 85 84 82 79 76 73 72 74 82 85 86 86 83 82 78 76 69 65 68 66 71 69 71 70 70 71
87 86 95 96 94 92 93 93 92 92 91 90 88 84 84 86 85 86 85 82 79 77 77 78 82 86 87 85 81 80 81 79 69 71 73 68 69 68 66 67 64 64 64
93 97 96 95 96 96 94 94 94 93 92 89 87 86 90 84 84 85 85 83 80 80 80 83 86 84 83 80 80 78 81 76 68 69 70 59 70 65 64 66 64 67 64
95 96 97 97 95 96 98 97 96 94 87 88 88 86 86 86 88 83 85 84 82 84 84 86 86 85 82 79 80 79 80 78 71 71 68 69 72 67 67 67 67 66 65
95 96 97 96 94 95 98 95 96 97 94 85 92 90 92 89 87 86 86 86 86 86 87 86 85 84 80 79 79 79 81 78 70 76 82 72 71 66 66 66 67 67 66
90 94 97 96 96 95 96 95 93 95 97 91 90 90 92 84 90 90 84 87 87 87 87 86 84 83 81 82 79 80 75 68 72 75 83 75 68 65 66 67 66 67 67
94 93 96 96 95 96 96 96 97 97 98 95 92 93 92 87 91 90 90 88 88 89 88 86 83 83 76 72 67 72 70 72 72 75 78 76 68 66 67 67 67 66 66
85 95 96 96 95 97 99 99 100 99 99 98 96 94 93 93 95 93 92 89 91 90 92 86 78 72 68 68 67 66 72 74 75 74 76 78 70 65 66 66 66 66 66
93 92 95 96 96 97 99 99 99 99 98 98 98 96 97 97 96 97 92 88 91 90 88 78 82 74 70 66 68 69 72 76 79 80 80 81 73 66 65 65 65 65 66
94 94 95 96 96 97 98 99 99 98 98 98 96 96 91 96 95 92 87 88 91 94 89 84 73 71 67 67 71 68 75 79 81 79 85 83 79 70 65 64 65 66 66
91 94 95 96 96 97 99 98 98 98 98 98 96 95 87 92 95 91 88 91 91 84 80 73 80 71 68 66 72 72 76 79 80 84 84 83 82 77 70 65 65 65 66
89 90 94 96 96 96 97 97 98 99 99 98 96 93 87 92 96 89 89 86 83 80 79 80 83 74 69 67 73 75 77 79 82 82 87 89 84 83 80 73 68 66 66
91 94 93 88 96 96 98 97 98 98 99 98 96 93 87 86 92 87 81 78 78 79 68 73 83 81 74 76 79 80 80 81 82 83 82 86 90 78 82 80 75 72 68
86 92 94 94 95 95 96 98 97 96 99 97 98 95 89 89 89 85 78 73 76 72 65 74 83 77 74 80 73 83 84 85 83 75 81 85 89 87 89 84 83 80 76
87 91 94 95 96 96 98 99 99 97 99 98 96 96 95 93 87 86 80 75 77 71 70 80 73 81 71 77 57 69 78 82 81 82 80 77 84 86 88 87 86 81 83
94 94 95 96 98 98 99 99 99 98 98 98 96 92 95 94 90 89 77 80 76 69 73 79 77 72 81 74 73 74 75 78 85 79 80 82 85 84 90 87 88 89 82
94 94 96 96 98 97 98 98 96 99 94 94 94 93 91 94 89 86 79 74 76 74 79 81 72 75 74 70 73 75 74 69 74 79 86 80 86 80 82 82 84 86 84
96 95 94 95 93 93 96 98 99 99 99 97 97 97 96 91 87 85 81 74 75 78 86 77 70 63 63 80 62 73 80 75 76 71 78 89 89 94 84 80 80 78 79
95 94 94 94 88 92 96 97 96 98 96 96 96 92 93 92 89 84 82 80 79 80 79 77 66 71 64 64 82 73 75 72 80 75 75 75 83 88 87 86 80 77 76
95 94 91 94 91 91 92 90 94 96 95 95 95 98 92 95 88 85 83 85 86 84 85 76 82 85 82 77 72 83 80 84 90 78 79 73 80 79 81 85 81 82 79
93 94 92 92 90 91 91 93 95 96 96 96 95 95 97 95 95 90 87 88 89 88 87 92 94 90 94 87 83 76 78 78 83 88 93 89 84 81 79 79 82 79 78

GFSSE_sfc_rhum_111.txt.gz
RH
94 95 94 94 95 95 94 95 95 93 90 92 90 90 89 88 87 87 87 86 85 83 79 79 83 83 78 80 83 85 84 82 82 80 76 75 74 75 80 81 82 77 79
90 97 96 95 95 95 93 94 94 93 91 90 90 89 88 88 88 87 87 86 85 81 76 80 83 76 78 81 87 88 87 86 85 83 82 79 77 75 80 82 83 78 80
95 96 94 96 94 94 92 93 92 92 90 89 90 90 89 88 88 87 87 85 84 77 76 74 78 81 81 85 88 88 88 88 86 86 84 86 73 76 79 81 82 78 75
93 94 93 96 94 94 93 93 92 90 90 90 90 90 89 88 87 87 86 85 82 79 74 78 80 80 82 88 88 87 86 86 84 82 79 81 72 74 75 76 76 74 73
94 93 91 95 95 94 94 94 92 91 91 90 90 89 88 87 87 87 86 84 80 75 71 73 77 81 88 87 87 86 84 84 83 77 85 83 76 69 71 72 72 72 73
95 94 94 95 95 95 94 93 93 92 92 91 89 88 87 86 86 86 86 84 80 73 73 77 78 86 87 88 87 86 84 81 78 82 82 76 72 70 70 70 73 75 74
94 96 95 96 95 94 94 93 94 93 92 91 89 87 86 85 84 86 85 83 81 79 80 80 84 86 89 87 87 84 83 80 72 74 80 72 70 69 69 66 64 67 66
89 94 97 95 95 95 95 94 95 94 93 90 85 89 85 85 86 83 86 84 82 81 81 84 87 89 87 84 85 84 83 76 67 68 73 74 72 65 64 67 66 67 67
95 97 99 97 96 96 98 97 97 95 93 89 88 86 88 87 88 86 84 84 84 83 84 89 88 85 82 82 85 84 84 78 67 70 68 70 72 67 66 67 64 66 64
97 98 99 99 99 99 94 98 98 97 94 92 89 90 90 89 88 89 84 86 86 86 88 87 86 83 81 84 84 86 84 81 79 78 80 73 71 66 65 64 64 66 67
98 98 98 98 98 99 99 98 98 97 98 92 90 89 93 90 87 84 87 89 87 89 90 88 86 83 84 85 85 85 78 74 74 78 76 76 68 65 65 65 67 66 66
96 97 98 98 97 97 98 99 99 98 98 94 89 93 90 90 87 80 87 90 88 90 90 87 86 84 81 78 80 77 74 74 77 77 74 78 68 65 66 67 68 66 66
85 95 98 97 97 97 98 99 100 100 99 98 92 93 92 93 93 94 97 94 94 91 97 88 82 74 76 75 73 77 80 81 88 84 82 80 71 66 66 67 67 67 64
92 91 96 96 96 97 99 99 98 98 99 99 96 92 96 96 96 94 92 94 96 97 98 92 87 78 75 67 71 76 78 83 87 90 90 81 75 66 66 66 66 67 67
92 94 96 96 97 98 99 99 98 96 96 98 98 94 92 95 96 93 92 89 96 98 96 90 83 70 71 73 76 76 81 87 90 94 97 82 78 71 66 66 66 66 66
81 94 96 96 96 98 98 98 99 99 96 98 98 97 90 92 94 95 95 88 95 91 91 80 72 71 72 78 79 78 83 89 90 94 96 89 82 78 72 66 65 66 65
82 94 96 96 97 98 98 98 98 96 97 97 96 95 96 93 94 94 92 92 93 90 86 81 81 77 74 76 81 82 82 88 90 91 93 95 89 83 80 73 69 66 65
91 95 94 90 97 97 98 98 98 97 99 98 98 96 94 94 89 90 91 92 90 86 79 75 80 76 82 77 86 86 89 89 91 93 92 93 95 88 86 81 76 72 68
91 94 96 96 98 97 98 98 97 98 98 98 98 98 94 97 90 89 89 88 85 78 74 73 92 71 80 80 79 90 96 96 91 82 90 92 92 91 93 87 82 82 78
94 94 94 96 97 98 99 97 99 99 99 99 99 95 94 96 91 90 86 87 79 71 72 80 79 87 84 77 68 86 97 97 94 91 84 83 91 90 92 91 94 90 84
96 94 94 97 98 98 97 97 98 98 99 99 99 89 88 91 94 91 80 83 75 65 70 77 80 77 90 80 80 84 85 93 94 93 94 93 92 91 92 93 97 97 91
94 92 95 95 98 98 98 98 98 96 98 98 97 96 90 92 92 88 79 80 71 66 76 80 74 91 86 76 78 78 88 78 84 87 93 87 93 92 90 91 93 94 94
94 94 95 96 97 97 97 98 99 99 99 99 99 98 97 93 92 86 79 76 70 68 69 79 77 72 75 82 68 76 78 79 81 82 86 91 89 95 90 89 89 86 89
93 93 95 96 98 97 97 98 97 97 98 96 95 95 96 95 95 92 82 75 70 72 66 73 74 73 76 73 81 70 69 71 80 76 77 85 89 88 93 95 85 83 81
95 97 97 97 96 92 96 96 97 98 97 98 95 94 97 96 92 92 86 78 78 73 79 74 81 86 73 68 70 84 84 88 84 75 79 77 79 79 84 87 86 87 82
98 97 98 97 90 90 92 96 95 96 97 98 98 99 97 97 93 91 90 88 86 83 85 83 86 84 86 82 82 77 82 80 86 87 86 86 81 78 69 73 90 88 86

GFSSE_sfc_rhum_114.txt.gz
RH
91 94 95 91 82 86 96 96 96 95 91 88 90 90 89 89 88 87 87 86 82 80 81 83 85 83 81 79 84 84 81 82 83 80 78 76 74 75 80 82 82 75 81
90 95 94 83 86 84 95 95 88 86 91 90 90 90 90 89 88 88 88 87 84 81 76 82 84 82 81 83 86 86 87 86 86 84 83 81 78 75 79 82 84 78 81
94 95 96 92 90 93 93 93 89 86 85 90 91 90 89 89 88 88 88 87 83 78 73 78 79 78 82 86 89 89 88 87 88 86 84 76 74 77 80 82 81 80 78
94 97 90 95 94 93 93 93 92 87 82 82 85 90 89 88 88 88 88 86 83 81 74 76 78 81 85 90 90 90 89 89 88 85 82 81 74 77 77 76 77 76 76
96 96 93 97 95 93 93 92 92 89 87 87 85 90 89 88 88 87 86 86 82 82 75 74 78 85 90 90 89 88 86 86 86 82 85 84 79 74 74 74 73 74 79
96 96 96 98 96 94 93 92 92 93 92 92 90 89 89 88 87 88 88 85 81 77 78 80 84 89 90 90 88 86 85 85 82 85 85 78 77 71 72 71 77 75 77
96 97 97 98 96 94 93 92 92 92 93 92 87 81 87 84 88 88 87 84 81 75 80 84 89 90 90 89 87 85 84 83 82 85 83 81 76 69 68 69 69 71 72
95 98 98 96 96 95 93 93 95 94 94 92 87 88 89 88 84 82 85 85 83 81 81 87 89 90 90 88 86 85 84 80 77 83 82 79 74 67 64 66 67 65 70
96 98 99 97 96 97 97 97 97 96 94 92 89 86 86 84 84 84 86 84 83 82 86 88 90 88 89 87 86 84 83 79 80 78 74 71 73 70 68 66 68 68 70
96 98 99 97 96 98 97 98 98 97 96 92 90 90 87 83 83 86 86 87 84 85 88 90 89 85 88 87 86 85 84 82 79 80 81 70 75 66 64 64 67 62 66
98 98 99 96 93 94 92 96 98 97 96 93 89 88 89 86 86 86 84 84 84 89 90 89 86 84 89 88 86 86 82 81 77 80 78 77 69 64 63 63 66 66 63
97 98 99 99 98 97 97 97 97 97 96 94 90 90 89 93 88 83 86 88 85 89 90 89 85 86 88 85 84 80 79 80 79 81 78 78 69 64 63 67 64 66 64
88 96 98 98 98 99 99 99 100 100 99 97 92 91 94 95 93 91 93 94 91 91 91 87 83 85 85 84 79 82 82 80 83 82 80 80 71 62 63 65 65 65 64
93 93 98 98 98 98 99 99 99 99 99 99 96 94 96 97 95 94 95 94 94 91 95 91 84 88 88 82 80 82 84 83 86 88 85 78 72 64 64 65 65 64 63
90 93 95 97 97 97 98 99 98 99 98 98 97 94 94 95 95 94 95 95 88 89 89 93 83 81 81 79 80 80 82 84 86 89 91 82 79 72 65 65 65 65 65
73 89 94 96 96 97 98 99 99 98 95 96 97 95 92 94 95 96 96 94 94 87 90 84 78 79 78 80 84 81 84 90 92 94 92 87 82 78 72 65 64 64 65
63 78 95 95 96 96 97 98 99 97 96 96 96 95 91 91 94 94 94 92 94 91 92 82 82 83 83 82 87 89 88 92 92 93 92 91 85 84 79 74 69 66 65
62 88 95 92 97 97 98 98 98 96 95 97 97 97 95 94 91 93 95 96 94 90 85 78 76 85 89 85 94 93 93 93 94 94 92 92 91 84 84 80 76 73 69
69 94 96 96 97 97 98 98 98 94 97 94 96 96 95 94 95 91 92 95 92 88 84 79 79 75 87 90 87 96 96 94 93 87 92 91 90 89 89 85 81 80 77
92 94 95 96 96 97 98 96 98 95 97 98 98 97 94 95 98 92 94 94 88 86 82 78 75 85 89 87 76 92 97 95 95 95 92 85 89 89 90 89 89 86 84
98 97 96 97 97 98 98 98 99 98 98 98 98 97 95 93 91 95 94 91 86 78 76 75 72 77 94 91 93 93 91 94 95 95 94 92 89 88 90 90 91 90 86
97 95 96 94 97 96 95 92 97 96 97 97 98 96 94 98 95 92 92 88 80 74 78 76 72 86 91 84 90 88 92 87 92 92 94 92 93 88 88 87 89 90 90
98 96 94 95 95 97 91 89 99 98 99 100 99 98 97 97 95 91 87 84 80 71 74 73 73 69 82 89 73 80 85 90 89 90 94 91 90 91 86 86 87 86 88
96 96 95 96 94 98 98 90 95 92 96 98 97 96 95 97 96 92 85 81 75 70 71 73 72 71 80 81 82 72 74 77 86 83 79 90 92 89 89 89 84 83 83
97 98 97 92 94 97 98 96 92 96 95 96 98 98 97 95 94 94 90 86 79 76 72 72 83 86 83 73 79 82 83 85 81 77 77 78 82 85 86 86 87 86 82
98 98 94 92 95 97 97 97 97 97 98 98 97 98 98 98 97 95 92 90 84 82 82 80 84 88 89 77 81 80 80 80 83 83 83 84 82 78 80 86 89 86 88

GFSSE_sfc_rhum_117.txt.gz
RH
58 67 93 84 81 93 95 96 96 94 90 89 90 90 90 90 90 90 89 88 84 82 80 80 84 83 81 79 83 81 85 84 83 81 80 78 76 77 80 82 76 56 81
52 66 94 87 81 92 95 95 87 92 90 90 91 90 90 90 89 88 87 86 83 82 79 81 84 83 81 83 85 86 86 87 86 84 82 80 78 75 80 82 77 68 82
62 70 75 85 85 86 93 91 85 83 91 91 90 91 90 89 89 89 87 84 83 82 80 80 83 80 82 86 89 88 88 88 88 86 77 51 60 77 79 83 83 82 78
67 70 69 89 88 87 94 91 85 83 87 91 91 90 89 89 89 89 88 86 83 79 79 78 79 81 85 90 89 89 90 89 88 81 51 51 57 77 76 77 80 79 78
68 71 73 92 92 92 94 93 86 84 87 91 91 90 89 89 89 88 88 86 80 79 78 75 79 86 91 92 91 90 88 88 86 63 51 54 55 70 75 76 78 78 76
69 72 84 95 92 90 93 93 86 84 83 84 90 89 89 87 85 81 74 81 80 79 77 78 82 91 92 91 89 88 88 87 78 52 54 64 60 74 73 73 80 82 81
72 76 86 96 93 92 93 93 91 87 85 87 91 88 88 86 80 82 83 83 80 79 78 83 88 92 91 89 88 88 88 84 55 53 53 54 60 70 68 70 72 78 78
76 82 85 92 95 91 93 93 95 93 86 89 91 86 87 85 90 89 85 83 80 83 82 88 91 91 90 88 87 87 87 79 58 53 51 50 71 70 68 68 70 74 74
82 84 84 90 90 96 95 96 96 96 94 94 90 88 86 88 89 87 82 82 80 83 83 88 91 91 89 88 87 86 86 80 52 51 49 48 74 68 65 65 67 69 70
82 85 88 90 88 88 85 98 98 97 95 94 93 92 92 90 86 85 85 82 81 83 84 89 92 92 89 88 86 85 85 80 50 50 49 52 73 66 67 66 67 68 67
82 83 90 90 88 88 87 92 98 97 96 95 91 91 90 68 72 74 73 84 83 85 88 91 90 91 90 88 86 86 78 50 53 50 49 78 71 64 66 65 67 66 67
78 83 90 91 92 92 90 88 88 91 90 84 81 79 79 74 69 65 74 88 88 89 91 89 88 92 81 59 62 76 52 55 53 55 51 78 70 62 66 67 65 67 64
62 75 84 91 92 93 93 91 95 97 96 94 84 83 84 81 82 75 77 80 83 87 80 76 72 66 65 60 58 59 58 59 54 52 59 79 71 62 67 65 66 66 70
66 70 79 88 93 94 92 94 93 93 98 98 95 90 92 93 88 83 82 84 82 69 77 72 66 67 71 66 63 64 62 56 56 54 60 79 74 67 66 67 66 67 63
64 68 77 83 89 92 93 96 96 94 97 98 96 93 95 93 90 93 91 92 84 78 72 74 69 69 70 68 64 63 64 62 63 56 55 80 77 71 67 66 64 63 62
56 61 69 81 84 88 92 93 94 95 94 97 98 94 92 92 91 92 95 96 92 89 69 71 68 74 64 63 65 64 62 59 59 63 54 56 81 75 71 65 64 62 63
43 53 68 75 83 86 86 87 91 89 89 91 89 96 92 90 93 91 95 96 93 91 84 74 65 69 61 60 63 62 61 64 60 62 56 54 61 82 75 73 69 65 64
35 45 60 67 82 85 86 86 91 90 91 91 92 92 95 90 88 92 94 95 94 92 83 76 62 63 62 61 63 59 57 58 62 62 57 56 53 51 71 79 76 73 69
29 35 61 74 82 86 83 85 91 93 95 93 94 94 93 92 89 92 94 95 94 91 82 70 62 61 63 61 60 59 59 58 63 57 61 62 61 55 51 79 81 79 76
35 40 63 77 80 82 88 89 92 92 93 90 93 90 92 95 93 92 95 96 94 92 80 69 64 59 60 61 55 62 63 61 61 61 60 57 59 62 59 59 59 62 82
59 65 74 81 84 87 91 97 97 96 93 95 95 86 86 91 94 97 96 96 93 93 78 71 66 69 66 62 67 69 68 69 70 63 61 58 61 62 63 61 57 54 59
63 74 78 78 87 81 81 86 87 92 94 88 90 88 93 92 94 97 96 94 91 90 84 76 68 64 64 67 62 62 76 72 68 67 64 63 67 58 61 64 62 63 59
67 80 80 79 85 82 78 81 82 92 96 97 97 97 96 96 95 98 94 92 91 83 80 74 69 66 68 69 65 56 72 68 72 67 71 64 67 65 62 71 68 63 63
61 75 77 82 84 83 80 79 84 89 94 92 95 95 95 94 95 94 94 94 88 78 77 71 67 65 70 72 66 55 55 60 60 77 67 68 66 68 73 74 65 65 64
68 78 80 83 84 86 88 82 78 91 90 86 91 94 92 94 93 92 94 94 91 79 73 70 71 68 61 63 65 61 60 59 61 58 64 67 65 63 65 66 61 63 72
80 86 85 86 84 88 87 84 82 89 89 93 92 98 91 96 96 93 95 95 92 81 77 71 73 72 71 65 60 58 55 53 55 53 56 63 60 60 60 67 67 66 66

GFSSE_sfc_rhum_120.txt.gz
RH
29 40 93 88 88 92 93 94 94 93 92 90 90 91 91 90 90 91 90 88 85 82 79 80 82 81 78 78 84 86 86 86 84 82 81 78 78 78 76 79 74 51 81
24 39 92 88 86 93 94 94 95 93 91 91 90 91 91 91 91 90 89 88 84 82 78 79 82 80 79 82 87 87 87 87 86 84 84 82 80 76 76 79 74 66 82
28 39 64 89 86 93 92 91 91 92 91 91 91 91 91 90 90 90 89 86 84 83 80 79 79 79 79 87 88 88 88 88 86 83 77 43 59 77 79 84 84 82 80
33 40 46 90 88 91 94 91 88 90 91 90 84 91 91 90 89 88 87 85 84 81 79 79 79 80 85 89 89 89 89 87 84 80 40 47 47 78 78 79 80 80 79
36 39 46 89 89 86 94 92 87 85 92 89 88 91 90 90 89 87 85 84 81 79 79 77 80 85 91 91 91 90 87 84 82 66 31 39 46 67 77 78 78 79 76
36 37 73 92 91 88 94 92 87 86 93 92 92 90 90 89 85 77 80 81 80 79 79 79 85 91 93 92 91 89 87 83 82 30 33 54 54 73 78 80 83 84 83
38 43 64 95 92 91 94 92 88 89 92 94 92 91 90 83 86 88 91 90 92 79 81 85 90 92 92 91 90 90 86 83 37 32 35 46 62 73 73 76 80 82 80
44 54 64 88 91 91 94 94 88 88 88 93 93 91 88 87 90 87 84 89 87 77 87 88 93 92 91 90 90 89 86 82 42 33 32 50 73 71 69 72 76 79 78
53 60 63 76 79 94 96 96 95 91 89 92 94 90 91 88 88 84 86 84 83 85 87 90 93 92 90 90 89 87 85 80 35 31 31 50 77 70 67 69 71 72 72
60 65 63 76 81 74 78 97 97 95 91 94 94 94 91 92 87 89 88 85 84 86 88 91 93 91 90 89 88 86 84 77 33 33 30 48 75 66 66 67 68 70 70
57 62 66 73 80 76 76 81 95 97 96 96 91 93 90 59 65 67 68 85 86 87 89 93 93 91 90 88 87 86 85 35 35 32 33 78 72 64 65 67 67 67 66
51 57 63 70 77 78 80 81 80 78 71 70 69 71 57 57 59 51 64 88 88 89 92 93 92 91 82 58 57 77 41 39 36 34 40 79 71 66 67 68 68 68 68
38 46 56 68 73 80 81 81 80 86 71 64 66 66 64 56 66 55 51 73 76 82 90 86 78 62 55 45 45 46 43 44 35 34 58 78 71 66 66 67 66 65 68
35 42 54 63 77 78 77 81 80 75 88 71 64 70 77 72 62 58 52 62 66 78 81 73 74 61 48 44 48 49 48 39 37 35 56 79 75 69 67 66 66 66 68
34 41 50 58 74 80 83 89 88 86 73 76 81 77 82 78 67 63 78 64 82 82 70 66 61 49 51 62 52 51 48 45 43 35 43 81 80 73 64 68 63 62 63
25 32 41 53 61 76 85 90 88 85 78 89 90 79 79 84 78 86 86 81 89 83 69 68 54 47 50 55 57 52 49 43 42 42 40 55 80 77 73 66 65 62 61
14 16 31 40 55 64 76 85 87 83 81 80 86 84 81 86 78 80 90 88 93 94 88 81 60 50 50 51 56 51 47 45 41 46 42 47 55 81 79 76 69 65 64
14 16 19 26 45 59 64 66 78 81 83 88 72 90 88 89 85 87 90 91 88 96 94 80 59 54 52 57 58 48 44 44 47 45 39 39 41 41 73 79 75 70 70
16 17 22 28 42 56 62 60 68 69 77 82 70 73 90 91 86 89 90 93 93 95 91 85 69 56 58 53 51 47 45 45 49 40 42 43 43 40 40 77 79 78 76
24 24 28 28 40 53 61 69 73 75 82 80 88 72 74 89 91 90 90 91 94 95 93 84 74 53 52 48 46 50 48 46 46 47 47 40 42 43 40 48 54 56 82
33 32 38 40 48 56 69 80 88 87 86 84 81 78 82 80 92 93 95 96 94 95 93 83 71 60 51 56 58 62 53 54 53 52 49 41 43 44 45 43 42 38 52
39 43 44 46 53 55 67 74 74 80 78 77 84 80 82 79 87 91 93 96 94 94 94 81 72 57 50 53 57 56 76 68 56 55 51 44 49 42 44 46 45 43 39
39 46 44 44 54 61 57 71 69 75 80 91 92 91 85 74 75 86 91 97 95 94 94 90 74 68 59 58 53 49 59 61 58 55 57 50 54 48 45 47 49 48 51
46 52 49 49 56 74 67 74 72 74 76 73 76 87 81 76 81 88 92 96 96 93 92 90 76 64 58 60 52 40 44 41 55 67 56 54 52 53 55 49 52 60 52
46 58 57 55 73 74 77 68 66 64 57 65 87 85 84 93 88 81 93 96 95 93 90 86 81 67 59 57 54 50 48 48 48 44 56 57 53 50 48 54 56 57 51
41 56 70 69 74 80 82 71 66 64 63 72 86 79 83 94 94 93 94 95 94 95 92 89 82 71 62 58 52 54 51 50 46 44 42 54 55 53 49 53 56 52 48

GFSSE_sfc_rhum_123.txt.gz
RH
18 44 93 92 90 91 92 93 93 93 92 92 91 92 93 92 92 91 90 88 86 84 80 81 81 79 78 79 86 88 87 86 85 84 83 80 76 74 75 76 74 58 81
18 36 92 90 91 92 92 93 93 93 91 91 90 93 93 92 93 91 90 88 85 81 80 80 80 80 81 85 88 88 88 88 87 84 84 82 80 75 74 77 76 70 83
20 35 62 89 91 91 90 91 93 93 91 90 91 92 89 92 92 91 90 88 83 82 79 79 79 78 82 87 89 89 89 88 86 82 76 49 59 79 79 84 85 84 82
21 33 42 91 92 93 94 92 94 92 91 91 91 89 90 91 90 89 89 86 82 82 79 78 78 79 86 89 90 89 87 86 84 82 44 44 53 78 78 80 81 82 82
22 27 46 90 90 94 94 91 92 93 92 92 91 89 88 90 89 88 85 80 80 79 80 78 80 86 91 92 91 89 86 83 85 72 42 48 49 70 77 79 80 80 78
22 24 82 92 90 93 93 91 89 92 92 91 91 90 90 89 87 83 85 90 91 93 74 78 81 89 93 93 91 88 85 83 87 39 45 59 57 76 78 82 85 85 84
23 31 67 91 91 92 93 92 90 92 94 92 92 92 89 88 86 88 76 84 82 84 84 79 89 93 93 92 90 87 84 84 49 30 40 57 64 77 78 80 82 84 82
29 36 61 86 92 92 94 94 91 91 94 95 94 93 88 88 87 82 86 89 88 88 88 86 93 93 92 92 89 86 85 84 43 29 46 55 77 75 76 78 78 81 80
37 46 55 68 77 95 95 95 92 88 93 96 95 94 91 90 88 88 89 88 88 89 88 90 94 93 92 91 89 86 82 82 49 35 44 52 79 73 72 74 74 74 74
44 55 55 63 69 71 76 97 94 90 92 95 96 95 94 92 90 90 90 90 89 89 88 92 94 93 93 90 88 85 81 78 38 28 45 57 78 70 70 71 72 72 70
47 55 57 64 65 66 64 76 95 95 93 96 93 95 92 63 65 71 73 87 89 90 92 94 93 92 91 90 87 85 83 33 32 27 49 80 75 69 68 70 71 70 69
43 50 54 61 69 66 61 68 71 69 69 69 69 74 72 67 63 52 64 88 90 92 94 94 94 93 82 66 70 78 45 33 30 32 51 80 72 64 65 68 68 68 66
29 38 46 56 66 68 71 74 64 59 61 61 67 64 72 63 66 57 77 59 72 89 74 86 90 81 66 58 58 51 45 38 30 39 64 80 74 68 68 68 68 68 68
19 31 41 48 62 67 59 71 75 59 58 59 58 68 71 68 73 62 71 70 58 64 76 72 88 84 64 51 46 45 50 34 31 40 61 80 77 68 65 66 66 66 70
21 26 37 47 58 62 65 70 75 59 62 57 56 65 64 66 67 64 71 68 55 68 78 77 81 70 57 42 42 56 48 37 36 35 47 82 79 75 67 66 65 66 66
20 25 33 43 52 62 68 78 74 65 55 61 57 64 72 66 67 60 64 74 71 81 86 92 76 79 54 47 53 61 41 37 37 41 48 60 81 77 75 69 66 64 63
15 18 26 34 43 57 68 79 76 66 59 57 59 70 71 77 73 66 67 79 80 92 90 93 77 76 58 53 62 60 41 40 37 39 44 52 62 82 80 76 72 65 64
13 15 15 14 34 49 57 70 79 75 69 61 67 75 76 79 73 76 71 73 86 90 96 97 86 85 59 48 61 57 40 39 40 41 38 43 46 47 77 80 75 71 68
12 14 19 21 28 43 50 53 70 84 84 73 62 67 84 83 80 81 81 83 84 86 96 97 98 83 55 48 60 59 45 39 42 35 39 44 48 44 48 79 79 75 74
26 28 27 25 31 35 47 56 54 70 78 83 75 58 72 79 82 82 88 87 86 92 94 97 94 79 49 50 54 55 49 57 47 43 39 36 39 45 44 54 56 60 81
25 29 29 32 38 33 36 48 56 68 84 84 83 67 76 84 80 90 90 91 92 95 92 93 92 84 61 57 66 69 63 64 57 52 42 37 40 40 43 47 47 42 58
28 31 35 34 37 36 34 43 54 71 83 82 78 71 67 73 87 84 86 94 92 96 94 95 93 86 66 69 62 65 80 78 68 52 49 44 49 37 38 42 44 41 42
33 44 39 35 36 41 42 46 75 81 86 91 84 75 69 71 75 82 88 94 95 93 96 94 94 88 69 66 64 58 71 68 72 62 60 50 51 43 40 41 43 40 39
35 45 44 41 38 43 49 57 81 84 85 84 80 79 70 69 69 69 76 89 96 94 94 94 93 90 74 68 63 53 51 47 64 77 58 61 48 45 51 43 44 45 44
35 40 52 48 45 50 58 59 74 84 69 70 68 77 77 74 68 69 80 89 97 96 94 92 95 90 75 70 60 60 53 46 54 54 66 63 60 44 43 45 46 49 55
40 47 42 53 54 69 74 75 80 81 70 68 65 74 74 81 80 75 78 89 92 96 94 94 93 90 83 71 61 54 50 49 55 50 54 57 60 51 44 46 54 52 55

GFSSE_sfc_rhum_129.txt.gz
RH
79 95 92 90 91 93 92 91 92 93 94 94 94 93 93 92 92 92 92 91 89 86 81 81 84 79 80 83 88 89 89 88 86 83 81 80 77 79 82 85 84 78 84
81 93 92 91 92 92 94 92 93 93 93 93 94 94 94 93 93 92 91 90 86 84 81 81 81 78 81 84 89 90 90 89 88 87 85 82 80 78 79 86 86 83 85
80 89 87 93 92 93 93 94 93 93 92 92 94 94 94 93 92 92 91 88 83 80 76 78 79 77 84 88 90 89 89 88 84 84 83 78 77 80 79 84 87 86 85
76 83 88 94 94 93 93 94 94 93 93 93 94 94 93 93 92 91 89 88 83 84 75 72 73 79 86 90 90 90 89 87 86 83 73 73 70 80 81 84 85 84 83
65 77 85 94 95 94 94 94 95 94 94 94 95 93 92 92 92 89 90 87 81 81 83 83 76 78 88 89 88 89 87 86 85 71 80 81 80 77 80 81 84 85 84
61 74 93 94 95 94 94 95 96 95 94 95 95 94 92 91 91 90 90 88 83 77 81 82 80 79 91 89 88 88 89 84 85 74 74 82 81 78 78 82 87 86 86
78 83 90 94 95 93 93 95 96 96 96 95 94 94 93 91 92 90 92 86 83 79 84 83 86 85 90 88 89 90 92 86 70 87 90 90 83 81 81 83 86 87 86
84 88 90 92 95 95 94 95 96 95 94 96 95 94 92 92 91 93 92 84 82 84 87 88 89 87 89 88 89 91 91 79 79 93 90 87 85 80 79 83 84 86 85
84 90 95 95 95 95 95 95 96 94 94 95 83 94 94 94 88 86 91 85 84 84 88 86 88 91 90 89 89 90 92 81 89 95 79 84 84 80 79 80 81 80 79
88 91 94 97 98 99 98 95 96 92 95 95 93 94 96 95 87 88 89 87 87 88 91 90 92 92 91 91 90 89 90 86 82 90 90 85 84 77 76 77 78 78 78
90 91 92 96 97 98 98 96 96 93 90 95 92 97 98 94 86 88 88 90 91 91 91 93 95 96 96 94 90 87 90 72 76 78 83 86 80 74 75 76 76 76 76
89 95 91 95 96 96 90 97 98 94 92 80 87 95 97 95 91 80 89 92 91 92 94 96 96 96 93 95 95 87 87 73 80 80 82 86 79 74 76 75 74 75 75
74 84 89 91 94 95 91 99 99 99 98 92 82 91 94 92 91 87 95 89 97 96 98 96 96 96 92 88 91 84 85 74 83 79 83 86 78 74 76 75 73 74 75
70 78 86 86 90 94 94 98 96 97 97 98 95 97 97 96 96 92 91 95 97 98 97 96 98 97 91 80 83 84 81 70 80 82 84 84 81 76 74 74 72 73 74
63 70 80 84 86 87 91 98 93 91 92 93 93 95 95 95 93 92 92 95 96 98 97 99 98 93 88 84 79 78 78 72 77 81 84 86 84 76 70 71 67 71 71
30 63 74 85 84 82 90 93 91 96 93 91 90 89 92 90 93 89 90 95 96 95 96 94 95 94 95 94 94 90 74 70 71 78 85 83 86 81 74 69 68 68 70
25 43 72 81 85 84 88 90 90 84 92 89 86 90 87 91 90 88 89 93 94 96 96 97 96 95 93 94 91 89 75 66 68 75 84 85 84 86 83 78 76 71 69
26 33 66 68 82 84 81 91 90 89 84 92 89 91 86 91 88 90 90 90 93 96 96 97 95 98 97 96 97 91 78 65 70 74 80 83 91 80 85 83 78 76 75
27 40 57 71 84 86 89 89 91 86 86 86 91 84 92 87 90 88 87 92 94 96 97 97 96 92 96 98 96 96 84 66 69 70 78 82 86 90 86 86 83 82 78
39 38 40 46 70 91 94 94 95 96 89 94 96 90 92 91 92 91 92 93 94 97 97 95 93 95 94 94 90 92 92 68 66 78 77 72 76 81 84 87 83 78 83
39 39 44 46 53 65 91 98 98 96 96 93 88 88 92 93 93 94 94 94 96 95 94 94 95 96 97 95 98 99 96 79 65 71 72 74 72 75 82 83 84 80 80
48 60 60 61 62 62 60 81 94 94 96 89 91 92 94 91 94 96 94 94 94 96 95 95 94 96 97 96 94 92 96 89 72 68 64 67 74 71 77 77 76 76 83
64 63 62 65 71 71 66 59 86 96 98 98 95 91 85 95 92 92 95 94 94 94 96 95 93 91 94 98 95 87 93 93 80 81 70 64 68 72 77 72 72 72 78
63 60 60 61 66 68 74 70 85 94 99 98 95 92 91 93 95 94 94 94 94 96 96 95 93 92 88 94 98 76 70 70 79 85 79 75 64 70 78 77 73 72 75
55 56 60 65 65 76 82 88 94 95 96 98 98 95 92 96 95 96 96 97 96 97 95 94 94 92 89 85 87 87 73 67 63 66 74 77 80 63 74 75 75 78 71
63 60 58 63 68 74 80 85 89 94 95 96 97 94 92 91 95 96 95 97 96 96 96 95 94 92 92 88 86 84 70 71 70 69 70 68 71 74 67 73 76 90 94

GFSSE_sfc_rhum_132.txt.gz
RH
90 95 94 94 92 92 92 93 94 94 94 92 92 93 92 92 93 93 92 92 89 85 80 80 81 80 79 78 83 88 87 82 86 83 82 81 80 82 84 87 85 79 84
84 95 94 93 93 92 92 93 94 94 94 93 93 93 93 92 92 92 91 90 87 82 77 78 80 82 81 85 85 83 87 87 87 86 84 85 83 81 83 87 86 84 85
90 91 90 93 93 93 92 93 93 93 93 92 94 93 93 92 92 92 90 88 87 82 76 76 78 81 83 87 88 87 89 87 88 87 85 84 81 81 84 89 88 86 84
88 91 91 94 93 93 94 94 94 92 93 94 94 94 93 92 91 90 88 89 84 81 77 73 76 81 87 89 89 89 88 88 86 82 78 80 76 80 82 84 85 83 82
85 87 90 94 94 93 94 94 94 94 94 95 95 94 94 92 90 90 88 88 86 80 74 72 75 85 89 90 90 87 87 87 85 84 93 90 82 78 80 82 83 84 83
80 83 95 95 94 93 93 94 95 95 95 95 95 94 94 92 90 91 88 87 86 82 78 74 82 87 90 91 89 87 88 86 83 89 93 88 86 79 81 84 86 86 85
80 90 95 96 95 94 93 94 95 95 95 95 95 95 94 93 91 92 90 88 86 86 84 83 82 87 91 91 89 90 88 85 87 96 95 95 88 80 79 83 84 86 85
81 91 94 95 95 94 95 95 97 96 96 96 96 95 94 94 94 92 88 88 87 89 89 89 85 85 90 91 90 93 89 82 81 92 96 96 86 79 80 82 86 87 85
83 92 96 96 94 95 97 97 98 97 97 96 96 96 95 95 95 93 86 87 88 89 92 89 87 90 90 91 90 91 93 86 87 94 89 91 84 80 80 81 83 82 81
89 92 97 98 96 97 97 97 98 95 98 97 96 96 97 95 95 94 88 87 83 89 88 89 89 92 90 92 94 94 91 94 98 96 95 93 85 79 78 78 78 78 78
92 95 96 98 98 98 98 97 98 95 97 95 92 96 99 93 89 91 90 88 84 92 90 90 93 93 93 92 94 93 91 91 96 91 99 90 83 76 79 78 78 75 77
95 97 97 97 98 98 94 98 98 94 97 96 84 96 98 97 90 81 88 89 90 92 92 93 95 95 94 92 96 94 94 78 93 91 97 89 81 78 78 78 76 78 78
85 90 95 95 97 98 97 94 98 98 98 94 81 93 97 96 95 92 98 94 98 94 98 98 99 99 96 94 92 96 87 89 91 88 88 89 81 76 75 76 77 77 78
87 88 91 91 95 97 98 93 89 95 91 93 86 83 92 97 98 96 94 98 98 97 93 93 93 98 96 91 84 84 83 84 93 90 90 90 83 76 74 74 75 76 76
81 85 94 93 93 95 98 97 94 90 88 85 93 86 80 91 94 94 96 96 97 93 94 92 97 98 97 92 84 87 75 82 90 90 95 89 87 81 74 70 70 74 74
70 81 90 93 90 92 95 96 98 98 96 96 94 88 93 85 92 96 96 97 98 97 95 95 98 96 98 95 96 93 87 78 85 92 91 89 88 84 78 70 73 70 71
50 70 88 90 91 91 90 97 96 95 96 97 96 96 88 95 97 96 95 97 97 98 98 98 98 97 98 96 92 96 81 75 83 88 90 89 85 86 84 76 75 72 71
30 62 80 77 90 88 88 91 95 92 95 95 95 94 96 95 95 95 94 96 97 98 98 98 98 98 97 96 97 94 87 75 78 85 88 90 90 80 85 82 79 76 76
24 52 81 80 90 90 91 94 95 94 90 95 95 93 93 95 93 93 93 94 96 97 97 97 98 93 94 97 96 95 92 79 77 79 88 93 94 95 94 87 84 83 80
42 55 84 86 90 93 96 97 98 98 95 97 95 93 94 92 94 94 94 95 94 96 97 98 96 94 91 94 92 91 97 83 77 82 87 83 91 92 93 90 86 83 84
46 46 52 82 96 98 99 99 100 98 98 97 98 92 95 94 94 94 95 96 94 95 95 96 97 95 97 96 97 99 98 93 82 80 82 85 86 88 91 90 96 88 82
51 59 67 64 64 75 88 97 97 97 97 92 93 96 95 96 96 95 95 96 95 95 97 96 93 95 97 95 94 96 99 99 95 82 80 79 84 83 85 85 86 87 88
76 72 69 74 78 76 65 70 97 98 99 99 99 97 96 97 97 94 94 96 95 93 96 96 94 92 95 97 92 94 98 95 93 88 80 80 84 85 83 83 84 81 84
75 69 65 64 69 83 87 74 90 97 96 97 94 95 95 95 96 97 95 95 95 94 95 95 94 92 91 97 95 79 80 80 86 96 83 80 81 82 86 85 84 80 79
68 74 66 65 65 76 87 91 95 93 96 98 98 95 95 95 91 96 97 96 96 95 94 95 96 94 91 90 90 89 78 82 62 73 84 93 80 77 83 84 82 83 81
71 67 65 66 78 83 86 90 91 93 95 99 99 98 98 98 95 95 97 96 95 96 97 96 95 94 95 91 89 85 80 75 75 67 71 77 80 78 79 83 85 87 89